[[{"header":{"parameterUnit":"m.s-1","parameterCategory":1,"la1":30.6,"la2":28.766,"lo1":-90.7593,"lo2":-88.6598,"dy":0.0162,"dx":0.0183,"nx":116,"ny":114,"refTime":"2023-03-28T18:00:00:Z","depth":0,"parameterNumber":2,"parameterNumberName":"U-component_of_WINDS"},"data":[0.0,0.0,0.0,0.0,0.0,0.0,0.0,0.0,0.0,0.0,0.0,0.0,0.0,0.0,0.0,0.0,0.0,0.0,0.0,0.0,0.0,0.0,0.0,0.0,0.0,0.0,0.0,0.0,0.0,0.0,0.0,0.0,0.0,0.0,0.0,0.0,0.0,0.0,0.0,0.0,0.0,0.0,0.0,0.0,0.0,0.0,0.0,0.0,0.0,0.0,0.0,0.0,0.0,0.0,0.0,0.0,0.0,0.0,0.0,0.0,0.0,0.0,0.0,0.0,0.0,0.0,0.0,0.0,0.0,0.0,0.0,0.0,0.0,0.0,0.0,0.0,0.0,0.0,0.0,0.0,0.0,0.0,0.0,0.0,0.0,0.0,0.0,0.0,0.0,0.0,0.0,0.0,0.0,0.0,0.0,0.0,0.0,0.0,0.0,0.0,0.0,0.0,0.0,0.0,0.0,0.0,0.0,0.0,0.0,0.0,0.0,0.0,0.0,0.0,0.0,0.0,0.0,0.0,0.0,0.0,0.0,0.0,0.0,0.0,0.0,0.0,0.0,0.0,0.0,0.0,0.0,0.0,0.0,0.0,0.0,0.0,0.0,0.0,0.0,0.0,0.0,0.0,0.0,0.0,0.0,0.0,0.0,0.0,0.0,0.0,0.0,0.0,0.0,0.0,0.0,0.0,0.0,0.0,0.0,0.0,0.0,0.0,0.0,0.0,0.0,0.0,0.0,0.0,0.0,0.0,0.0,0.0,0.0,0.0,0.0,0.0,0.0,0.0,0.0,0.0,0.0,0.0,0.0,0.0,0.0,0.0,0.0,0.0,0.0,0.0,0.0,0.0,0.0,0.0,0.0,0.0,0.0,0.0,0.0,0.0,0.0,0.0,0.0,0.0,0.0,0.0,0.0,0.0,0.0,0.0,0.0,0.0,0.0,0.0,0.0,0.0,0.0,0.0,0.0,0.0,0.0,0.0,0.0,0.0,0.0,0.0,0.0,0.0,0.0,0.0,0.0,0.0,0.0,0.0,0.0,0.0,0.0,0.0,0.0,0.0,0.0,0.0,0.0,0.0,0.0,0.0,0.0,0.0,0.0,0.0,0.0,0.0,0.0,0.0,0.0,0.0,0.0,0.0,0.0,0.0,0.0,0.0,0.0,0.0,0.0,0.0,0.0,0.0,0.0,0.0,0.0,0.0,0.0,0.0,0.0,0.0,0.0,0.0,0.0,0.0,0.0,0.0,0.0,0.0,0.0,0.0,0.0,0.0,0.0,0.0,0.0,0.0,0.0,0.0,0.0,0.0,0.0,0.0,0.0,0.0,0.0,0.0,0.0,0.0,0.0,0.0,0.0,0.0,0.0,0.0,0.0,0.0,0.0,0.0,0.0,0.0,0.0,0.0,0.0,0.0,0.0,0.0,0.0,0.0,0.0,0.0,0.0,0.0,0.0,0.0,0.0,0.0,0.0,0.0,0.0,0.0,0.0,0.0,0.0,0.0,0.0,0.0,0.0,0.0,0.0,0.0,0.0,0.0,0.0,0.0,0.0,0.0,0.0,0.0,0.0,0.0,0.0,0.0,0.0,0.0,0.0,0.0,0.0,0.0,0.0,0.0,0.0,0.0,0.0,0.0,0.0,0.0,0.0,0.0,0.0,0.0,0.0,0.0,0.0,0.0,0.0,0.0,0.0,0.0,0.0,0.0,0.0,0.0,0.0,0.0,0.0,0.0,0.0,0.0,0.0,0.0,0.0,0.0,0.0,0.0,0.0,0.0,0.0,0.0,0.0,0.0,0.0,0.0,0.0,0.0,0.0,0.0,0.0,0.0,0.0,0.0,0.0,0.0,0.0,0.0,0.0,0.0,0.0,0.0,0.0,0.0,0.0,0.0,0.0,0.0,0.0,0.0,0.0,0.0,0.0,0.0,0.0,0.0,0.0,0.0,0.0,0.0,0.0,0.0,0.0,0.0,0.0,0.0,0.0,0.0,0.0,0.0,0.0,0.0,0.0,0.0,0.0,0.0,0.0,0.0,0.0,0.0,0.0,0.0,0.0,0.0,0.0,0.0,0.0,0.0,0.0,0.0,0.0,0.0,0.0,0.0,0.0,0.0,0.0,0.0,0.0,0.0,0.0,0.0,0.0,0.0,0.0,0.0,0.0,0.0,0.0,0.0,0.0,0.0,0.0,0.0,0.0,0.0,0.0,0.0,0.0,0.0,0.0,0.0,0.0,0.0,0.0,0.0,0.0,0.0,0.0,0.0,0.0,0.0,0.0,0.0,0.0,0.0,0.0,0.0,0.0,0.0,0.0,0.0,0.0,0.0,0.0,0.0,0.0,0.0,0.0,0.0,0.0,0.0,0.0,0.0,0.0,0.0,0.0,0.0,0.0,0.0,0.0,0.0,0.0,0.0,0.0,0.0,0.0,0.0,0.0,0.0,0.0,0.0,0.0,0.0,0.0,0.0,0.0,0.0,0.0,0.0,0.0,0.0,0.0,0.0,0.0,0.0,0.0,0.0,0.0,0.0,0.0,0.0,0.0,0.0,0.0,0.0,0.0,0.0,0.0,0.0,0.0,0.0,0.0,0.0,0.0,0.0,0.0,0.0,0.0,0.0,0.0,0.0,0.0,0.0,0.0,0.0,0.0,0.0,0.0,0.0,0.0,0.0,0.0,0.0,0.0,0.0,0.0,0.0,0.0,0.0,0.0,0.0,0.0,0.0,0.0,0.0,0.0,0.0,0.0,0.0,0.0,0.0,0.0,0.0,0.0,0.0,0.0,0.0,0.0,0.0,0.0,0.0,0.0,0.0,0.0,0.0,0.0,0.0,0.0,0.0,0.0,0.0,0.0,0.0,0.0,0.0,0.0,0.0,0.0,0.0,0.0,0.0,0.0,0.0,0.0,0.0,0.0,0.0,0.0,0.0,0.0,0.0,0.0,0.0,0.0,0.0,0.0,0.0,0.0,0.0,0.0,0.0,0.0,0.0,0.0,0.0,0.0,0.0,0.0,0.0,0.0,0.0,0.0,0.0,0.0,0.0,0.0,0.0,0.0,0.0,0.0,0.0,0.0,0.0,0.0,0.0,0.0,0.0,0.0,0.0,0.0,0.0,0.0,0.0,0.0,0.0,0.0,0.0,0.0,0.0,0.0,0.0,0.0,0.0,0.0,0.0,0.0,0.0,0.0,0.0,0.0,0.0,0.0,0.0,0.0,0.0,0.0,0.0,0.0,0.0,0.0,0.0,0.0,0.0,0.0,0.0,0.0,0.0,0.0,0.0,0.0,0.0,0.0,0.0,0.0,0.0,0.0,0.0,0.0,0.0,0.0,0.0,0.0,0.0,0.0,0.0,0.0,0.0,0.0,0.0,0.0,0.0,0.0,0.0,0.0,0.0,0.0,0.0,0.0,0.0,0.0,0.0,0.0,0.0,0.0,0.0,0.0,0.0,0.0,0.0,0.0,0.0,0.0,0.0,0.0,0.0,0.0,0.0,0.0,0.0,0.0,0.0,0.0,0.0,0.0,0.0,0.0,0.0,0.0,0.0,0.0,0.0,0.0,0.0,0.0,0.0,0.0,0.0,0.0,0.0,0.0,0.0,0.0,0.0,0.0,0.0,0.0,0.0,0.0,0.0,0.0,0.0,0.0,0.0,0.0,0.0,0.0,0.0,0.0,0.0,0.0,0.0,0.0,0.0,0.0,0.0,0.0,0.0,0.0,0.0,0.0,0.0,0.0,0.0,0.0,0.0,0.0,0.0,0.0,0.0,0.0,0.0,0.0,0.0,0.0,0.0,0.0,0.0,0.0,0.0,0.0,0.0,0.0,0.0,0.0,0.0,0.0,0.0,0.0,0.0,0.0,0.0,0.0,0.0,0.0,0.0,0.0,0.0,0.0,0.0,0.0,0.0,0.0,0.0,0.0,0.0,0.0,0.0,0.0,0.0,0.0,0.0,0.0,0.0,0.0,0.0,0.0,0.0,0.0,0.0,0.0,0.0,0.0,0.0,0.0,0.0,0.0,0.0,0.0,0.0,0.0,0.0,0.0,0.0,0.0,0.0,0.0,0.0,0.0,0.0,0.0,0.0,0.0,0.0,0.0,0.0,0.0,0.0,0.0,0.0,0.0,0.0,0.0,0.0,0.0,0.0,0.0,0.0,0.0,0.0,0.0,0.0,0.0,0.0,0.0,0.0,0.0,0.0,0.0,0.0,0.0,0.0,0.0,0.0,0.0,0.0,0.0,0.0,0.0,0.0,0.0,0.0,0.0,0.0,0.0,0.0,0.0,0.0,0.0,0.0,0.0,0.0,0.0,0.0,0.0,0.0,0.0,0.0,0.0,0.0,0.0,0.0,0.0,0.0,0.0,0.0,0.0,0.0,0.0,0.0,0.0,0.0,0.0,0.0,0.0,0.0,0.0,0.0,0.0,0.0,0.0,0.0,0.0,0.0,0.0,0.0,0.0,0.0,0.0,0.0,0.0,0.0,0.0,0.0,0.0,0.0,0.0,0.0,0.0,0.0,0.0,0.0,0.0,0.0,0.0,0.0,0.0,0.0,0.0,0.0,0.0,0.0,0.0,0.0,0.0,0.0,0.0,0.0,0.0,0.0,0.0,0.0,0.0,0.0,0.0,0.0,0.0,0.0,0.0,0.0,0.0,0.0,0.0,0.0,0.0,0.0,0.0,0.0,0.0,0.0,0.0,0.0,0.0,0.0,0.0,0.0,0.0,0.0,0.0,0.0,0.0,0.0,0.0,0.0,0.0,0.0,0.0,0.0,0.0,0.0,0.0,0.0,0.0,0.0,0.0,0.0,0.0,0.0,0.0,0.0,0.0,0.0,0.0,0.0,0.0,0.0,0.0,0.0,0.0,0.0,0.0,0.0,0.0,0.0,0.0,0.0,0.0,0.0,0.0,0.0,0.0,0.0,0.0,0.0,0.0,0.0,0.0,0.0,0.0,0.0,0.0,0.0,0.0,0.0,0.0,0.0,0.0,0.0,0.0,0.0,0.0,0.0,0.0,0.0,0.0,0.0,0.0,0.0,0.0,0.0,0.0,0.0,0.0,0.0,0.0,0.0,0.0,0.0,0.0,0.0,0.0,0.0,0.0,0.0,0.0,0.0,0.0,0.0,0.0,0.0,0.0,0.0,0.0,0.0,0.0,0.0,0.0,0.0,0.0,0.0,0.0,0.0,0.0,0.0,0.0,0.0,0.0,0.0,0.0,0.0,0.0,0.0,0.0,0.0,0.0,0.0,0.0,0.0,0.0,0.0,0.0,0.0,0.0,0.0,0.0,0.0,0.0,0.0,0.0,0.0,0.0,0.0,0.0,0.0,0.0,0.0,0.0,0.0,0.0,0.0,0.0,0.0,0.0,0.0,0.0,0.0,0.0,0.0,0.0,0.0,0.0,0.0,0.0,0.0,0.0,0.0,0.0,0.0,0.0,0.0,0.0,0.0,0.0,0.0,0.0,0.0,0.0,0.0,0.0,0.0,0.0,0.0,0.0,0.0,0.0,0.0,0.0,0.0,0.0,0.0,0.0,0.0,0.0,0.0,0.0,0.0,0.0,0.0,0.0,0.0,0.0,0.0,0.0,0.0,0.0,0.0,0.0,0.0,0.0,0.0,0.0,0.0,0.0,0.0,0.0,0.0,0.0,0.0,0.0,0.0,0.0,0.0,0.0,0.0,0.0,0.0,0.0,0.0,0.0,0.0,0.0,0.0,0.0,0.0,0.0,0.0,0.0,0.0,0.0,0.0,0.0,0.0,0.0,0.0,0.0,0.0,0.0,0.0,0.0,0.0,0.0,0.0,0.0,0.0,0.0,0.0,0.0,0.0,0.0,0.0,0.0,0.0,0.0,0.0,0.0,0.0,0.0,0.0,0.0,0.0,0.0,0.0,0.0,0.0,0.0,0.0,0.0,0.0,0.0,0.0,0.0,0.0,0.0,0.0,0.0,0.0,0.0,0.0,0.0,0.0,0.0,0.0,0.0,0.0,0.0,0.0,0.0,0.0,0.0,0.0,0.0,0.0,0.0,0.0,0.0,0.0,0.0,0.0,0.0,0.0,0.0,0.0,0.0,0.0,0.0,0.0,0.0,0.0,3.6359,3.6592,0.0,0.0,0.0,0.0,0.0,0.0,0.0,0.0,0.0,0.0,0.0,0.0,0.0,0.0,0.0,0.0,0.0,0.0,0.0,0.0,0.0,0.0,0.0,0.0,0.0,0.0,0.0,0.0,0.0,0.0,0.0,0.0,0.0,0.0,0.0,0.0,0.0,0.0,0.0,0.0,0.0,0.0,0.0,0.0,0.0,0.0,0.0,0.0,0.0,0.0,0.0,0.0,0.0,0.0,0.0,0.0,0.0,0.0,0.0,0.0,0.0,0.0,0.0,0.0,0.0,0.0,0.0,0.0,0.0,0.0,0.0,0.0,0.0,0.0,0.0,0.0,0.0,0.0,0.0,0.0,0.0,0.0,0.0,0.0,0.0,0.0,0.0,0.0,0.0,0.0,0.0,0.0,0.0,0.0,0.0,0.0,0.0,0.0,0.0,0.0,0.0,0.0,0.0,0.0,0.0,0.0,0.0,0.0,0.0,0.0,0.0,0.0,0.0,0.0,3.6908,3.6492,0.0,0.0,0.0,0.0,0.0,0.0,0.0,0.0,0.0,0.0,0.0,0.0,0.0,0.0,0.0,0.0,0.0,0.0,0.0,0.0,0.0,0.0,0.0,0.0,0.0,0.0,0.0,0.0,0.0,0.0,0.0,0.0,0.0,0.0,0.0,0.0,0.0,0.0,0.0,0.0,0.0,0.0,0.0,0.0,0.0,0.0,0.0,0.0,0.0,0.0,0.0,0.0,0.0,0.0,0.0,0.0,0.0,0.0,0.0,0.0,0.0,0.0,0.0,0.0,0.0,0.0,0.0,0.0,0.0,0.0,0.0,0.0,0.0,0.0,0.0,0.0,0.0,0.0,0.0,0.0,0.0,0.0,0.0,0.0,0.0,0.0,0.0,0.0,0.0,0.0,0.0,0.0,0.0,0.0,0.0,0.0,0.0,0.0,0.0,0.0,0.0,0.0,0.0,0.0,0.0,0.0,0.0,0.0,3.859,3.9397,3.9796,3.9243,3.9223,3.9499,3.8176,3.7067,3.6198,3.6559,0.0,0.0,0.0,0.0,0.0,0.0,0.0,0.0,0.0,0.0,0.0,0.0,0.0,0.0,0.0,0.0,0.0,0.0,0.0,0.0,0.0,0.0,0.0,0.0,0.0,0.0,0.0,0.0,0.0,0.0,0.0,0.0,0.0,0.0,0.0,0.0,0.0,0.0,3.1469,3.1497,3.1824,3.2251,0.0,0.0,0.0,0.0,0.0,0.0,0.0,0.0,0.0,0.0,0.0,0.0,0.0,0.0,0.0,0.0,0.0,0.0,0.0,0.0,0.0,0.0,0.0,0.0,0.0,0.0,0.0,0.0,0.0,0.0,0.0,0.0,0.0,0.0,0.0,0.0,0.0,0.0,0.0,0.0,0.0,0.0,0.0,0.0,3.5345,3.6006,0.0,0.0,0.0,0.0,0.0,0.0,0.0,0.0,0.0,0.0,0.0,0.0,0.0,3.7506,3.7962,3.8142,3.8511,3.9065,3.9823,4.0242,4.0314,4.0224,4.0215,4.0247,4.0024,0.0,3.7965,3.7081,0.0,0.0,0.0,0.0,0.0,0.0,0.0,0.0,0.0,0.0,0.0,0.0,0.0,0.0,0.0,0.0,0.0,0.0,0.0,0.0,0.0,0.0,0.0,0.0,0.0,0.0,0.0,0.0,0.0,0.0,0.0,0.0,0.0,0.0,0.0,0.0,2.9912,3.1421,3.2761,3.2761,3.2909,3.3146,3.2262,3.1834,3.1666,3.0799,0.0,0.0,0.0,0.0,0.0,0.0,0.0,0.0,0.0,0.0,0.0,0.0,0.0,0.0,0.0,0.0,0.0,0.0,0.0,0.0,0.0,0.0,0.0,0.0,0.0,0.0,0.0,0.0,0.0,0.0,0.0,0.0,0.0,0.0,0.0,0.0,0.0,0.0,0.0,3.433,3.5849,3.579,3.5589,3.5525,0.0,0.0,0.0,0.0,0.0,0.0,0.0,0.0,0.0,3.7854,3.8646,3.923,3.961,4.0369,4.1031,4.1654,4.2302,4.2791,4.315,4.2751,4.2791,4.309,4.2002,4.1394,4.0986,3.9023,3.7935,3.7481,0.0,0.0,0.0,0.0,3.7226,3.7557,0.0,0.0,0.0,0.0,0.0,0.0,0.0,0.0,0.0,0.0,0.0,0.0,0.0,0.0,0.0,2.522,0.0,0.0,0.0,0.0,0.0,0.0,0.0,0.0,0.0,0.0,0.0,0.0,3.1667,3.2802,3.3761,3.3941,3.3993,3.3993,3.3993,3.3591,3.2802,3.1829,3.1387,0.0,0.0,0.0,0.0,0.0,0.0,0.0,0.0,0.0,0.0,0.0,0.0,0.0,0.0,0.0,0.0,0.0,0.0,0.0,0.0,0.0,0.0,0.0,0.0,0.0,0.0,0.0,0.0,0.0,0.0,0.0,0.0,0.0,0.0,0.0,0.0,0.0,0.0,3.5482,3.6823,3.5755,3.6769,3.7126,0.0,0.0,0.0,0.0,0.0,0.0,3.8632,3.942,4.0035,4.0399,4.0914,4.1331,4.1654,4.281,4.3559,4.3908,4.4696,4.5234,4.5544,4.5055,4.5084,4.5454,4.3648,4.315,4.3359,4.0737,3.9313,3.8787,3.8252,3.8064,3.8082,3.8164,3.8564,3.8922,0.0,0.0,0.0,0.0,0.0,0.0,0.0,0.0,0.0,0.0,0.0,0.0,0.0,0.0,2.4792,2.6721,2.5747,2.539,0.0,0.0,0.0,0.0,0.0,0.0,0.0,0.0,0.0,3.0759,3.1478,3.2735,3.4466,3.51,3.54,3.54,3.54,3.5024,3.4259,3.2508,3.2123,3.2505,0.0,0.0,0.0,0.0,0.0,0.0,0.0,0.0,0.0,0.0,0.0,0.0,0.0,0.0,0.0,0.0,0.0,0.0,0.0,0.0,0.0,0.0,0.0,0.0,0.0,0.0,0.0,0.0,0.0,0.0,0.0,0.0,0.0,0.0,0.0,0.0,0.0,0.0,0.0,3.7068,3.938,0.0,0.0,0.0,0.0,3.8715,3.9683,4.0514,4.1173,4.169,4.2307,4.308,4.3748,4.4386,4.5045,4.5743,4.5802,4.5225,4.6531,4.682,4.6241,4.62,4.6211,4.6181,4.4815,4.4217,4.4067,4.1444,4.0205,3.9958,3.9295,3.9028,3.9028,3.9037,3.9175,3.9358,0.0,0.0,0.0,0.0,0.0,0.0,0.0,0.0,0.0,0.0,0.0,0.0,0.0,2.4613,2.5369,2.6578,2.6249,2.6257,2.6925,0.0,0.0,0.0,0.0,0.0,0.0,0.0,2.9381,3.0547,3.2089,3.3517,3.4814,3.4367,3.4525,3.5152,3.4727,3.4389,3.4159,3.3733,3.3489,3.3222,3.1528,3.0388,0.0,0.0,0.0,0.0,0.0,0.0,0.0,0.0,0.0,0.0,0.0,0.0,0.0,0.0,0.0,0.0,0.0,0.0,0.0,0.0,0.0,0.0,0.0,0.0,0.0,0.0,0.0,0.0,0.0,0.0,0.0,0.0,0.0,0.0,0.0,0.0,0.0,3.9144,4.0783,0.0,3.8734,3.8191,3.8533,3.9818,4.1036,4.233,4.3838,4.4883,4.5371,4.5243,4.6292,4.677,4.6591,4.7679,4.8098,4.787,4.8349,4.8457,4.8218,4.7788,4.7578,4.7519,4.6161,4.5583,4.5463,4.4107,4.2761,4.1517,4.0842,4.0573,4.0573,4.0573,4.0889,4.1283,0.0,0.0,0.0,0.0,0.0,0.0,0.0,0.0,0.0,0.0,0.0,2.3685,2.4501,2.5302,2.6203,2.7227,2.6968,2.6835,2.6997,0.0,0.0,0.0,0.0,0.0,0.0,2.871,2.9927,3.121,3.2366,3.3743,3.5291,3.4221,3.4354,3.546,3.4314,3.4051,3.448,3.4043,3.3906,3.3846,3.255,3.1596,3.0825,0.0,0.0,0.0,0.0,0.0,0.0,0.0,0.0,0.0,0.0,0.0,0.0,0.0,0.0,0.0,0.0,0.0,0.0,0.0,0.0,0.0,0.0,0.0,0.0,0.0,0.0,0.0,0.0,0.0,0.0,0.0,0.0,0.0,0.0,0.0,4.1516,3.9896,4.1475,4.1759,3.9352,3.9342,4.0145,4.1746,4.2978,4.456,4.6538,4.75,4.7758,4.7339,4.8375,4.8745,4.8274,4.9374,4.9834,4.9595,4.9595,4.9516,4.9288,4.8618,4.8308,4.8218,4.6869,4.63,4.6241,4.5574,4.4536,4.3319,4.29,4.272,4.269,4.2471,4.2651,4.296,0.0,0.0,0.0,0.0,0.0,0.0,0.0,0.0,0.0,0.0,2.2901,2.4169,2.5302,2.6095,2.7185,2.8747,2.7921,2.7045,2.6467,2.5233,0.0,0.0,0.0,0.0,2.8721,2.8906,3.019,3.2761,3.2248,3.3305,3.5809,3.4734,3.5014,3.6344,3.4236,3.4111,3.5282,3.3385,3.332,3.4331,3.2995,3.2587,3.2513,0.0,0.0,0.0,0.0,0.0,0.0,0.0,0.0,0.0,0.0,0.0,0.0,0.0,0.0,0.0,0.0,0.0,0.0,0.0,0.0,0.0,0.0,0.0,0.0,0.0,0.0,0.0,0.0,0.0,0.0,0.0,0.0,0.0,3.7285,4.0164,4.1415,3.9327,4.1591,4.2078,3.8877,4.1427,4.3635,4.4515,4.5676,4.7218,4.928,4.9408,4.9408,4.9378,4.9991,5.0297,5.0267,5.0936,5.0936,5.0297,5.0267,4.9961,4.9378,4.8667,4.8338,4.8248,4.6939,4.636,4.6271,4.5633,4.5374,4.5374,4.5315,4.5315,4.5214,4.4576,4.4337,4.4247,0.0,0.0,0.0,0.0,0.0,0.0,0.0,0.0,0.0,0.0,2.3514,2.4974,2.569,2.6907,2.7987,2.8822,2.7921,2.7207,2.6998,0.0,0.0,0.0,0.0,0.0,3.0042,3.0116,3.0686,3.1777,3.2031,3.2904,3.4364,3.2882,3.3031,3.4443,3.2628,3.2234,3.2937,3.2697,3.2802,3.3057,3.2198,3.1589,3.1113,0.0,0.0,0.0,0.0,0.0,0.0,0.0,0.0,0.0,0.0,0.0,0.0,0.0,0.0,0.0,0.0,0.0,0.0,0.0,0.0,0.0,0.0,0.0,0.0,0.0,0.0,0.0,0.0,0.0,0.0,0.0,0.0,3.8972,3.8788,4.0797,4.2378,4.2724,4.3414,4.3537,4.2613,4.3829,4.5126,4.6298,4.8123,4.9849,5.1332,5.1839,5.1911,5.142,5.2049,5.2127,5.1636,5.2306,5.2558,5.2366,5.1876,5.1558,5.1361,5.02,4.9434,4.8989,4.8128,4.7489,4.6999,4.683,4.6741,4.6651,4.5663,4.5315,4.5285,4.5095,4.5035,4.4915,0.0,0.0,0.0,0.0,0.0,0.0,0.0,0.0,0.0,0.0,2.4061,2.5616,2.6389,2.7435,2.8314,2.8847,2.7703,2.6864,2.6717,0.0,0.0,0.0,0.0,2.9413,3.0899,3.0934,3.1311,3.21,3.2154,3.2874,3.4143,3.2766,3.2936,3.4337,3.2208,3.1768,3.2542,3.1766,3.1646,3.1965,3.1171,3.1074,3.1343,3.0502,2.9998,2.9776,2.9963,3.0031,3.0025,3.0229,0.0,0.0,0.0,0.0,0.0,0.0,0.0,0.0,0.0,0.0,0.0,0.0,0.0,0.0,0.0,0.0,0.0,0.0,0.0,0.0,0.0,0.0,0.0,0.0,3.8367,4.0096,4.075,4.2127,4.3401,4.4384,4.419,4.406,4.4279,4.4932,4.6236,4.844,4.9765,5.1344,5.3358,5.3815,5.3875,5.3473,5.4114,5.4276,5.3875,5.3994,5.4024,5.4024,5.3067,5.2456,5.2157,5.1086,5.0278,4.9625,4.8697,4.8068,4.7698,4.7429,4.7309,4.7219,0.0,0.0,0.0,0.0,4.5544,4.5244,0.0,0.0,0.0,0.0,0.0,0.0,0.0,0.0,0.0,0.0,0.0,2.6179,2.7262,2.7921,2.8464,2.8847,2.7481,2.6441,0.0,0.0,0.0,2.8207,2.9489,3.0585,3.1461,3.1547,3.2085,3.309,3.2566,3.3067,3.4501,3.3469,3.3732,3.4924,3.2477,3.2083,3.3124,3.0923,3.0471,3.1144,3.0307,3.092,3.2136,3.0975,3.0671,3.0796,3.0167,3.0077,3.0275,3.0511,0.0,0.0,0.0,0.0,0.0,0.0,0.0,0.0,0.0,0.0,0.0,0.0,0.0,0.0,0.0,0.0,0.0,0.0,0.0,0.0,0.0,0.0,0.0,0.0,3.9715,4.0927,4.3151,4.4027,4.458,4.4933,4.4514,4.4367,4.4855,4.5735,4.7568,5.0684,5.1224,5.2586,5.5274,5.5401,0.0,0.0,0.0,5.6312,5.6312,5.57,5.5401,5.5401,5.4054,5.3067,5.2396,5.1666,5.0907,5.0147,4.9004,4.8427,4.8248,4.7668,4.7369,4.7309,4.7309,4.7309,4.7249,4.6629,4.6042,4.5514,0.0,0.0,0.0,0.0,0.0,0.0,0.0,0.0,0.0,2.3694,2.5563,2.71,2.7869,2.885,2.9327,2.8922,2.8161,2.7435,0.0,0.0,2.769,2.9239,3.0481,3.1415,3.2028,3.2527,3.2889,3.309,3.2989,3.3096,3.3396,3.2697,3.2798,3.3468,3.2044,3.1777,3.2368,3.1483,3.1191,3.1351,3.115,3.078,3.0305,3.004,3.0247,3.0735,3.1348,3.1665,3.1843,3.2197,3.2313,3.222,3.1656,0.0,0.0,0.0,0.0,0.0,0.0,0.0,0.0,0.0,0.0,0.0,0.0,0.0,0.0,0.0,0.0,0.0,0.0,0.0,0.0,4.0377,4.1978,4.379,4.601,4.6435,4.6235,4.5479,4.6023,4.6496,4.6622,4.9373,5.1425,5.2106,5.4459,5.6127,5.6709,5.6735,5.6735,5.6735,5.6868,5.6928,5.6928,5.6808,5.6735,5.6718,5.5431,0.0,5.376,5.2576,5.1367,5.0207,4.9938,4.9243,4.8278,4.8158,4.7788,4.7309,4.7309,4.7309,4.7268,4.7149,4.7029,4.683,0.0,0.0,0.0,0.0,0.0,0.0,0.0,0.0,0.0,0.0,2.5705,2.7003,2.7486,2.7948,2.8123,2.797,2.7657,0.0,0.0,2.8249,2.9154,3.0844,3.1772,3.2501,3.3032,3.3621,3.3897,3.3897,3.3632,3.3632,3.3872,3.3043,3.2943,3.3456,3.2315,3.1953,3.2144,3.1622,3.1396,3.1396,3.1396,3.107,3.0592,3.0592,3.0934,3.1487,3.2271,3.2754,3.3086,3.3287,3.3343,3.331,3.2997,3.2597,3.2068,0.0,0.0,0.0,0.0,0.0,0.0,0.0,0.0,0.0,0.0,0.0,0.0,0.0,0.0,3.6982,0.0,0.0,4.1326,4.3723,4.486,4.6135,4.8068,4.8595,4.8444,4.7647,4.7782,4.8518,4.9914,5.1702,5.3539,5.5446,5.7018,5.8246,5.9058,5.9099,5.9099,5.9099,5.9099,5.8949,5.8604,5.7476,5.6973,5.7081,5.4582,5.3688,5.4154,5.274,5.1773,5.1176,5.0847,5.0159,4.9243,4.8906,4.8409,4.7788,4.7788,4.7608,4.7309,4.7309,4.7309,4.7238,0.0,0.0,0.0,0.0,0.0,0.0,0.0,0.0,0.0,0.0,2.5615,2.6561,2.701,2.6823,2.6804,0.0,0.0,0.0,0.0,2.9682,3.068,3.2309,3.3054,3.3607,3.4048,3.4488,3.4703,3.4703,3.4262,3.4288,3.4678,3.3833,3.3646,3.4022,3.3108,3.2681,3.2656,3.2204,3.2039,3.2039,3.2039,3.2039,3.2039,3.2039,3.219,3.2466,3.3029,3.3531,3.3922,3.4022,3.4112,3.4237,3.4349,3.4041,3.3403,3.2141,3.2457,0.0,0.0,0.0,0.0,0.0,0.0,0.0,0.0,0.0,3.4811,3.6271,3.7905,3.9572,4.1233,4.2555,4.4302,4.7129,4.7676,4.8278,4.9866,5.0368,5.0477,5.0268,4.9681,5.0302,5.2891,5.3453,5.5016,5.8433,5.9001,5.9739,6.102,6.109,6.109,6.109,6.066,6.0163,5.9642,5.7379,5.6358,5.656,5.3429,5.2703,5.4086,5.2768,5.2254,5.2336,5.1546,5.0877,5.0327,4.9595,4.8977,4.8487,4.8487,4.8098,4.7489,4.7369,4.7309,4.7309,0.0,0.0,0.0,0.0,0.0,0.0,0.0,0.0,0.0,0.0,0.0,0.0,0.0,0.0,0.0,0.0,0.0,0.0,2.9869,3.0733,3.1751,3.2964,3.3972,3.4552,3.4603,3.4678,3.4703,3.4703,3.4628,3.4653,3.4703,3.4577,3.4552,3.4603,3.4477,3.4427,3.4427,3.4363,3.4327,3.4327,3.4327,3.4327,3.4327,3.4327,3.3771,3.3054,3.3632,3.3847,3.3972,3.4463,3.4929,3.5419,3.5942,3.638,3.6237,3.3806,0.0,3.2204,2.9166,2.965,3.1331,3.2445,3.3647,3.5172,0.0,0.0,3.839,3.9688,4.1285,4.2807,4.3969,4.5512,4.7195,4.9012,4.9724,5.0452,5.1649,5.1448,5.1523,5.2435,5.1649,5.1738,5.3535,5.5002,5.6644,5.8564,6.004,6.0922,6.1076,6.109,6.109,6.109,5.9139,5.8031,5.7973,5.5768,5.4671,5.4708,5.3689,5.3416,5.3817,5.3054,5.2845,5.3019,5.1756,5.1146,5.0996,4.9774,4.9258,4.9198,4.9198,4.8768,4.8128,4.7519,4.7309,4.7309,0.0,0.0,0.0,0.0,0.0,0.0,0.0,0.0,0.0,0.0,0.0,0.0,0.0,0.0,0.0,0.0,0.0,0.0,3.1506,3.1783,3.2516,3.3972,3.4753,3.5168,3.5168,3.5504,3.5691,3.5691,3.5342,3.5342,3.5666,3.5015,3.4879,3.5143,3.4853,3.4703,3.4728,3.5043,3.4993,3.4728,3.5043,3.4968,3.4728,3.5043,3.4904,3.4449,3.4191,3.4286,0.0,0.0,3.4768,3.539,3.6517,3.6344,3.5477,3.4207,3.3554,0.0,3.2503,3.2511,3.3077,0.0,3.6331,3.7866,3.8705,3.9826,4.1027,4.2185,4.4001,4.5723,4.6828,4.8118,4.9473,0.0,5.1247,5.1758,5.2879,5.2578,5.2511,5.3264,5.2686,5.3278,5.5969,5.684,5.8372,6.1072,6.1882,6.2241,6.2241,6.129,6.0765,6.0765,5.8875,5.7703,5.7307,5.5159,5.4138,5.4255,5.1854,5.1523,5.2981,5.2743,5.3257,5.4294,5.2947,5.2366,5.2276,5.1361,5.0762,5.0361,4.9961,4.9445,4.8798,4.8128,4.7878,4.7878,0.0,0.0,0.0,0.0,0.0,0.0,0.0,0.0,0.0,0.0,0.0,0.0,0.0,0.0,0.0,0.0,0.0,0.0,0.0,3.2688,3.3348,3.4842,3.5595,3.6058,3.6197,3.6609,3.6833,3.6833,3.6396,3.6421,3.6808,3.5855,3.5682,3.6172,3.5631,3.5467,3.5631,3.6021,3.5983,3.5631,3.6021,3.5882,3.5417,3.5668,3.5515,3.507,3.4417,3.4345,0.0,0.0,3.3892,3.4389,3.5553,3.5148,3.4076,3.3168,3.257,3.249,3.3798,0.0,0.0,3.6804,3.8931,4.0589,4.0489,4.2071,4.3804,4.4744,4.6587,4.8319,4.9305,5.0243,5.118,5.2159,5.2435,5.2779,5.3389,5.3264,5.3213,5.3439,5.3138,5.4038,5.7,5.7735,5.9024,6.1525,6.2555,6.2701,6.1733,6.0915,6.0298,5.9841,5.8016,5.6825,5.6341,5.4187,5.3229,5.3382,5.0577,5.0281,5.2232,5.24,5.3119,5.4143,5.2975,5.2402,5.218,5.136,5.0733,5.0222,4.9578,4.9198,4.8944,4.8459,4.8406,4.8588,0.0,0.0,0.0,0.0,0.0,0.0,0.0,0.0,0.0,0.0,0.0,0.0,0.0,0.0,0.0,0.0,0.0,0.0,0.0,3.3308,3.4338,3.5433,3.6558,3.7387,3.7902,3.7927,3.7952,3.7952,3.7927,3.7927,3.7939,3.7374,3.7424,3.7902,3.7374,3.7424,3.7902,3.7914,3.7902,3.7902,3.7914,3.7588,3.7085,3.6569,3.5479,3.4237,3.4222,0.0,0.0,0.0,3.2203,3.2158,3.2528,3.2891,0.0,3.0343,2.921,0.0,0.0,0.0,3.6578,3.8749,4.1108,4.3176,4.4202,4.5744,4.7099,4.7666,4.9122,5.0477,5.1113,5.1691,5.2234,5.2787,5.3314,5.3482,5.2988,5.3364,5.3507,5.2988,5.2895,5.3598,0.0,5.7005,5.8052,5.8147,6.1228,6.1644,5.8336,5.9657,5.978,5.8131,5.5886,5.4688,5.4662,5.247,5.1364,5.1388,5.0694,5.0873,5.1821,5.2227,5.2147,5.1681,5.0975,5.0354,4.9718,4.8529,4.8004,4.7962,4.7418,4.7616,4.823,4.8201,4.8676,4.9258,0.0,0.0,0.0,0.0,0.0,0.0,0.0,0.0,0.0,0.0,0.0,0.0,0.0,0.0,0.0,0.0,0.0,0.0,0.0,3.3355,3.4388,3.5458,3.6232,3.6909,3.7449,3.7475,3.7638,3.8002,3.8002,3.8002,3.8002,3.7814,3.7839,3.7977,3.7814,3.7839,3.804,3.8429,3.8379,3.8002,3.8002,3.7688,3.706,3.5917,3.5006,3.4059,0.0,0.0,0.0,0.0,0.0,0.0,3.1508,0.0,0.0,2.9657,0.0,0.0,0.0,0.0,3.9208,4.1702,4.4034,4.5909,4.6612,4.8093,4.9332,4.9524,4.9563,4.9591,4.9791,5.0306,5.0772,5.0947,5.2516,5.3632,5.3439,5.3926,5.4077,5.3507,5.3414,0.0,0.0,0.0,0.0,5.7926,5.907,5.9194,5.8068,5.7437,5.6876,5.6277,5.4443,5.3478,5.3478,5.238,5.1825,5.1825,5.0854,5.1128,5.2438,5.177,5.1735,5.2162,5.154,5.0919,5.0257,4.9043,4.8546,4.8477,4.7468,4.7252,4.7462,4.7462,4.7625,4.8028,0.0,0.0,0.0,0.0,0.0,0.0,0.0,0.0,0.0,0.0,0.0,0.0,0.0,0.0,0.0,0.0,0.0,0.0,0.0,0.0,3.4251,3.5709,3.6325,3.6912,3.7475,3.7585,3.7712,3.7866,3.7953,3.8002,3.799,3.7789,3.7814,3.8002,3.8002,3.8115,3.8354,3.8743,3.8655,3.8198,3.782,3.7236,3.6506,3.5079,3.3943,0.0,0.0,0.0,0.0,0.0,0.0,0.0,0.0,0.0,0.0,0.0,0.0,0.0,0.0,3.9659,4.2436,4.4703,4.6788,4.8353,4.872,4.9925,5.1005,5.1005,5.0022,4.9146,4.9146,4.9112,4.9112,4.9112,5.1022,5.2678,5.308,5.3474,5.37,5.3708,5.3532,5.3289,0.0,0.0,0.0,5.6103,5.7305,5.7464,5.6249,5.5683,5.5132,5.4524,5.3461,5.2895,5.2895,5.2561,5.2285,5.2101,5.1172,5.1142,5.1925,5.0944,5.0752,5.1142,5.0539,4.9937,4.931,4.8174,4.7707,4.756,4.6383,4.6342,4.6942,4.6725,4.6779,4.7149,0.0,0.0,0.0,0.0,0.0,0.0,0.0,0.0,0.0,0.0,0.0,0.0,0.0,0.0,0.0,0.0,0.0,0.0,0.0,0.0,0.0,3.6097,3.6687,3.7271,3.7889,3.8147,3.8037,3.7581,3.7816,3.7939,3.7964,3.7423,3.7436,3.7939,3.7951,3.8303,3.8818,3.8806,3.8727,3.8508,3.7359,3.6374,3.5484,3.4121,0.0,0.0,0.0,0.0,0.0,0.0,0.0,0.0,0.0,0.0,0.0,0.0,0.0,3.4881,3.9129,4.2947,4.6077,4.7658,4.9273,5.0477,5.0477,5.1331,5.2109,5.1983,5.0397,4.9038,0.0,0.0,4.7455,4.7545,4.928,5.103,5.2126,5.2327,5.2703,0.0,0.0,0.0,0.0,0.0,0.0,5.2988,5.5943,5.6358,5.3109,5.4442,5.4576,5.2989,5.2895,5.2895,5.2895,5.2895,5.2636,5.2126,5.1615,5.1021,5.0427,4.9891,4.933,4.8768,4.8184,4.7616,4.7023,4.5974,4.5537,4.5386,4.4267,4.4959,4.653,4.6018,4.6175,4.6619,0.0,0.0,0.0,0.0,0.0,0.0,0.0,0.0,0.0,0.0,0.0,0.0,0.0,0.0,0.0,0.0,0.0,0.0,0.0,0.0,0.0,0.0,0.0,0.0,0.0,0.0,0.0,0.0,0.0,3.7215,3.7558,3.7062,3.7017,3.7333,3.7499,3.7646,3.7749,3.7465,3.7321,3.718,0.0,3.5058,3.4426,0.0,0.0,0.0,0.0,0.0,0.0,0.0,0.0,0.0,0.0,0.0,2.8919,0.0,0.0,3.8465,4.29,4.6278,4.8753,4.9567,5.0703,5.1674,5.1674,5.2209,5.2167,5.0314,4.8394,4.6662,0.0,0.0,0.0,4.7945,5.1472,0.0,5.4511,5.5247,0.0,5.5013,0.0,5.4629,5.4202,5.4177,0.0,0.0,5.455,5.4415,5.3542,5.389,5.3942,5.3507,5.3113,5.2895,5.2895,5.2895,5.2837,5.2686,5.2134,5.1599,5.1063,5.0469,4.969,4.8793,4.8626,4.8008,4.7048,4.6361,4.5849,4.5437,4.4694,4.4709,4.5116,4.4989,4.5015,4.5097,0.0,0.0,0.0,0.0,0.0,0.0,0.0,0.0,0.0,0.0,0.0,0.0,0.0,0.0,0.0,0.0,0.0,0.0,0.0,0.0,0.0,0.0,0.0,0.0,0.0,0.0,0.0,0.0,0.0,0.0,0.0,3.5705,3.5663,3.5987,3.6164,3.6364,3.649,0.0,0.0,0.0,0.0,0.0,0.0,0.0,0.0,0.0,0.0,0.0,0.0,0.0,0.0,2.8499,2.8694,3.0014,3.2232,3.6111,0.0,4.2439,4.626,4.8964,5.077,5.1055,5.1808,5.215,5.108,5.0889,5.0297,4.8047,4.5549,0.0,4.3291,4.4194,0.0,0.0,0.0,0.0,5.4906,5.534,5.5598,0.0,5.5541,0.0,5.4981,5.5157,5.5308,0.0,5.4554,5.4102,5.4102,5.4102,5.4102,5.4102,5.3557,5.3138,5.2895,5.2895,5.2895,5.2895,5.236,5.195,5.1624,5.0779,5.0051,4.948,4.9003,4.8426,4.7807,4.7255,4.6687,4.615,4.5583,4.5357,4.5332,4.5081,4.5131,4.5282,0.0,0.0,0.0,0.0,0.0,0.0,0.0,0.0,0.0,0.0,0.0,0.0,0.0,0.0,0.0,0.0,0.0,0.0,0.0,0.0,0.0,0.0,0.0,0.0,0.0,0.0,0.0,0.0,0.0,0.0,0.0,0.0,0.0,0.0,0.0,0.0,0.0,0.0,0.0,0.0,0.0,0.0,0.0,0.0,0.0,0.0,0.0,0.0,0.0,0.0,3.0283,2.9522,3.0661,3.299,3.6089,3.9823,4.3133,4.6218,4.9155,5.1046,5.2226,5.2226,5.2561,5.2225,4.9683,4.8697,4.7656,4.5255,0.0,4.0793,4.1791,4.2715,4.3919,4.5582,0.0,5.2344,5.4723,5.4604,5.4813,5.6351,5.6068,5.5717,5.5717,5.6143,5.6426,5.6426,5.5559,5.4974,5.4823,5.4672,5.4522,5.4396,5.3951,5.3439,5.2895,5.2895,5.2895,5.2895,5.2435,5.2176,5.2076,5.108,5.0553,5.0352,4.943,4.8969,4.8868,4.8259,4.7757,4.7274,4.6712,4.6512,4.6476,4.5974,4.6075,4.6336,0.0,0.0,0.0,0.0,0.0,0.0,0.0,0.0,0.0,0.0,2.8059,2.8229,0.0,0.0,0.0,0.0,0.0,0.0,0.0,0.0,0.0,0.0,0.0,0.0,0.0,0.0,0.0,0.0,0.0,0.0,0.0,0.0,0.0,0.0,0.0,0.0,0.0,0.0,0.0,0.0,0.0,0.0,0.0,0.0,0.0,0.0,0.0,0.0,0.0,0.0,3.194,3.2035,3.4425,3.6556,3.9046,4.3449,4.6053,4.8119,5.0913,5.2209,5.2744,5.2744,5.2837,5.2141,4.9208,4.8286,0.0,0.0,4.0632,4.0217,3.9361,4.1307,4.42,4.7639,5.0704,5.3715,0.0,0.0,5.7449,0.0,0.0,0.0,0.0,0.0,0.0,0.0,5.7424,5.6922,5.5968,5.5082,5.4177,5.3213,5.3532,5.3439,5.2895,5.2895,5.2895,5.2895,5.2812,5.2536,5.2101,5.19,5.1281,5.0402,5.0201,4.9866,4.943,4.8878,4.8576,4.8451,4.7857,4.7616,4.7616,4.7531,4.7265,4.6873,0.0,0.0,0.0,0.0,0.0,0.0,0.0,2.7797,2.8289,2.8754,2.879,2.8791,2.881,2.8983,2.9372,0.0,0.0,0.0,0.0,0.0,0.0,0.0,0.0,0.0,0.0,0.0,0.0,0.0,0.0,0.0,0.0,0.0,0.0,0.0,0.0,0.0,0.0,0.0,0.0,0.0,0.0,0.0,0.0,0.0,0.0,0.0,0.0,0.0,0.0,0.0,3.4346,3.568,3.7096,3.9967,4.3336,4.6049,4.8403,5.053,5.2423,5.313,5.3314,5.3314,5.3113,5.1782,4.7448,0.0,0.0,0.0,3.8198,3.8385,3.8432,4.0684,0.0,4.6713,4.9677,5.2762,0.0,0.0,0.0,0.0,0.0,0.0,0.0,0.0,5.873,5.873,5.8478,5.7976,5.7123,5.6294,5.534,5.4235,5.4461,5.4328,5.3783,5.3482,5.3314,5.3314,5.3038,5.2762,5.2511,5.2226,5.1783,5.1256,5.0996,5.072,5.0444,5.0209,4.9757,4.9179,4.8887,4.8435,4.7908,4.7908,4.7741,4.744,0.0,0.0,0.0,0.0,0.0,0.0,0.0,2.8102,2.8881,2.9385,2.9419,2.9288,2.8973,2.9032,2.9411,0.0,0.0,0.0,0.0,0.0,0.0,0.0,0.0,0.0,0.0,0.0,0.0,0.0,0.0,0.0,0.0,0.0,0.0,0.0,0.0,0.0,0.0,0.0,0.0,0.0,0.0,0.0,0.0,0.0,0.0,0.0,0.0,0.0,0.0,0.0,3.6446,3.8829,3.9219,4.248,4.6403,4.7643,4.9863,5.2201,5.3381,5.3708,5.3708,5.3708,5.3213,5.1297,4.5789,4.3693,0.0,0.0,3.6157,3.6633,3.7912,0.0,4.2457,0.0,4.7824,5.0886,5.4529,0.0,0.0,0.0,0.0,0.0,0.0,5.9257,0.0,5.9659,5.9288,5.8585,5.76,5.7204,5.6451,5.5257,5.5358,5.5132,5.4622,5.4127,5.3833,5.3683,5.3264,5.2995,5.2887,5.246,5.2209,5.2076,5.1649,5.1465,5.1465,5.1339,5.0837,5.0117,4.9866,4.9213,4.8419,4.8309,4.8184,4.8033,0.0,0.0,0.0,0.0,0.0,0.0,0.0,2.8212,2.8905,2.9504,2.9744,2.9721,2.9371,2.9209,2.9371,0.0,0.0,0.0,0.0,0.0,0.0,0.0,0.0,0.0,0.0,0.0,0.0,0.0,0.0,0.0,0.0,0.0,0.0,0.0,0.0,0.0,0.0,0.0,0.0,0.0,0.0,0.0,0.0,0.0,0.0,0.0,0.0,0.0,0.0,0.0,0.0,4.0088,4.0907,4.3072,4.57,4.7763,0.0,0.0,5.3281,5.3708,5.3708,5.3708,5.2929,5.0738,4.522,0.0,0.0,3.6017,3.5328,3.6007,3.7105,0.0,0.0,0.0,0.0,4.8632,5.3215,5.5214,0.0,0.0,0.0,0.0,0.0,5.9458,5.9709,6.0191,6.0191,5.9037,5.6477,5.6778,5.6276,5.4723,5.5157,5.5132,5.4622,5.4547,5.4228,5.3708,5.3658,5.3364,5.2895,5.2845,5.2561,5.2101,5.2051,5.2026,5.2,5.1515,5.154,5.1774,5.0728,5.0252,5.0101,4.9615,4.9129,4.8718,0.0,0.0,0.0,0.0,0.0,0.0,2.7464,2.847,2.9398,3.0224,3.0257,3.0059,2.9732,2.928,2.9138,2.9527,0.0,0.0,0.0,0.0,0.0,0.0,0.0,0.0,0.0,0.0,0.0,0.0,0.0,0.0,0.0,0.0,0.0,0.0,0.0,0.0,0.0,0.0,0.0,0.0,0.0,0.0,0.0,0.0,0.0,0.0,0.0,0.0,0.0,0.0,0.0,0.0,3.9071,4.0818,0.0,0.0,5.0032,5.1934,5.3752,5.4479,5.4655,5.4328,5.2533,4.9616,4.4967,0.0,3.9534,3.5607,3.549,3.632,3.7095,3.8589,4.0463,0.0,0.0,0.0,5.0982,5.2649,5.4744,5.8119,5.8737,0.0,0.0,0.0,6.0462,6.0317,5.9991,5.9207,5.7782,5.7606,5.7079,5.6093,5.5942,5.5767,5.5566,5.5232,5.4956,5.4712,5.4403,5.3951,5.3364,5.3364,5.3088,5.2586,5.2586,5.2586,5.2561,5.2335,5.2201,5.2034,5.1599,5.1005,5.0377,5.0151,4.9741,4.9229,0.0,0.0,0.0,0.0,0.0,2.6162,2.7198,2.8364,2.9474,3.0397,3.0389,3.0118,2.9747,2.9236,2.8886,2.8782,2.9392,0.0,0.0,0.0,0.0,0.0,0.0,0.0,0.0,0.0,0.0,3.2443,3.1883,0.0,0.0,0.0,0.0,0.0,0.0,0.0,0.0,0.0,0.0,0.0,0.0,0.0,0.0,0.0,0.0,0.0,0.0,0.0,0.0,0.0,0.0,0.0,0.0,0.0,0.0,0.0,4.868,5.1181,5.3186,5.4323,5.4856,5.4647,5.1914,4.8309,0.0,0.0,3.8251,3.5378,3.5587,3.6505,3.7257,3.8578,4.0129,4.19,4.3552,4.577,4.9161,5.0782,5.2962,0.0,0.0,5.8214,6.0185,6.1018,6.119,6.0613,6.0211,5.9759,5.9212,5.851,5.7782,5.701,5.6627,5.6451,5.6451,5.5917,5.5641,5.5616,5.4931,5.4278,5.3683,5.3557,5.3264,5.2895,5.2895,5.2895,5.2895,5.2895,5.2686,5.231,5.2159,5.1624,5.0879,5.0703,5.0419,5.0017,0.0,0.0,0.0,0.0,0.0,0.0,2.6624,2.7777,2.8845,2.9802,2.9964,2.9808,2.9266,2.9074,2.8678,2.7891,2.8538,0.0,0.0,0.0,0.0,0.0,0.0,0.0,0.0,0.0,3.1613,3.1613,3.1586,3.1503,3.1283,0.0,0.0,0.0,0.0,0.0,0.0,0.0,0.0,0.0,0.0,0.0,0.0,0.0,0.0,0.0,0.0,0.0,0.0,0.0,0.0,0.0,0.0,0.0,0.0,0.0,4.5134,4.8925,5.1138,5.2699,5.3858,5.4454,5.1064,4.6895,0.0,0.0,3.7788,3.5305,3.544,3.6332,3.7394,3.8479,3.9867,4.1874,4.2909,0.0,4.8054,5.0186,5.2028,0.0,0.0,5.693,5.8286,6.0583,6.1768,6.1235,6.1185,6.0914,6.0317,5.9263,5.8183,5.7035,5.6985,5.6985,5.6985,5.6451,5.6175,5.6194,5.5107,5.4278,5.3683,5.3163,5.2895,5.2895,5.2895,5.2895,5.2895,5.2895,5.2895,5.2837,5.231,5.2101,5.2026,5.149,5.1289,5.1188,0.0,0.0,0.0,0.0,0.0,0.0,0.0,2.7922,2.8655,2.9627,2.9538,2.9214,2.872,2.8851,2.8792,2.8274,2.868,0.0,0.0,0.0,0.0,0.0,0.0,0.0,0.0,0.0,3.0701,3.0983,3.1115,3.1299,3.1503,3.1078,3.0944,0.0,0.0,0.0,0.0,0.0,0.0,0.0,0.0,0.0,0.0,0.0,0.0,0.0,0.0,0.0,0.0,0.0,0.0,0.0,0.0,0.0,0.0,0.0,0.0,0.0,4.7243,4.802,4.8317,4.8158,4.5578,4.2657,4.1066,0.0,3.5973,3.5003,3.544,3.6295,3.7232,3.873,4.0287,4.17,4.3246,4.5023,0.0,0.0,0.0,5.5251,5.866,6.0939,0.0,6.1778,6.1943,6.1768,6.1411,6.0939,6.0342,5.9991,5.9288,5.8208,5.7807,5.7405,5.6985,5.6835,5.6552,5.6219,5.5867,5.539,5.4838,5.4303,5.3833,5.3432,5.3063,5.2895,5.2895,5.2895,5.2895,5.287,5.2694,5.241,5.2076,5.19,5.1599,5.1264,0.0,0.0,0.0,0.0,0.0,0.0,0.0,2.7662,2.826,2.9173,2.8974,2.8617,2.8317,2.8499,2.8541,2.8231,2.8751,0.0,0.0,0.0,0.0,0.0,0.0,0.0,0.0,3.0183,3.0675,3.1374,3.1359,3.1544,3.1925,3.1296,3.0993,3.0956,3.0735,0.0,0.0,0.0,0.0,0.0,0.0,0.0,3.2318,0.0,0.0,0.0,0.0,0.0,0.0,0.0,0.0,0.0,0.0,0.0,0.0,0.0,0.0,0.0,0.0,4.5124,4.5449,4.4922,4.2471,0.0,0.0,0.0,3.4735,3.4652,3.5379,3.6295,3.727,3.8793,4.0377,4.1846,4.3488,0.0,0.0,0.0,0.0,5.6274,0.0,0.0,6.1727,6.2079,6.23,6.23,6.1793,6.124,6.0663,6.0417,5.989,5.9012,5.8478,5.7907,5.7355,5.7111,5.6835,5.6502,5.6093,5.5717,5.5365,5.4604,5.4052,5.3683,5.3138,5.2895,0.0,5.2895,5.2895,5.2895,5.2895,5.2711,5.241,5.241,5.2201,5.1875,0.0,0.0,0.0,0.0,0.0,0.0,0.0,2.7215,2.7808,2.8514,2.8332,2.8118,2.8075,2.8144,2.8118,2.797,0.0,0.0,0.0,0.0,0.0,0.0,0.0,0.0,0.0,3.0264,3.1205,3.2389,3.2058,3.2112,3.2471,3.1495,3.0824,3.0444,3.0236,0.0,0.0,0.0,0.0,0.0,0.0,0.0,0.0,0.0,0.0,0.0,0.0,0.0,0.0,0.0,0.0,0.0,0.0,0.0,0.0,0.0,0.0,0.0,0.0,0.0,0.0,0.0,0.0,0.0,0.0,0.0,0.0,3.4399,3.5305,3.6382,3.7531,3.8778,4.0284,4.2268,0.0,0.0,0.0,5.0266,0.0,0.0,5.9014,6.0148,5.999,6.1696,6.2802,6.2802,6.2325,6.1818,6.1285,6.0688,6.0136,5.9558,5.9056,5.8485,5.7951,5.7405,5.7085,5.6985,5.5993,5.5465,5.534,5.431,5.3783,5.3683,5.3163,5.2937,5.2895,5.2895,5.2895,5.2895,5.2895,5.2895,5.2895,5.2895,5.2895,5.2837,0.0,0.0,0.0,0.0,0.0,0.0,0.0,0.0,0.0,0.0,2.8447,2.8194,2.7893,2.8568,2.8874,0.0,0.0,0.0,0.0,0.0,0.0,0.0,0.0,0.0,0.0,2.9583,3.0335,3.1334,3.172,3.2035,3.2253,3.1709,3.1246,3.0856,3.066,3.0743,0.0,0.0,0.0,0.0,0.0,0.0,0.0,0.0,0.0,0.0,3.314,3.319,0.0,0.0,0.0,0.0,0.0,0.0,0.0,0.0,3.5436,3.6203,3.6787,0.0,0.0,0.0,0.0,0.0,0.0,0.0,0.0,0.0,0.0,3.6653,3.7804,3.9039,4.0485,0.0,0.0,4.5082,4.7289,5.2198,0.0,5.8488,6.0751,6.159,6.0148,6.1696,6.2802,6.2802,6.2676,6.2375,6.1843,6.1291,6.0713,6.0116,5.9608,5.9056,5.851,5.8384,5.7863,5.6985,5.6734,5.6175,5.5408,5.5132,5.4511,5.3683,5.3582,5.3289,5.2895,5.2895,5.2895,5.2895,5.2895,5.2895,5.2895,5.2895,5.2895,5.287,0.0,0.0,0.0,0.0,0.0,0.0,0.0,0.0,0.0,0.0,0.0,2.81,2.7608,2.8655,0.0,0.0,0.0,0.0,0.0,0.0,0.0,0.0,0.0,2.8886,2.9297,2.9842,3.0697,3.191,3.2155,3.2364,3.2562,3.2099,3.1606,3.1114,3.084,3.0813,0.0,0.0,0.0,0.0,3.1957,0.0,0.0,0.0,0.0,0.0,3.3122,3.309,0.0,3.4027,3.385,3.3427,0.0,0.0,0.0,0.0,3.4507,3.4834,3.4323,3.4614,3.4879,0.0,0.0,0.0,0.0,0.0,0.0,0.0,0.0,0.0,3.8061,3.9659,0.0,0.0,4.4622,0.0,0.0,0.0,5.6765,5.9269,6.072,6.1459,6.1297,6.22,6.2802,6.2802,6.2802,6.2576,6.2044,6.1718,6.119,6.0317,6.0016,5.9489,5.871,5.8459,5.7882,5.6985,5.6734,5.6326,5.5742,5.5257,5.4705,5.4077,5.3557,5.3163,5.2895,5.2895,5.2895,5.2895,5.2895,5.2895,5.2895,5.2895,5.2895,5.2895,0.0,0.0,0.0,0.0,0.0,0.0,0.0,0.0,0.0,0.0,0.0,0.0,0.0,0.0,0.0,0.0,0.0,0.0,0.0,0.0,0.0,0.0,0.0,2.9713,2.9712,3.0213,3.121,3.2743,3.2672,3.2718,3.2878,3.2562,3.2041,3.132,3.0856,3.0634,0.0,0.0,0.0,0.0,3.1515,0.0,0.0,0.0,0.0,0.0,0.0,0.0,0.0,3.3828,3.3579,3.3147,3.3991,0.0,0.0,0.0,0.0,0.0,3.3061,3.4539,3.5821,3.4268,0.0,0.0,0.0,0.0,0.0,0.0,0.0,0.0,0.0,4.0388,0.0,0.0,0.0,0.0,5.4048,5.5129,5.6619,5.9623,6.0255,6.0927,6.225,6.2621,6.2802,6.2802,6.2802,6.2601,6.2144,6.2024,6.1567,6.0593,6.0392,5.9865,5.8961,5.8328,5.7706,5.7129,5.6577,5.6226,5.6068,5.5232,5.4705,5.4403,5.3532,5.3063,5.2895,5.2895,5.2895,5.2895,5.2895,5.2895,5.2895,5.2895,5.2895,5.2895,0.0,0.0,0.0,0.0,0.0,0.0,0.0,0.0,0.0,0.0,0.0,0.0,0.0,0.0,0.0,0.0,0.0,0.0,0.0,0.0,0.0,2.9258,2.9283,2.9287,2.9277,2.9396,3.0127,3.1558,3.2163,3.24,3.2336,3.3043,3.2708,3.1432,3.0746,3.0579,3.0805,0.0,0.0,0.0,0.0,0.0,0.0,0.0,0.0,0.0,0.0,0.0,0.0,3.2909,3.2743,3.252,3.2695,0.0,0.0,0.0,0.0,0.0,3.2643,3.49,3.6759,3.4016,0.0,0.0,0.0,0.0,0.0,0.0,0.0,0.0,0.0,4.0989,4.2324,0.0,0.0,5.27,5.7026,5.8296,5.9078,5.9895,6.1403,6.1858,6.0551,6.1858,6.2802,6.2802,6.2802,6.2756,6.2676,6.225,6.1918,6.1723,6.0794,6.0217,6.0066,5.9062,5.8284,5.775,5.7154,5.6401,5.5516,5.5817,5.5189,5.3876,5.4202,5.3783,5.2895,5.2895,5.2895,5.2895,5.2895,5.2895,5.2895,5.2895,5.2895,5.2895,0.0,0.0,0.0,0.0,0.0,0.0,0.0,0.0,0.0,0.0,0.0,0.0,0.0,0.0,0.0,0.0,0.0,0.0,0.0,0.0,0.0,2.9216,2.9522,2.9675,2.9685,2.9787,3.0672,3.2373,3.2818,3.2873,3.2532,3.2184,3.1684,3.1051,3.0585,3.0369,3.0302,3.0035,0.0,0.0,0.0,0.0,0.0,0.0,0.0,0.0,0.0,0.0,0.0,0.0,3.2647,3.2539,3.2433,0.0,0.0,0.0,0.0,0.0,3.2485,3.3805,3.5293,0.0,0.0,0.0,0.0,0.0,0.0,0.0,0.0,0.0,0.0,0.0,4.618,5.0887,0.0,5.4385,5.7445,5.8097,5.8698,5.9857,6.0765,6.1353,6.151,6.228,6.2802,6.2802,6.2802,6.2802,6.2802,6.2576,6.2169,6.1592,6.1065,6.0487,5.9885,5.9087,5.8585,5.8309,5.743,5.6734,5.6251,5.5917,5.534,5.4587,5.4278,5.3808,5.3314,5.3013,5.2895,5.2895,5.2895,5.2895,5.2895,5.2895,5.2895,5.2895,0.0,0.0,0.0,0.0,0.0,0.0,0.0,0.0,0.0,0.0,0.0,0.0,0.0,0.0,0.0,0.0,0.0,0.0,0.0,0.0,2.8879,2.8947,2.9521,2.9849,2.9832,3.0299,3.1358,3.3028,3.3514,3.3556,3.3173,3.1675,3.0962,3.087,3.0543,3.0168,2.9814,2.9837,2.9972,0.0,0.0,0.0,0.0,0.0,0.0,0.0,0.0,0.0,0.0,0.0,0.0,0.0,0.0,0.0,0.0,3.2157,3.2179,3.2261,3.2317,3.3177,3.4567,0.0,0.0,0.0,0.0,0.0,0.0,0.0,0.0,0.0,0.0,4.6262,0.0,5.5049,5.5702,5.6315,5.8263,5.8418,5.8906,6.0469,6.0658,6.1221,6.2672,6.2802,6.2802,6.2802,6.2802,6.2802,6.2802,6.2676,6.2225,6.1391,6.1135,6.0563,5.9684,5.9156,5.8811,5.8685,5.7537,5.6985,5.696,5.6018,5.5516,5.5358,5.4336,5.3833,5.3658,5.3113,5.2895,5.2895,5.2895,5.2895,5.2895,5.2895,5.2895,5.2895,0.0,0.0,0.0,0.0,0.0,0.0,0.0,0.0,0.0,0.0,0.0,0.0,0.0,0.0,0.0,0.0,0.0,0.0,0.0,0.0,2.797,2.8161,2.8764,2.9045,2.8986,3.0288,3.1388,3.2282,3.3612,3.428,3.4347,3.2621,3.1671,3.1413,3.0714,3.0168,2.9824,3.0001,2.9847,2.9577,0.0,0.0,0.0,0.0,0.0,0.0,0.0,0.0,0.0,0.0,0.0,0.0,0.0,0.0,3.1706,3.1462,3.1573,3.1802,3.2047,3.4341,3.6673,3.6867,0.0,0.0,0.0,0.0,0.0,0.0,0.0,0.0,0.0,4.9195,5.2411,5.4396,5.6783,5.9189,6.1381,6.1677,6.1903,6.2516,6.2617,6.2647,6.2802,6.2802,6.2802,6.2802,6.2802,6.2802,6.2802,6.2325,6.2019,6.1943,6.0939,6.0317,6.0242,5.9709,5.9207,5.8685,5.7537,5.6985,5.6985,5.6401,5.5867,5.5383,5.4798,5.4202,5.3658,5.3113,5.2895,5.2895,5.2895,5.2895,5.2895,5.2895,5.2895,5.2895,0.0,0.0,0.0,0.0,0.0,0.0,0.0,0.0,0.0,0.0,0.0,0.0,0.0,0.0,0.0,0.0,0.0,0.0,0.0,2.7406,2.7667,2.8066,2.8925,2.975,3.0566,3.1352,3.2581,3.4265,3.4149,3.4074,3.3963,3.2038,3.1037,3.0801,3.026,2.9841,2.956,2.9638,2.9789,3.0,3.0317,0.0,0.0,0.0,0.0,0.0,0.0,0.0,0.0,0.0,3.1761,3.1662,3.1351,3.1251,3.1262,3.1283,3.1385,3.1569,3.2199,3.4317,3.6673,3.7852,0.0,0.0,0.0,0.0,0.0,0.0,0.0,0.0,0.0,0.0,5.5189,5.6883,5.8899,6.0788,6.2275,6.2501,6.2576,6.2777,6.2802,6.2802,6.2802,6.2802,6.2676,6.2325,6.2601,6.2501,6.1843,6.1943,6.1692,6.0989,6.0518,6.0141,5.9809,5.9608,5.9408,5.9182,5.8083,5.7556,5.7549,5.6602,5.6093,5.5867,5.5333,5.478,5.4202,5.3632,5.3213,5.2895,5.2895,5.2895,5.2895,5.2895,5.2895,5.2895,0.0,0.0,0.0,0.0,0.0,0.0,0.0,0.0,0.0,0.0,0.0,0.0,0.0,0.0,0.0,0.0,0.0,0.0,2.7222,2.7479,2.7902,2.8447,2.9539,3.0797,3.2189,3.2627,3.3753,3.5573,3.4917,3.42,3.3466,3.1837,3.0863,3.0473,3.0068,2.9845,2.9765,2.9859,3.0134,3.0557,3.0609,3.1009,0.0,0.0,0.0,0.0,0.0,0.0,0.0,0.0,3.154,3.1418,3.1107,3.1006,3.1018,3.1072,3.1594,3.2345,3.2976,3.4727,3.6832,0.0,0.0,0.0,0.0,0.0,0.0,0.0,0.0,0.0,0.0,0.0,0.0,5.7926,6.001,6.1768,6.2676,6.2802,6.2802,6.2802,6.2802,6.2752,6.2551,6.2551,6.2325,6.1793,6.2225,6.2149,6.126,6.1542,6.1316,6.0342,6.0161,5.9885,5.9483,5.9332,5.9332,5.9483,5.8403,5.8001,5.8127,5.6979,5.6451,5.6401,5.5691,5.5182,5.478,5.4027,5.3364,5.2895,5.2895,5.2895,5.2895,5.2895,5.2895,5.2895,0.0,0.0,0.0,0.0,0.0,0.0,0.0,0.0,0.0,0.0,0.0,0.0,0.0,0.0,0.0,0.0,0.0,0.0,2.7011,2.7876,2.8664,2.9275,3.0583,3.2035,3.3578,3.4007,3.4741,3.5784,3.5784,3.4841,3.3069,3.225,3.1455,3.0679,3.0279,3.0305,3.0597,3.0811,3.0969,3.1164,3.1895,3.1643,0.0,0.0,0.0,0.0,0.0,0.0,0.0,0.0,3.1162,3.1006,3.0995,3.0995,3.095,3.0679,3.2273,3.4174,3.4497,3.5704,3.7503,0.0,0.0,0.0,0.0,0.0,0.0,0.0,0.0,0.0,0.0,0.0,0.0,5.6835,5.9815,6.2174,6.2727,6.2802,6.2802,6.2802,6.2802,6.2576,6.2024,6.1994,6.1768,6.1235,6.1692,6.1743,6.121,6.1185,6.0934,6.0317,5.9784,5.9483,5.9483,5.8961,5.8961,5.9483,5.8403,5.8202,5.866,5.7512,5.6985,5.6935,5.5867,5.5408,5.529,5.416,5.3364,5.2895,5.2895,5.2895,5.2895,5.2895,5.2895,5.2895,0.0,0.0,0.0,0.0,0.0,0.0,0.0,0.0,0.0,0.0,0.0,0.0,0.0,0.0,0.0,0.0,0.0,0.0,2.724,2.8098,2.8914,2.9618,3.0978,3.2391,3.3788,3.4683,3.5178,3.5293,3.4067,3.3275,3.2863,3.1345,3.058,3.0499,3.062,3.0629,3.0633,3.108,3.1482,3.1874,3.1965,3.2038,0.0,0.0,0.0,0.0,0.0,0.0,0.0,0.0,0.0,0.0,3.051,3.0834,3.1237,3.0965,3.2014,3.3313,3.3599,3.5673,0.0,4.0088,0.0,0.0,0.0,0.0,0.0,0.0,0.0,0.0,0.0,0.0,0.0,5.8083,6.0035,6.1768,6.2676,6.2802,6.2676,6.2275,6.2225,6.2044,6.1512,6.1461,6.119,6.0613,6.1115,6.1034,6.0055,6.0362,6.0311,5.9759,5.9583,5.9483,5.9483,5.9332,5.9156,5.8936,5.861,5.8535,5.866,5.7512,5.6985,5.696,5.6251,5.5516,5.4755,5.3607,5.3038,5.2895,5.2895,5.2895,5.2895,5.2895,5.2895,5.2895,0.0,0.0,0.0,0.0,0.0,0.0,0.0,0.0,0.0,0.0,0.0,0.0,0.0,0.0,0.0,0.0,0.0,0.0,0.0,2.8787,2.9627,3.0131,3.1335,3.25,3.3653,3.4234,3.4218,3.3585,3.279,3.2273,3.195,3.0599,3.0334,3.0967,3.0992,3.1193,3.1529,3.173,3.2137,3.2556,3.2428,3.2457,3.2525,0.0,0.0,0.0,0.0,0.0,0.0,0.0,0.0,0.0,3.025,3.0537,3.1055,3.1737,3.2783,3.4065,3.5732,3.7847,0.0,4.2563,4.453,4.6966,5.1122,0.0,0.0,0.0,0.0,5.5492,5.6659,5.7625,5.8328,5.8654,6.0105,6.1492,6.235,6.23,6.2199,6.23,6.1943,6.1562,6.1235,6.0964,6.0588,6.0035,6.0512,6.0437,5.9533,5.9991,6.0041,5.9508,5.9483,5.9382,5.9182,5.8981,5.8704,5.8384,5.8133,5.8158,5.8334,5.7412,5.6985,5.696,5.62,5.5408,5.4522,5.3607,5.3088,5.2895,5.2895,5.2895,5.2895,5.2895,5.2895,5.2895,0.0,0.0,0.0,0.0,0.0,0.0,0.0,0.0,0.0,0.0,0.0,0.0,0.0,0.0,0.0,0.0,0.0,0.0,0.0,0.0,3.0554,3.0815,3.1711,3.2528,3.3254,3.2994,3.2327,3.1206,3.1775,3.1568,3.0636,3.0083,3.0462,3.1652,3.1396,3.1825,3.2761,3.2559,3.2725,3.309,3.3068,3.2799,3.2422,3.2367,0.0,0.0,0.0,0.0,0.0,0.0,0.0,0.0,3.0319,3.0342,3.0721,3.2676,3.4068,3.5799,3.9365,4.1054,4.2653,4.6309,4.8155,0.0,5.3874,5.5993,5.7562,5.9056,0.0,5.8052,5.8052,5.8434,5.8805,5.8849,6.013,6.1311,6.1843,6.1542,6.1592,6.2476,6.1768,6.116,6.1059,6.0563,5.9991,5.9458,5.9915,5.9991,5.9458,5.996,5.9985,5.9433,5.9433,5.9182,5.8635,5.8152,5.7876,5.7801,5.7255,5.7255,5.7725,5.723,5.696,5.6878,5.5792,5.5056,5.4547,5.3884,5.3339,5.2895,5.2895,5.2895,5.2895,5.2895,5.2895,5.2895,0.0,0.0,0.0,0.0,0.0,0.0,0.0,0.0,0.0,0.0,0.0,0.0,0.0,0.0,0.0,0.0,0.0,0.0,0.0,0.0,3.1076,3.1771,3.261,3.3063,3.3058,3.2296,3.1465,3.0591,3.0335,3.021,3.0212,2.992,3.0115,3.0752,3.1555,3.1827,3.1756,3.2112,3.2583,3.3079,3.2874,3.2734,3.2582,3.2058,3.1761,0.0,0.0,0.0,0.0,0.0,0.0,0.0,3.1134,3.1386,3.1479,3.1931,3.3848,3.6224,3.7936,4.0367,0.0,4.7165,5.1039,5.424,5.5548,5.7129,5.8309,5.8252,5.873,5.9156,5.9156,5.9257,5.9458,5.991,6.0261,6.0713,6.1311,6.1642,6.1592,6.0919,6.104,6.0858,5.9935,5.9734,5.9458,5.8911,5.9382,5.9458,5.8886,5.9382,5.9433,5.8886,5.8861,5.861,5.8077,5.7951,5.7656,5.7204,5.706,5.6853,5.6595,5.6878,5.6778,5.6301,5.5232,5.4723,5.4522,5.349,5.2995,5.2895,5.2895,5.2895,5.2895,5.2895,5.2895,5.2895,0.0,0.0,0.0,0.0,0.0,0.0,0.0,0.0,0.0,0.0,0.0,0.0,0.0,0.0,0.0,0.0,0.0,0.0,0.0,0.0,3.1312,3.192,3.2029,3.2046,3.2041,3.136,3.0584,2.972,2.9621,2.9697,2.9939,2.9753,3.0108,3.0942,3.1443,3.1786,3.1988,3.2131,3.2467,3.2896,3.2766,3.2517,3.2165,3.1814,0.0,0.0,0.0,0.0,0.0,0.0,0.0,0.0,0.0,0.0,3.1974,3.3076,3.4131,3.5738,3.9613,4.1775,0.0,4.9583,0.0,5.5666,5.6771,5.77,5.8384,5.8629,5.9106,5.9483,5.9483,5.9709,5.991,5.989,6.0116,6.0392,6.0713,6.0788,6.0788,6.0738,6.0512,6.0236,5.9935,5.9659,5.9382,5.9106,5.9332,5.9282,5.8736,5.8961,5.8861,5.8334,5.8328,5.8033,5.7481,5.7455,5.7179,5.6627,5.6627,5.6326,5.5842,5.6376,5.6326,5.5767,5.4956,5.4446,5.4102,5.3239,5.2895,5.2895,5.2895,5.2895,5.2895,5.2895,5.2895,5.2895,0.0,0.0,0.0,0.0,0.0,0.0,0.0,0.0,0.0,0.0,0.0,0.0,0.0,0.0,0.0,0.0,0.0,0.0,0.0,0.0,0.0,3.16,3.1028,3.0761,3.0887,3.0501,2.9928,2.9176,2.9362,0.0,0.0,0.0,3.0248,3.1322,3.1202,3.1557,3.2253,3.198,3.2136,3.2553,3.2477,3.2136,3.1695,0.0,0.0,0.0,0.0,0.0,0.0,0.0,0.0,0.0,0.0,0.0,3.215,3.429,3.4466,3.5281,4.147,4.3811,4.6026,5.2295,5.4687,0.0,5.7298,5.7826,5.8252,5.9056,5.9357,5.9483,5.9483,5.9809,5.989,5.9558,5.9734,5.994,6.0141,5.9784,5.9834,6.0808,6.0161,5.9784,6.0116,5.9684,5.9332,5.9232,5.9207,5.8981,5.8434,5.851,5.8259,5.7625,5.76,5.7298,5.6602,5.6677,5.6502,5.605,5.605,5.5842,5.5408,5.5767,5.5666,5.5232,5.468,5.4152,5.3658,5.3113,5.2895,5.2895,5.2895,5.2895,5.2895,5.2895,5.2895,5.2895,0.0,0.0,0.0,0.0,0.0,0.0,0.0,0.0,0.0,0.0,0.0,0.0,0.0,0.0,0.0,0.0,0.0,0.0,0.0,0.0,0.0,3.0877,3.0758,3.0637,3.0474,3.0093,2.9904,2.9955,0.0,0.0,0.0,0.0,0.0,3.0554,0.0,3.0912,3.0854,3.0638,3.1124,3.196,3.1553,3.1523,0.0,0.0,0.0,0.0,0.0,0.0,0.0,0.0,3.089,0.0,0.0,0.0,3.1639,3.3061,3.4357,3.6085,3.9563,4.4849,5.0194,5.3626,5.5308,5.615,0.0,0.0,5.8485,5.8177,5.8855,5.9483,5.9483,5.9162,5.9037,5.9433,5.878,5.8554,5.9483,5.9533,5.9558,5.9709,6.001,6.006,5.9633,5.9112,5.861,5.8152,5.8102,5.7851,5.7261,5.7706,5.7524,5.6451,5.6426,5.5942,5.4931,5.5383,5.5566,5.5509,5.5509,5.5465,5.5383,5.4981,5.4755,5.4655,5.4077,5.3758,5.3658,5.3113,5.2895,5.2895,5.2895,5.2895,5.2895,5.2895,5.2895,5.2895,0.0,0.0,0.0,0.0,0.0,0.0,0.0,0.0,0.0,0.0,0.0,0.0,0.0,0.0,0.0,0.0,0.0,0.0,0.0,0.0,0.0,3.1003,3.0281,2.987,2.99,2.9615,2.9504,2.959,0.0,0.0,0.0,3.0642,3.0512,0.0,0.0,0.0,0.0,0.0,3.0578,3.1059,3.1034,3.1311,0.0,0.0,0.0,0.0,0.0,0.0,0.0,0.0,0.0,3.1371,3.1547,0.0,0.0,0.0,3.4228,3.578,4.0961,4.6012,5.0617,5.3811,5.5408,5.6351,5.7022,5.7725,5.8353,5.873,5.893,5.9037,5.9037,5.8861,5.8786,5.9012,5.8403,5.8177,5.8956,5.9037,5.8956,5.8629,5.9062,5.9313,5.9062,5.8836,5.861,5.8378,5.8334,5.7957,5.7035,5.6953,5.6595,5.5767,5.544,5.5082,5.4597,5.5132,5.5408,5.5408,5.5408,5.5082,5.4436,5.4202,5.4102,5.4077,5.3808,5.3532,5.3239,5.3013,5.2895,5.2895,5.2895,5.2895,5.2895,5.2895,5.2895,5.2895,0.0,0.0,0.0,0.0,0.0,0.0,0.0,0.0,0.0,0.0,0.0,0.0,0.0,0.0,0.0,0.0,0.0,0.0,0.0,0.0,0.0,3.0569,2.9697,2.9278,2.943,2.9396,2.9343,0.0,0.0,0.0,3.0826,3.0826,3.0664,0.0,3.0406,0.0,0.0,0.0,0.0,0.0,0.0,0.0,0.0,0.0,0.0,0.0,0.0,0.0,0.0,0.0,0.0,0.0,0.0,0.0,0.0,0.0,0.0,3.5991,4.1959,4.5801,4.8993,5.2729,5.4555,5.5783,5.7154,5.77,5.8127,5.893,5.8861,5.861,5.8334,5.8384,5.8485,5.8485,5.7926,5.7725,5.8384,5.8359,5.8183,5.7926,5.8234,5.8485,5.8485,5.8359,5.8284,5.8284,5.8133,5.7631,5.6652,5.62,5.5691,5.4988,5.4579,5.4321,5.4177,5.4705,5.5039,5.5182,5.5056,5.4511,5.3708,5.3557,5.3507,5.3507,5.3507,5.3264,5.2895,5.2895,5.2895,5.2895,5.2895,5.2895,5.2895,5.2895,5.2895,5.2895,0.0,0.0,0.0,0.0,0.0,0.0,0.0,0.0,0.0,0.0,0.0,0.0,0.0,0.0,3.2051,3.2631,3.1762,3.0859,3.0088,2.9678,2.9268,2.8754,2.9033,0.0,2.9209,2.9567,2.9773,0.0,0.0,0.0,3.0618,3.0618,3.0758,3.107,3.125,3.1234,3.1058,0.0,0.0,0.0,0.0,0.0,0.0,0.0,0.0,0.0,0.0,0.0,0.0,0.0,0.0,0.0,0.0,0.0,0.0,0.0,0.0,0.0,4.0923,4.3038,4.5371,4.9851,5.219,5.3871,5.5845,5.7123,5.7926,5.7976,5.8378,5.8384,5.7286,5.7556,5.7951,5.7951,5.7022,5.6696,5.7801,5.7455,5.7305,5.7851,5.7926,5.7951,5.7951,5.743,5.7085,5.7085,5.6627,5.6093,5.5491,5.5458,5.4913,5.3833,5.3758,5.349,5.2988,5.3532,5.4077,5.4622,5.4059,5.3758,5.3683,5.3163,5.2945,5.2945,5.2945,5.2937,5.2895,5.2895,5.2895,5.2895,5.2895,5.2895,5.2895,5.2895,5.2895,5.2895,0.0,0.0,0.0,0.0,0.0,0.0,0.0,0.0,0.0,0.0,0.0,0.0,0.0,3.2395,3.2162,3.2119,3.1019,3.0185,2.9893,2.9643,2.9516,2.9557,2.9694,2.971,2.9593,2.9727,0.0,0.0,0.0,3.0266,3.111,3.111,3.1489,3.2102,3.1464,3.1001,3.0663,3.058,0.0,0.0,0.0,0.0,0.0,0.0,0.0,0.0,0.0,0.0,0.0,0.0,0.0,0.0,0.0,0.0,0.0,0.0,0.0,3.8142,4.0727,4.2321,4.4146,4.7936,5.0554,5.2496,5.3665,5.5433,5.6922,5.7255,5.7481,5.7487,5.7085,5.7179,5.733,5.733,5.6677,5.6451,5.723,5.7154,5.6935,5.6803,5.7104,5.733,5.733,5.7129,5.6985,5.6985,5.6809,5.6326,5.5458,5.5056,5.4529,5.3733,5.3381,5.3264,5.3414,5.3607,5.3808,5.4027,5.3808,5.3532,5.3188,5.2988,5.2895,5.2895,5.2895,5.2895,5.2895,5.2895,5.2895,5.2895,5.2895,5.2895,5.2895,5.2895,5.2895,5.2895,0.0,0.0,0.0,0.0,0.0,0.0,0.0,0.0,0.0,0.0,0.0,0.0,0.0,0.0,3.1848,3.1414,3.0594,3.0125,3.0219,3.0101,3.0153,3.0424,3.0332,3.0202,3.0055,2.9811,0.0,0.0,0.0,0.0,0.0,3.1219,3.166,3.2285,3.1762,3.1273,0.0,0.0,0.0,3.0352,0.0,0.0,3.2652,0.0,0.0,0.0,0.0,0.0,0.0,0.0,0.0,0.0,0.0,0.0,0.0,0.0,0.0,0.0,3.9846,0.0,4.2712,4.5786,4.823,5.0361,5.2166,5.3932,5.5496,5.6533,5.6728,5.6728,5.6728,5.6577,5.6527,5.6684,5.6426,5.6326,5.6677,5.6728,5.6602,5.6226,5.6502,5.6728,5.6728,5.6728,5.6728,5.6728,5.6728,5.6251,5.5182,5.4798,5.4228,5.3439,5.3088,5.3063,5.3432,5.3414,5.3414,5.3414,5.3414,5.3239,5.2895,5.2895,5.2895,5.2895,5.2895,5.2895,5.2895,5.2895,5.2895,5.2895,5.2895,5.3013,5.3163,5.3163,5.3163,5.3163,0.0,0.0,0.0,0.0,0.0,0.0,0.0,0.0,0.0,0.0,0.0,0.0,0.0,0.0,0.0,3.0656,3.0634,3.0784,3.111,3.1114,3.1114,3.1114,3.0798,3.0613,3.0603,2.983,0.0,0.0,0.0,0.0,0.0,0.0,3.1246,3.1525,3.2133,3.2113,3.1708,0.0,3.2,3.153,0.0,3.3051,3.2416,0.0,0.0,0.0,3.5723,3.6346,0.0,0.0,0.0,0.0,0.0,0.0,0.0,0.0,0.0,0.0,0.0,0.0,0.0,4.3376,4.5194,4.7409,5.1289,5.2628,5.3629,5.5651,5.6075,5.61,5.6168,5.5742,5.5566,5.6068,5.615,5.6194,5.6194,5.6175,5.6175,5.6194,5.6175,5.62,5.62,5.62,5.62,5.62,5.6194,5.5717,5.4672,5.4572,5.4052,5.292,5.2895,5.2895,5.2895,5.2895,5.2895,5.2895,5.2895,5.2895,5.2895,5.2895,5.2895,5.2895,5.2895,5.2895,5.2895,5.2895,5.2895,5.2895,5.2895,5.3213,5.3683,5.3683,5.3683,5.3708,0.0,0.0,0.0,0.0,0.0,0.0,0.0,0.0,0.0,0.0,0.0,0.0,0.0,0.0,3.1899,3.1434,3.1437,3.1499,3.1615,3.1605,3.1605,3.1605,3.1332,3.1114,3.0951,3.0353,2.997,0.0,2.9327,2.9642,3.0669,3.0807,0.0,0.0,3.2053,3.1761,3.1243,3.1899,0.0,0.0,3.3503,3.4234,0.0,0.0,0.0,0.0,0.0,3.7619,0.0,0.0,3.8244,3.7557,0.0,0.0,0.0,0.0,0.0,0.0,3.8046,0.0,0.0,0.0,0.0,0.0,4.6745,4.8469,5.0273,5.2425,5.3365,5.4067,5.4881,5.5232,5.5333,5.5082,5.5383,5.5616,5.5616,5.5968,5.6068,5.5666,5.5968,5.62,5.62,5.62,5.62,5.62,5.5842,5.5333,5.4647,5.3808,5.3213,5.2895,5.2895,5.2895,5.2895,5.2895,5.2895,5.2895,5.2895,5.2895,5.2895,5.2895,5.2895,5.2895,5.2895,5.2895,5.2895,5.2895,5.2895,5.2895,5.2895,5.2988,5.3113,5.3113,5.3364,5.3708,0.0,0.0,0.0,0.0,0.0,0.0,0.0,0.0,0.0,0.0,0.0,0.0,0.0,0.0,0.0,3.2541,3.2301,3.2178,3.2328,3.2354,3.2354,3.2354,3.1863,3.1541,3.1442,3.071,3.0266,3.0112,2.9713,2.9904,3.0632,3.0863,0.0,0.0,0.0,0.0,0.0,0.0,0.0,0.0,3.4126,0.0,0.0,3.6799,3.7826,0.0,0.0,0.0,4.0704,4.0991,4.0302,0.0,0.0,0.0,0.0,0.0,0.0,0.0,0.0,0.0,0.0,0.0,0.0,0.0,4.5214,4.6795,4.8594,5.1545,5.2549,5.3239,5.4378,5.4655,5.468,5.4622,5.4655,5.478,5.5031,5.5717,5.6018,5.544,5.5867,5.61,5.5892,5.5867,5.5767,5.5541,5.5232,5.4805,5.4253,5.3364,5.2895,5.2895,5.2895,5.2895,5.2895,5.2895,5.2895,5.2895,5.2895,5.2895,5.2895,5.2895,5.2895,5.2895,5.2895,5.2895,5.2895,5.2895,5.2895,5.2895,5.2895,5.3038,5.3264,5.3532,5.3808,5.4077,0.0,0.0,0.0,0.0,0.0,0.0,0.0,0.0,0.0,0.0,0.0,0.0,0.0,0.0,0.0,0.0,3.3044,3.2826,3.3108,3.3101,3.309,3.309,3.2358,3.195,3.1918,3.0975,3.0476,3.0455,3.0228,0.0,0.0,0.0,0.0,0.0,0.0,0.0,0.0,0.0,0.0,3.2925,3.489,3.5918,0.0,0.0,3.9183,0.0,4.0897,4.2441,4.3952,4.3287,4.2286,0.0,0.0,0.0,0.0,0.0,3.803,0.0,0.0,0.0,0.0,0.0,0.0,0.0,4.5131,4.6267,4.7594,5.1338,5.2208,5.2618,5.3738,5.351,5.3325,5.3793,5.3661,5.3763,5.4504,5.5465,5.5942,5.5458,5.5817,5.5917,5.5458,5.5358,5.5107,5.4647,5.4547,5.4228,5.3658,5.3163,5.2895,5.2895,5.2895,5.2895,5.2895,5.2895,5.2895,5.2895,5.2895,5.2895,5.2895,5.2895,5.2895,5.2895,5.2895,5.2895,5.2895,5.2895,5.2895,5.2895,5.2895,5.3188,5.3683,5.4202,5.4496,5.4597,0.0,0.0,0.0,0.0,0.0,0.0,0.0,0.0,0.0,0.0,0.0,0.0,0.0,0.0,0.0,0.0,3.3235,3.3274,3.3332,3.3186,3.309,3.309,3.2581,3.2195,3.2,3.1363,3.0967,3.081,3.0334,0.0,0.0,0.0,0.0,0.0,0.0,0.0,0.0,0.0,0.0,3.4526,3.564,0.0,3.8262,3.9764,4.091,4.1831,4.2856,4.3466,4.3747,0.0,4.311,4.2445,0.0,0.0,0.0,0.0,0.0,0.0,0.0,0.0,0.0,0.0,0.0,0.0,4.2102,4.3107,4.4357,4.6622,4.7896,4.8789,4.962,4.9806,4.9744,4.9417,5.0999,5.2789,5.4375,5.5157,5.5516,5.539,5.5491,5.5491,5.5408,5.5006,5.4723,5.4622,5.4152,5.3632,5.3088,5.2962,5.2895,5.2895,5.2895,5.2895,5.2895,5.2895,5.2895,5.2895,5.2895,5.2895,5.2895,5.2895,5.2895,5.2895,5.2895,5.2895,5.2895,5.2895,5.2895,5.2895,5.2895,5.2945,5.3063,5.3188,5.3808,5.4597,0.0,0.0,0.0,0.0,0.0,0.0,0.0,0.0,0.0,0.0,0.0,0.0,0.0,0.0,0.0,0.0,0.0,0.0,0.0,3.2853,3.2858,3.3132,3.2804,3.2661,3.2805,3.216,3.1794,3.1708,3.1443,0.0,0.0,0.0,0.0,0.0,0.0,0.0,0.0,0.0,3.4778,3.6162,3.6865,0.0,4.0092,4.1405,4.2722,4.3944,4.4744,4.5365,4.5697,4.5147,4.4641,0.0,0.0,4.2171,4.1973,0.0,4.0632,4.0815,0.0,0.0,0.0,4.0002,0.0,0.0,0.0,4.2866,4.389,4.5979,4.6759,4.7299,4.7928,4.8215,4.8257,4.7987,4.9848,5.1529,5.1998,5.3984,5.5308,5.5031,5.5006,5.4881,5.4561,5.4328,5.4052,5.3758,5.3482,5.3188,5.2895,5.2895,5.2895,5.2895,5.2895,5.2895,5.2895,5.2895,5.2895,5.2895,5.2895,5.2895,5.2895,5.2895,5.2895,5.2895,5.2895,5.2895,5.2895,5.2895,5.2895,5.2895,5.2895,5.2895,5.292,5.3213,5.3833,5.4597,0.0,0.0,0.0,0.0,0.0,0.0,0.0,0.0,0.0,3.5602,0.0,0.0,0.0,0.0,0.0,0.0,0.0,0.0,0.0,0.0,3.2892,3.3334,3.3066,3.3113,3.3596,3.2966,3.2659,3.2659,3.2659,3.2636,0.0,0.0,0.0,0.0,0.0,0.0,0.0,0.0,0.0,3.7818,0.0,3.9888,4.1438,4.2687,4.4124,4.556,4.6331,4.7164,4.7767,4.6837,0.0,4.5493,4.3722,4.3576,0.0,0.0,0.0,0.0,0.0,0.0,0.0,0.0,0.0,4.1412,0.0,0.0,0.0,4.6064,4.6333,4.6335,4.6706,4.6799,4.6826,4.6826,4.8444,4.9479,4.8772,5.1739,5.3926,5.3776,5.4157,5.4135,5.337,5.3194,5.3086,5.2895,5.2643,5.2618,5.2895,5.2895,5.2895,5.2895,5.2895,5.2895,5.2895,5.2895,5.2895,5.2895,5.2895,5.2895,5.2895,5.2895,5.2895,5.2895,5.2895,5.2895,5.2895,5.2895,5.2895,5.2895,5.2895,5.2895,5.2945,5.3389,5.4002,5.4572,0.0,0.0,0.0,0.0,0.0,0.0,0.0,0.0,3.6066,3.6492,3.7617,0.0,0.0,0.0,0.0,0.0,0.0,0.0,3.5605,0.0,0.0,3.3924,3.3477,3.3362,3.3596,3.3339,3.3224,3.3224,3.3224,3.3108,0.0,0.0,0.0,0.0,3.3707,0.0,0.0,0.0,3.8044,0.0,4.1265,4.1718,0.0,4.3157,4.4442,4.5529,4.7155,4.7807,4.7836,0.0,4.6923,4.6331,0.0,4.5402,0.0,0.0,0.0,0.0,0.0,0.0,0.0,0.0,4.2153,0.0,0.0,0.0,4.3569,4.4003,0.0,4.4402,4.4181,0.0,0.0,4.3274,4.4701,4.5787,4.5707,4.7473,4.9265,5.0632,5.256,5.3302,5.1967,5.1402,5.1621,5.2803,5.1754,5.1596,5.2828,5.2895,5.2895,5.2895,5.2895,5.2895,5.2895,5.2895,5.2895,5.2895,5.2895,5.2895,5.2895,5.2895,5.2895,5.2895,5.2895,5.2895,5.2895,5.2895,5.2895,5.2895,5.2895,5.2895,5.2895,5.297,5.3683,5.4522,0.0,0.0,0.0,0.0,0.0,0.0,0.0,0.0,3.5916,3.681,3.7125,0.0,0.0,0.0,0.0,0.0,0.0,3.5289,0.0,0.0,0.0,0.0,0.0,0.0,3.4305,3.3636,3.3375,3.3529,3.3529,3.3387,3.3161,0.0,0.0,0.0,3.5149,0.0,3.8059,0.0,3.9525,0.0,0.0,0.0,0.0,4.4783,4.6143,4.744,4.8156,4.8611,4.872,0.0,4.705,0.0,0.0,0.0,0.0,0.0,0.0,0.0,0.0,0.0,0.0,0.0,0.0,0.0,4.348,0.0,4.3626,0.0,0.0,0.0,0.0,0.0,0.0,0.0,4.4252,4.526,4.3796,4.5801,4.7805,4.8788,4.971,5.0513,5.1086,5.1379,5.1798,5.2393,5.189,5.1798,5.2393,5.2737,5.2895,5.2895,5.2895,5.2895,5.2895,5.2895,5.2895,5.2895,5.2895,5.2895,5.2895,5.2895,5.2895,5.2895,5.2895,5.2895,5.2895,5.2895,5.2895,5.2937,5.3239,5.3163,5.2988,5.3632,5.4177,5.4622,0.0,0.0,0.0,0.0,0.0,0.0,0.0,0.0,0.0,0.0,0.0,0.0,3.5685,3.6039,0.0,0.0,0.0,3.7122,0.0,0.0,3.5247,0.0,0.0,0.0,0.0,0.0,3.362,3.3813,3.3956,3.3857,3.3624,0.0,0.0,0.0,0.0,3.7613,3.9875,0.0,4.1441,4.2726,4.4532,4.5485,4.5906,4.6483,4.7667,4.9019,4.9019,4.928,4.9398,4.8084,4.752,0.0,4.7318,0.0,0.0,0.0,0.0,0.0,4.5077,0.0,0.0,0.0,0.0,0.0,0.0,0.0,0.0,0.0,0.0,0.0,0.0,0.0,0.0,0.0,0.0,4.4167,4.1838,4.3692,4.5559,4.6392,4.6793,4.7778,4.971,5.0265,5.0705,5.1239,5.1139,5.1348,5.2059,5.246,5.2762,5.2912,5.2895,5.2895,5.2895,5.2895,5.2895,5.2895,5.2895,5.2895,5.2895,5.2895,5.2895,5.2895,5.2895,5.2895,5.2895,5.2895,5.2988,5.3163,5.3733,5.3708,5.3482,5.4278,5.4697,5.4856,0.0,3.0618,0.0,0.0,0.0,0.0,0.0,0.0,0.0,0.0,0.0,0.0,0.0,0.0,0.0,0.0,0.0,4.2424,4.1648,0.0,3.7547,0.0,0.0,0.0,0.0,0.0,0.0,3.4101,3.4546,3.4643,3.4365,0.0,0.0,0.0,0.0,3.8701,4.1533,4.2954,4.4234,4.5392,4.6827,4.792,4.86,0.0,4.8494,4.9565,4.9565,0.0,0.0,4.9144,4.8682,4.8212,4.7883,0.0,0.0,0.0,0.0,0.0,0.0,0.0,0.0,4.5959,0.0,0.0,0.0,0.0,4.4725,0.0,0.0,0.0,0.0,0.0,0.0,0.0,0.0,0.0,0.0,4.0076,4.1184,4.2788,4.4175,4.5668,4.7432,4.6866,4.7165,4.9039,4.8714,4.9491,5.1983,5.2126,5.236,5.287,5.2895,5.2895,5.2895,5.2895,5.2895,5.2895,5.2895,5.2895,5.2895,5.2895,5.2895,5.2895,5.2895,5.2895,5.2895,5.2895,5.3213,5.3733,5.4328,5.4572,5.4547,5.4597,5.4931,5.5308,0.0,0.0,0.0,0.0,0.0,0.0,0.0,3.4212,0.0,0.0,0.0,0.0,0.0,0.0,4.3468,0.0,0.0,4.3733,4.3483,4.0997,0.0,0.0,0.0,3.5807,0.0,0.0,0.0,0.0,0.0,0.0,3.4675,3.5234,0.0,0.0,0.0,4.0187,0.0,0.0,0.0,0.0,0.0,4.8738,4.9009,0.0,4.9221,4.959,4.959,4.959,4.9574,4.9477,4.8925,4.8441,4.9259,4.8816,4.8127,4.8995,4.9186,4.9013,4.8689,4.9198,4.945,4.7853,0.0,0.0,0.0,0.0,0.0,0.0,0.0,0.0,0.0,0.0,0.0,0.0,0.0,0.0,0.0,4.0011,4.0545,4.0966,4.3047,4.4739,4.55,4.6314,4.7134,4.7993,4.8741,4.9703,5.0904,5.1682,5.2176,5.236,5.2694,5.2895,5.2895,5.2895,5.2895,5.2895,5.2895,5.2895,5.2895,5.2895,5.2895,5.2895,5.2895,5.2895,5.2895,5.2895,5.3213,5.3758,5.4353,5.4823,5.5182,5.5516,5.5541,5.5365,3.0228,0.0,0.0,0.0,0.0,0.0,0.0,0.0,0.0,0.0,3.9217,0.0,4.3566,0.0,4.5647,0.0,4.6572,4.5959,4.4764,4.336,0.0,4.1175,3.9117,0.0,0.0,0.0,0.0,0.0,0.0,3.5602,3.5451,3.6121,0.0,0.0,0.0,4.1313,4.4248,4.5844,4.7069,0.0,0.0,4.9566,0.0,0.0,4.9877,4.9445,4.9558,4.959,4.959,4.959,4.9361,4.9216,5.0111,4.9774,4.9271,5.0404,5.0471,5.0131,4.9943,5.0487,5.0738,4.9166,4.8928,0.0,4.7374,0.0,0.0,0.0,0.0,0.0,0.0,0.0,0.0,0.0,0.0,0.0,0.0,3.9608,3.9896,4.0078,4.1734,4.3196,4.4092,4.4773,4.576,4.7113,4.7977,4.8912,5.0067,5.1197,5.19,5.2101,5.2611,5.2895,5.2895,5.2895,5.2895,5.2895,5.2895,5.2895,5.2895,5.2895,5.2895,5.2895,5.2895,5.2895,5.2895,5.3113,5.349,5.4077,5.4655,5.5207,5.5717,5.6068,5.5993,5.5691,0.0,0.0,0.0,0.0,3.1886,0.0,0.0,0.0,3.4795,0.0,3.8863,4.0343,4.3503,4.6046,4.7555,4.7758,4.9419,0.0,4.5893,4.6155,0.0,0.0,4.2456,4.2442,4.2449,0.0,0.0,0.0,0.0,0.0,3.6634,3.7139,3.807,0.0,4.0247,0.0,4.4624,4.6878,4.8263,4.9019,5.0067,5.0461,5.0486,5.1071,5.0422,4.9212,4.9552,4.9665,4.964,4.9665,5.0017,5.0452,5.0477,5.087,5.1339,5.1364,5.1724,5.1883,5.0804,5.0714,5.0714,4.9927,4.9448,4.9003,0.0,0.0,4.7967,0.0,0.0,0.0,0.0,0.0,0.0,0.0,0.0,0.0,0.0,0.0,3.9105,3.9957,4.022,4.1076,0.0,4.2314,4.3049,4.6261,4.636,4.723,4.9439,5.0611,5.149,5.2051,5.2611,5.2895,5.2895,5.2895,5.2895,5.2895,5.2895,5.2895,5.2895,5.2895,5.2895,5.2895,5.2895,5.2895,5.2945,5.3482,5.4077,5.4647,5.5182,5.5717,5.62,5.62,5.62,5.62,3.0499,3.0616,3.0743,0.0,3.1936,3.2768,0.0,0.0,0.0,0.0,4.4196,4.663,5.0107,5.1063,5.1447,5.1504,5.1615,0.0,0.0,0.0,0.0,4.7689,4.5499,4.4774,4.5819,4.2706,0.0,3.9908,0.0,0.0,3.7113,3.6998,3.8005,3.9927,0.0,4.2829,4.5725,4.7588,4.928,5.0711,5.1398,5.1256,5.068,5.1139,5.0872,5.034,5.073,5.0569,5.0252,5.0695,5.0962,5.1122,5.1548,5.1774,5.1975,5.236,5.2586,5.2636,5.2335,5.2317,5.2208,5.159,5.108,5.0546,4.9909,4.9464,0.0,0.0,0.0,0.0,0.0,0.0,0.0,0.0,0.0,0.0,0.0,0.0,0.0,3.9421,0.0,0.0,4.0539,4.1296,4.2343,4.3844,4.5031,4.6667,4.8878,4.9656,5.0485,5.1465,5.241,5.2895,5.2895,5.2895,5.2895,5.2895,5.2895,5.2895,5.2895,5.2895,5.2895,5.2895,5.2895,5.2895,5.2945,5.3482,5.4077,5.4647,5.5182,5.5717,5.62,5.62,5.62,5.62,3.0388,0.0,0.0,3.1347,0.0,0.0,3.5129,3.6059,0.0,4.3548,4.5427,0.0,5.1052,5.229,5.2895,5.2895,5.2611,0.0,0.0,0.0,0.0,4.9243,4.8495,4.8248,4.8533,4.5563,0.0,4.191,0.0,0.0,3.7785,3.7944,3.884,4.0382,0.0,4.3316,4.5773,4.7921,4.9826,5.1447,5.1674,5.1581,0.0,5.1816,5.1581,5.1055,5.1757,5.1473,5.0845,5.1188,5.1465,5.1699,5.2,5.226,5.2511,5.2795,5.2895,5.2895,5.2895,5.2895,5.2837,5.2536,5.2226,5.18,5.0971,5.0569,5.0334,5.0334,4.9854,4.9225,4.8555,0.0,0.0,0.0,0.0,0.0,0.0,0.0,0.0,0.0,3.8544,3.8398,3.8741,4.0034,4.1477,4.3061,4.3936,4.5261,4.7245,4.8777,4.9992,5.087,5.2427,5.3138,5.2895,5.3138,5.3138,5.2895,5.2895,5.2895,5.2895,5.2895,5.2895,5.2895,5.2895,5.2895,5.2945,5.3482,5.4077,5.4672,5.5458,5.5942,5.6226,5.6451,5.6401,5.6251,0.0,0.0,0.0,0.0,0.0,0.0,0.0,3.7739,0.0,4.4328,0.0,4.7116,4.9742,5.1828,5.2988,5.2895,0.0,5.2088,5.0172,5.1845,5.1821,4.9455,5.1205,5.1732,5.0754,4.8262,0.0,0.0,0.0,0.0,3.8433,3.913,3.9931,4.0813,4.2129,0.0,0.0,4.8155,5.0083,5.1444,5.1423,5.1741,5.2277,5.2737,5.231,5.1641,5.2561,5.2277,5.1414,5.149,5.1825,5.2184,5.2184,5.2511,5.2895,5.2895,5.2895,5.2895,5.2895,5.2895,5.2895,5.2895,5.2895,5.2661,5.1724,5.1515,5.1515,5.1515,5.053,5.0233,5.2084,4.7795,0.0,0.0,0.0,0.0,0.0,0.0,0.0,0.0,0.0,0.0,3.7646,3.8862,4.0588,4.2733,4.2901,4.3639,4.5352,4.7867,4.9615,5.0377,5.2427,5.3381,5.3138,5.3457,5.3457,5.3113,5.297,5.2895,5.2895,5.2895,5.2937,5.2995,5.2995,5.3063,5.3163,5.3708,5.426,5.4906,5.5842,5.6226,5.6351,5.6835,5.6753,5.6552,0.0,0.0,0.0,0.0,0.0,4.143,4.3785,4.6392,4.8371,4.9214,5.1765,5.3395,5.3007,5.3312,5.3364,5.2937,5.2895,0.0,0.0,0.0,0.0,5.2825,5.2785,5.2661,5.2485,5.0123,4.7604,0.0,0.0,0.0,3.8418,3.8646,3.9772,4.1635,4.2761,0.0,4.714,4.8983,5.0099,5.0696,5.159,5.2285,5.2787,5.2845,5.2787,5.2636,5.282,5.2485,5.2026,5.246,5.2686,5.2762,5.2762,5.282,5.2895,5.2895,5.2895,5.2895,5.2895,5.2895,5.2895,5.2895,5.2895,5.2845,5.2661,5.2611,5.2611,5.2611,5.2419,5.1741,5.0148,4.7075,0.0,0.0,0.0,0.0,0.0,0.0,0.0,0.0,0.0,3.9177,0.0,3.8885,3.9869,4.0241,4.1547,4.3128,4.4982,4.6641,4.8419,5.0352,5.1682,5.3005,5.4278,5.3439,5.3439,5.4278,5.3339,5.2895,5.2895,5.2895,5.3138,5.3557,5.3557,5.3833,5.4328,5.4881,5.5433,5.5942,5.6143,5.6477,5.686,5.696,5.7255,5.7625,0.0,0.0,0.0,0.0,0.0,0.0,0.0,5.2588,5.4101,5.1934,5.2911,5.3531,5.2894,5.3866,5.4361,5.3833,5.3783,5.3884,5.4152,5.3926,5.3758,5.3708,5.3439,0.0,5.2895,5.0938,4.8428,4.5412,0.0,0.0,0.0,3.9211,4.0327,4.1858,4.3142,4.4655,4.6301,4.7914,4.9195,5.0272,5.1565,5.241,5.2895,5.2895,5.2895,5.2895,5.2895,5.2737,5.2561,5.2795,5.2895,5.2895,5.2895,5.2895,5.2895,5.2895,5.2895,5.2895,5.2895,5.2895,5.2895,5.2895,5.2895,5.2895,5.2895,5.2895,5.2895,5.2895,5.2895,5.215,4.9667,4.7136,4.5213,0.0,0.0,0.0,0.0,0.0,0.0,0.0,0.0,0.0,0.0,0.0,3.9078,3.9164,4.0375,4.1941,4.3865,4.5423,4.7415,4.9916,5.1373,5.2628,5.3708,5.3439,5.3582,5.4127,5.3289,5.3213,5.3758,5.3439,5.3632,5.4177,5.4177,5.4328,5.4647,5.5182,5.5541,5.5842,5.6401,5.6759,5.706,5.7663,5.8058,5.8309,0.0,3.4699,0.0,0.0,4.5583,4.9982,5.3132,5.6831,5.7938,5.4349,5.3757,5.3513,5.312,5.4652,5.5516,5.4999,5.4931,5.4931,5.4931,5.483,5.4554,5.4084,5.3833,5.349,5.3088,5.1557,4.9182,0.0,0.0,0.0,3.9353,4.0045,4.0975,4.2175,4.3786,4.4876,4.5629,4.725,4.8806,5.029,5.1598,5.241,5.2895,5.2895,5.2895,5.2895,5.2895,5.2895,5.2895,5.2895,5.2895,5.2895,5.2895,5.2895,5.2895,5.2895,5.2895,5.2895,5.2895,5.2895,5.2895,5.2895,5.2895,5.2895,5.2895,5.2895,5.2895,5.2895,5.2895,5.22,4.9816,4.8161,4.6965,4.6504,0.0,0.0,0.0,0.0,0.0,0.0,0.0,0.0,3.9724,3.9091,3.8796,3.8905,3.9661,4.0893,4.2718,4.4285,4.6446,4.9275,5.0778,5.2017,5.299,5.3466,5.3808,5.4059,5.3389,5.3607,5.4572,5.3976,5.4102,5.4773,5.4773,5.483,5.4956,5.5408,5.5641,5.5817,5.6677,5.7136,5.7462,5.8384,5.8761,5.8861,0.0,0.0,0.0,0.0,0.0,5.487,5.4988,5.8398,6.0091,5.7725,5.7838,5.7719,5.666,5.6722,5.6627,5.6118,5.6068,5.6068,5.6068,5.5609,5.5308,5.5239,5.426,5.3683,5.3632,5.2528,5.0389,0.0,0.0,4.3713,4.1058,4.0664,4.1417,4.3165,4.5247,4.6446,4.7024,4.888,5.024,5.1214,5.1833,5.241,5.2895,5.2895,5.2895,5.2895,5.2895,5.2895,5.2895,5.2895,5.2895,5.2895,5.2895,5.2895,5.2895,5.2895,5.2895,5.2895,5.2895,5.2895,5.2895,5.2895,5.2895,5.2895,5.2895,5.2895,5.2895,5.2895,5.2895,5.2283,5.0298,5.0805,5.0747,4.8448,0.0,0.0,0.0,0.0,0.0,0.0,0.0,0.0,0.0,4.0262,3.9761,3.928,3.9793,4.0717,4.2104,4.3305,4.5353,4.8418,4.9373,5.0969,5.3342,5.3588,5.421,5.5232,5.4135,5.3976,5.4572,5.3976,5.4285,5.5333,5.5333,5.5591,5.605,5.61,5.6401,5.686,5.696,5.7612,5.856,5.866,5.9012,5.9433,0.0,0.0,4.5433,5.0109,5.3378,5.6135,5.8464,6.0167,6.0884,6.0004,6.006,5.9759,5.861,5.8485,5.8133,5.7298,5.7223,5.7223,5.7223,5.6677,5.62,5.5892,5.483,5.4077,5.3708,5.2653,5.0822,0.0,0.0,0.0,0.0,4.1492,4.233,4.4385,4.553,4.6763,4.8073,4.9217,5.0329,5.1364,5.2234,5.2711,5.2895,5.2895,5.2895,5.2895,5.2895,5.2895,5.2895,5.2895,5.2895,5.2895,5.2895,5.2895,5.2895,5.2895,5.2895,5.2895,5.2895,5.2895,5.2895,5.2895,5.2895,5.2895,5.2895,5.2895,5.2895,5.2895,5.2895,5.266,5.1864,5.1087,5.0655,5.0997,0.0,0.0,0.0,0.0,0.0,0.0,0.0,0.0,0.0,4.0682,4.0177,4.0977,4.1053,4.1386,4.2116,4.32,4.5129,4.8019,4.8765,5.0383,5.3068,5.3501,5.426,5.5408,5.4604,5.4705,5.5541,5.4963,5.5315,5.6351,5.6018,5.6175,5.6677,5.6677,5.6809,5.706,5.7738,5.8309,5.8736,5.9062,5.9307,5.9483,4.3663,4.5407,4.8031,5.3274,5.5407,5.7358,6.0208,6.1241,6.1667,6.1667,6.1667,6.1165,5.9885,5.9583,5.9182,5.8428,5.8378,5.8227,5.7926,5.7506,5.6953,5.6226,5.5182,0.0,5.3976,5.2887,5.138,4.9462,4.775,0.0,0.0,4.3495,4.4139,4.5837,4.654,4.7696,4.9174,4.9997,5.0896,5.1825,5.2611,5.2895,5.2895,5.2895,5.2895,5.2895,5.2895,5.2895,5.2895,5.2895,5.2895,5.2895,5.2895,5.2895,5.2895,5.2895,5.2895,5.2895,5.2895,5.2895,5.2895,5.2895,5.2895,5.2895,5.2895,5.2895,5.2895,5.2895,5.2895,5.2895,5.2895,5.1578,5.097,5.2442,5.1453,0.0,0.0,5.2184,0.0,0.0,4.6661,4.4208,4.2502,4.1161,4.0967,4.2337,4.2978,4.3209,4.3039,4.3536,4.5039,4.772,4.8774,5.0417,5.2773,5.3718,5.4587,5.5408,5.5006,5.5408,5.6426,5.6219,5.6545,5.7255,5.6853,5.6903,5.7255,5.7255,5.7355,5.7562,5.8384,5.8786,5.8987,5.9357,5.9483,5.9483,4.4545,4.7464,5.0103,5.1493,5.5906,5.928,5.9325,6.128,6.2802,6.2802,6.2802,6.2149,6.0468,5.9834,5.9483,5.9483,5.9483,5.9031,5.7976,5.7901,5.7374,0.0,0.0,5.4597,5.4597,5.3482,5.236,5.1264,0.0,0.0,4.7723,4.7045,4.7004,4.7538,4.8796,4.9727,5.0436,5.1582,5.2385,5.287,5.2895,5.2895,5.2895,5.2895,5.2895,5.2895,5.2895,5.2895,5.2895,5.2895,5.2895,5.2895,5.2895,5.2895,5.2895,5.2895,5.2895,5.2895,5.2895,5.2895,5.2895,5.2895,5.2895,5.2895,5.2895,5.2895,5.2895,5.2895,5.2895,5.2895,5.2895,5.287,5.2694,5.2184,5.2536,0.0,0.0,5.1666,0.0,0.0,4.6161,4.383,4.1889,4.1938,4.2319,4.2933,4.5493,4.6425,4.5032,4.4208,4.4979,4.7516,4.9398,5.1095,5.2599,5.4462,5.5383,5.5408,5.5408,5.5968,5.701,5.7581,5.7876,5.7901,5.7876,5.7876,5.7901,5.7901,5.8183,5.8685,5.8685,5.9012,5.9483,5.9483,5.9483,5.9483,5.1081,5.1466,5.2801,5.8314,5.9296,5.9835,6.1428,6.2327,6.2802,6.2802,6.2476,6.2049,6.1517,6.0989,6.0356,5.9558,5.9483,5.9357,5.9006,5.8303,5.775,5.7374,5.5584,5.4597,5.4597,5.3482,5.2561,5.185,5.0546,4.9199,4.7804,4.7963,4.8566,4.9504,5.0331,5.1222,5.2134,5.2485,5.2737,5.2895,5.2895,5.2895,5.2895,5.2895,5.2895,5.2895,5.2895,5.2895,5.2895,5.2895,5.2895,5.2895,5.2895,5.2895,5.2895,5.2895,5.2895,5.2895,5.2895,5.2895,5.2895,5.2895,5.2895,5.2895,5.2895,5.2895,5.2895,5.2895,5.2895,5.2895,5.2895,5.3213,5.3406,5.3231,5.3331,5.3406,5.3206,0.0,5.0653,4.8892,4.6955,4.506,4.3308,4.3901,4.4392,4.4373,4.5948,4.6431,4.5419,4.6522,4.7583,4.8381,5.0107,5.2126,5.4494,5.5469,5.6344,5.7097,5.7097,5.7273,5.7606,5.7801,5.8102,5.8434,5.8052,5.8102,5.8434,5.8434,5.8535,5.8736,5.9106,5.9357,5.9483,5.9483,5.9483,5.9483,5.1878,5.1531,5.2387,5.7922,5.8417,5.8799,6.1139,6.2244,6.2802,6.2802,6.2501,6.2225,6.2019,6.1692,6.104,5.991,5.9608,5.9408,5.9207,5.8579,5.8027,5.7581,5.6043,5.5006,5.4622,5.3683,5.2937,5.241,5.1444,5.0447,4.9413,4.9959,5.0622,5.1381,5.2193,5.2653,5.2895,5.3113,5.3088,5.2895,5.2895,5.2895,5.2895,5.2895,5.2895,5.2895,5.2895,5.2895,5.2895,5.2895,5.2895,5.2895,5.2895,5.2895,5.2895,5.2895,5.2895,5.2895,5.2895,5.2895,5.2895,5.2895,5.2895,5.2895,5.2895,5.2895,5.2895,5.2895,5.2895,5.2945,5.3163,5.3464,5.3758,5.4002,5.3833,5.3632,5.3432,0.0,4.9984,0.0,0.0,4.534,4.3794,4.5135,4.6099,4.6099,4.7784,4.8378,4.7396,4.8359,4.9206,4.9723,5.1766,5.3775,5.5666,5.647,5.7198,5.7901,5.8102,5.8183,5.8202,5.8403,5.8679,5.8961,5.8654,5.8704,5.8987,5.8987,5.8987,5.9037,5.9357,5.9483,5.9483,5.9483,5.9483,5.9483,4.847,4.8712,4.9702,5.2207,5.4301,5.6443,5.8715,6.0931,6.2327,6.2327,6.245,6.2377,6.1872,6.1918,6.1572,6.0518,5.9885,5.9357,5.8836,5.871,5.8083,5.69,5.6378,5.5587,5.4384,5.3914,5.3457,5.2895,5.2477,5.2251,5.2226,5.2762,5.3013,5.2995,5.4102,5.4002,5.2988,5.3532,5.3464,5.2995,5.297,5.2962,5.2945,5.2895,5.2895,5.2895,5.2895,5.2895,5.2895,5.2895,5.2895,5.2895,5.2895,5.2895,5.2895,5.2895,5.2895,5.2895,5.2895,5.2895,5.2895,5.2895,5.2895,5.2895,5.2895,5.2895,5.2895,5.2962,5.2962,5.3113,5.3658,5.3783,5.3984,5.4504,5.4127,5.3557,5.2937,5.1055,4.9042,4.7075,4.6216,4.5224,4.3898,4.5929,4.7494,4.7905,5.0469,5.154,5.042,4.9838,5.0139,5.1431,5.4077,5.5742,5.6351,5.7424,5.7976,5.8027,5.8529,5.8761,5.8761,5.9282,5.9483,5.9483,5.9483,5.9483,5.9483,5.9483,5.9483,5.9483,5.9483,5.9483,5.9483,5.9483,5.9483,5.9483,5.1049,5.0036,5.0208,5.4345,5.4036,5.4014,5.6357,5.7177,5.7521,5.7521,5.9056,6.0083,5.9939,6.1153,6.1893,6.1617,6.0693,6.0041,5.994,5.8761,5.7246,5.5313,5.546,5.4511,5.2211,5.3159,5.3457,5.2895,5.3632,5.3775,5.3331,5.3926,5.3934,5.3557,5.4278,5.4202,5.3557,5.4152,5.4303,5.4152,5.3708,5.349,5.3482,5.3063,5.2895,5.2895,5.2895,5.2895,5.2895,5.2895,5.2895,5.2895,5.2895,5.2895,5.2895,5.2895,5.2895,5.2895,5.2895,5.2895,5.2895,5.2895,5.2895,5.2895,5.2895,5.2895,5.3013,5.3432,5.349,5.3683,5.4278,5.473,5.4906,5.4647,5.4496,5.3901,5.2503,5.185,5.0728,4.8573,4.8853,4.8762,4.7639,4.8803,4.9223,4.8287,5.0064,5.0868,5.0115,5.1959,5.3045,5.3122,5.5013,5.6677,5.8083,5.8384,5.873,5.9106,5.9257,5.9307,5.9307,5.9433,5.9483,5.9483,5.9483,5.9483,5.9483,5.9483,5.9483,5.9483,5.9483,5.9483,5.9483,5.9483,5.9483,5.9483,5.0553,4.9771,5.0048,5.3681,5.3259,5.3192,5.5508,5.5879,5.627,5.7327,5.8545,5.9709,6.0782,6.1762,6.2375,6.2375,6.1095,5.9874,5.8855,5.7741,5.6031,5.3624,5.3769,5.3323,5.2114,5.292,5.3468,5.3683,5.4303,5.4446,5.4127,5.4705,5.4655,5.4152,5.4981,5.4881,5.4152,5.4705,5.4805,5.4547,5.3934,5.3708,5.3632,5.3113,5.2895,5.2895,5.2895,5.2895,5.2895,5.2895,5.2895,5.2895,5.2895,5.2895,5.2895,5.2895,5.2895,5.2895,5.2895,5.2895,5.2895,5.2895,5.3088,5.3264,5.3264,5.3482,5.3758,5.4052,5.4127,5.4278,5.4856,5.5207,5.5308,5.5006,5.3891,5.2811,5.2192,5.0747,4.9616,4.9222,4.9891,5.0151,4.9606,5.0754,5.1013,4.9764,5.1238,5.2043,5.1705,5.3853,5.4915,5.4504,5.6344,5.7782,5.8685,5.8936,5.9207,5.9483,5.9483,5.9483,5.9483,5.9483,5.9483,5.9483,5.9483,5.9483,5.9483,5.9483,5.9483,5.9483,5.9483,5.9483,5.9483,5.9483,5.9483,5.9483,4.8913,4.8913,4.9518,5.153,5.187,5.2522,5.4456,5.4829,5.553,5.7498,5.8351,5.9415,6.1056,6.1849,6.2117,6.1787,6.0388,5.8836,5.7336,5.6246,5.4491,5.1847,5.1895,5.2141,5.2555,5.3176,5.3916,5.4723,5.4881,5.4881,5.4748,5.5282,5.5232,5.4755,5.5767,5.5641,5.4773,5.5308,5.5257,5.4798,5.4202,5.3909,5.3783,5.3239,5.302,5.3013,5.2937,5.2945,5.3013,5.2937,5.2895,5.2895,5.2895,5.2895,5.2895,5.2895,5.2895,5.2895,5.2895,5.2945,5.302,5.302,5.3414,5.3833,5.3833,5.4228,5.4622,5.4697,5.4798,5.4981,5.5458,5.5516,5.5329,5.4759,5.2877,5.1397,5.1297,4.9255,4.8272,4.9551,5.0419,5.0904,5.0904,5.2184,5.2711,5.1967,5.3105,5.3909,5.4059,5.5591,5.6244,5.5792,5.7681,5.8736,5.8811,5.9282,5.9483,5.9483,5.9483,5.9483,5.9483,5.9483,5.9483,5.9508,5.9583,5.9608,5.9608,5.9608,5.9608,5.9608,5.9533,5.9483,5.9483,5.9483,5.9483,5.9483,4.8913,4.8913,4.9009,4.938,4.9426,4.9564,4.9911,4.9979,5.0117,5.0484,5.397,5.5813,5.4191,5.7498,5.9053,5.7068,5.6238,5.6527,5.816,5.5111,5.2278,5.0082,5.0925,5.1283,5.0968,5.4508,5.6014,5.5282,5.6175,5.615,5.5282,5.5817,5.5792,5.5308,5.5917,5.5867,5.5308,5.5842,5.6043,5.5917,5.534,5.4856,5.4396,5.3808,5.3582,5.3532,5.3063,5.3188,5.3507,5.3063,5.2895,5.2895,5.2895,5.2895,5.2895,5.2895,5.2895,5.2895,5.2895,5.3239,5.3582,5.3582,5.4027,5.4471,5.4471,5.4547,5.4723,5.5182,5.5641,5.5993,5.605,5.6093,5.5063,5.1925,5.2094,5.1411,4.7936,4.9685,5.1055,5.0377,5.1983,5.3181,5.3181,5.3432,5.3909,5.4705,5.4597,5.4856,5.5767,5.6972,5.76,5.7499,5.8284,5.8911,5.9382,5.9458,5.9483,5.9483,5.9483,5.9483,5.9483,5.9483,5.9483,5.9533,5.9985,6.0166,6.0166,6.0166,6.0166,6.0116,5.9684,5.9483,5.9483,5.9483,5.9483,5.9483,4.8913,4.8913,4.8913,4.8913,4.8913,4.8913,4.8913,4.8913,4.9335,5.0621,5.2657,5.408,5.4257,5.6161,5.6982,5.5966,5.4456,5.4062,5.513,5.3035,5.1188,4.9973,5.042,5.1497,5.3145,5.6001,5.723,5.6746,5.6928,5.6753,5.6251,5.62,5.6068,5.5867,5.6401,5.6502,5.6276,5.6527,5.6627,5.6552,5.5742,5.5082,5.4572,5.4278,5.3976,5.3708,5.3783,5.3758,5.3658,5.3414,5.3138,5.2895,5.2895,5.2895,5.2895,5.2895,5.2895,5.2945,5.3264,5.349,5.3783,5.4102,5.4604,5.5031,5.5031,5.5257,5.5616,5.615,5.6451,5.6627,5.6627,5.6401,5.5546,5.3562,5.2004,5.0828,5.0083,4.9892,5.0323,5.1598,5.2661,5.3615,5.4536,5.4612,5.4938,5.5767,5.5591,5.5961,5.7072,5.76,5.8152,5.873,5.9006,5.9257,5.9483,5.9483,5.9483,5.9483,5.9483,5.9483,5.9483,5.9483,5.9483,5.9508,5.9759,5.9885,5.9885,5.9885,5.9885,5.9859,5.9583,5.9483,5.9483,5.9483,5.9483,5.9483,4.8913,4.8913,4.8913,4.8913,4.8913,4.8913,4.8913,4.8913,4.9541,5.1349,5.2072,5.288,5.4125,5.4698,5.4807,5.4323,5.2612,5.1597,5.1597,5.0869,5.0469,5.0558,5.1338,5.2986,5.5546,5.7333,5.8202,5.8102,5.7631,5.7336,5.7204,5.6652,5.6376,5.6401,5.6828,5.6985,5.6985,5.6985,5.6985,5.691,5.5842,5.5157,5.4755,5.4647,5.4378,5.4135,5.4496,5.4303,5.3884,5.3758,5.3432,5.3063,5.2937,5.3088,5.3264,5.3138,5.3188,5.3339,5.3632,5.3884,5.421,5.4655,5.5182,5.5609,5.5609,5.5917,5.6326,5.6728,5.691,5.696,5.6835,5.6477,5.5794,5.452,5.2064,5.0695,5.1827,5.029,5.0124,5.2961,5.3515,5.4217,5.5641,5.5892,5.6194,5.6728,5.6778,5.7223,5.8227,5.8278,5.8654,5.9458,5.9483,5.9483,5.9483,5.9483,5.9483,5.9483,5.9483,5.9483,5.9483,5.9483,5.9483,5.9508,5.9633,5.9684,5.9684,5.9834,5.9809,5.9709,5.9834,5.9734,5.9533,5.9784,5.9734,5.9508,4.8913,4.8913,4.8913,4.8913,4.8913,4.8913,4.8913,4.8913,4.8963,4.9147,5.1032,5.1622,4.9633,5.1349,5.178,4.961,4.9262,4.917,4.917,4.9088,4.9816,5.1523,5.4739,5.6388,5.6164,5.8284,5.9156,5.8635,5.861,5.8309,5.7826,5.723,5.6935,5.6935,5.6985,5.6985,5.6985,5.6985,5.6985,5.691,5.5842,5.5383,5.5282,5.4798,5.4881,5.5232,5.4755,5.4572,5.4446,5.3884,5.3683,5.354,5.3063,5.3632,5.4353,5.3808,5.4052,5.4353,5.3833,5.4461,5.5282,5.5333,5.5742,5.6125,5.6125,5.615,5.62,5.6251,5.6634,5.6835,5.6351,5.6244,5.507,5.1599,5.1945,5.1852,4.9589,5.1158,5.3011,5.4303,5.534,5.62,5.6809,5.7399,5.7951,5.8485,5.851,5.8761,5.9332,5.9382,5.9408,5.9483,5.9483,5.9483,5.9483,5.9483,5.9483,5.9483,5.9483,5.9483,5.9483,5.9483,5.9483,5.9533,6.0035,6.0242,6.0267,6.0839,6.0738,6.0292,6.0858,6.0431,5.9633,6.0683,6.0406,5.9558,4.8913,4.8913,4.8913,4.8913,4.8913,4.8913,4.8913,4.8913,4.8913,4.8913,4.9679,4.9888,4.8986,4.9702,4.9865,4.8963,4.8913,4.8913,4.8913,4.8913,5.0206,5.3126,5.5606,5.7345,5.8227,5.907,5.9408,5.9207,5.8529,5.8278,5.8359,5.7104,5.6677,5.6985,5.6985,5.7204,5.7556,5.7556,5.7556,5.7481,5.6702,5.5993,5.539,5.5541,5.5491,5.5433,5.5559,5.5383,5.5056,5.4813,5.4529,5.4228,5.4027,5.4253,5.4547,5.4346,5.4421,5.4604,5.473,5.5082,5.5483,5.5817,5.6068,5.62,5.62,5.62,5.6301,5.6627,5.7154,5.738,5.6803,5.6702,5.6141,5.4373,5.3706,5.3393,5.3459,5.3748,5.4504,5.5917,5.6451,5.7035,5.7983,5.8259,5.861,5.9156,5.9207,5.9282,5.9483,5.9483,5.9483,5.9483,5.9483,5.9483,5.9483,5.9834,5.9834,5.9508,5.9834,5.9834,5.9483,5.9483,5.9483,5.9508,5.9709,5.9809,5.9859,6.0412,6.0311,5.991,6.0814,6.0507,5.9583,6.0362,6.0161,5.9533,4.8913,4.8913,4.8913,4.8913,4.8913,4.8913,4.8913,4.8913,4.8913,4.8913,4.8913,4.8913,4.8913,4.8913,4.8913,4.8913,4.8913,4.8913,4.8913,4.8913,5.0231,5.3211,5.6493,5.8376,5.8674,5.8541,5.8461,5.8461,5.7043,5.6518,5.6857,5.5382,5.5334,5.6503,5.6349,5.6874,5.7901,5.8077,5.7932,5.7556,5.6979,5.6301,5.5666,5.5867,5.5817,5.5691,5.6068,5.5867,5.5408,5.5408,5.5157,5.4805,5.4647,5.4723,5.4881,5.5056,5.5107,5.5182,5.5541,5.5641,5.5742,5.61,5.62,5.62,5.62,5.62,5.6301,5.6677,5.7079,5.728,5.7035,5.6985,5.6885,5.6502,5.5498,5.5146,5.6301,5.5817,5.5892,5.7355,5.7537,5.7964,5.9087,5.9212,5.9338,5.9734,5.9935,5.9935,5.9759,5.9583,5.9483,5.9483,5.9483,5.9583,5.9759,5.996,5.984,5.9508,5.9885,5.9859,5.9483,5.9483,5.9483,5.9483,5.9483,5.9583,5.9809,6.0362,6.0261,5.9885,6.119,6.0788,5.9633,6.0693,6.0392,5.9533,4.8913,4.8913,4.8913,4.8913,4.8913,4.8913,4.8913,4.8913,4.8913,4.8913,4.8913,4.8913,4.8913,4.8913,4.8913,4.8913,4.8913,4.8913,4.8913,4.8936,4.9688,5.1406,5.7651,5.9789,5.6922,5.642,5.6155,5.6155,5.3967,5.2901,5.2878,5.1873,5.2813,5.5391,5.4903,5.5896,5.7951,5.8459,5.8039,5.696,5.6426,5.62,5.6125,5.5591,5.5742,5.6182,5.6182,5.5831,5.5354,5.5354,5.5372,5.529,5.4798,5.4981,5.5491,5.6043,5.62,5.6175,5.62,5.62,5.6157,5.62,5.62,5.6182,5.6182,5.6182,5.6182,5.6139,5.6182,5.6376,5.6866,5.701,5.701,5.701,5.701,5.701,5.701,5.701,5.7455,5.8585,5.871,5.9137,6.0191,6.0317,6.0317,6.0317,6.0864,6.0914,6.0342,5.9784,5.9483,5.9483,5.9483,5.9759,6.0292,5.9784,5.9508,5.9508,5.9508,5.9508,5.9483,5.9483,5.9483,5.9483,5.9483,5.9809,6.0342,6.0939,6.0839,6.0468,6.2149,6.1446,5.9784,6.1974,6.1396,5.9659,4.8913,4.8913,4.8913,4.8913,4.8913,4.8913,4.8913,4.8913,4.8913,4.8913,4.8913,4.8913,4.8913,4.8913,4.8913,4.8913,4.8913,4.8913,4.8913,5.0439,5.0835,4.9711,5.243,5.4154,5.4578,5.4118,5.3865,5.3865,5.2851,5.2524,5.2878,5.1812,5.2796,5.5391,5.4868,5.6076,5.8459,5.8635,5.8284,5.7625,5.7449,5.6922,5.6175,5.6018,5.5158,5.4025,5.4025,5.2986,5.161,5.161,5.258,5.4025,5.5306,5.5842,5.5993,5.615,5.5942,5.5717,5.6118,5.4862,5.3905,5.5746,5.5097,5.4025,5.4025,5.4025,5.3613,5.2147,5.4824,5.6869,5.5137,5.6664,5.8208,5.8208,5.7882,5.7882,5.8654,5.8434,5.861,5.9689,5.9815,6.0116,6.0864,6.0914,6.0914,6.0914,6.0713,6.0493,6.0317,5.9784,5.9483,5.9483,5.9483,5.9583,5.9734,5.994,6.0041,6.0041,6.0041,5.984,5.9483,5.9483,5.9483,5.9483,5.9483,5.9809,6.0342,6.0939,6.111,6.1014,6.1893,6.1617,6.0783,6.1416,6.124,6.0683,4.8913,4.8913,4.8913,4.8913,4.8913,4.8913,4.8913,4.8913,4.8913,4.8913,4.8913,4.8913,4.8913,4.8913,4.8913,4.8913,4.8913,4.8913,4.8913,5.0231,5.037,4.8963,4.9502,5.0733,5.2733,5.2164,5.1836,5.1836,5.048,4.9954,5.0294,5.0356,5.182,5.4417,5.4819,5.6362,5.871,5.871,5.8384,5.7876,5.765,5.7129,5.6385,5.538,5.4175,5.2987,5.2166,5.1051,4.9986,4.9986,5.1382,5.3307,5.4572,5.5527,5.62,5.62,5.5968,5.5603,5.5115,5.3826,5.2842,5.3763,5.355,5.31,5.31,5.3229,5.3214,5.2834,5.4812,5.6432,5.5903,5.7385,5.8836,5.9263,5.9062,5.9156,6.0035,5.9709,5.9664,6.0563,6.0462,6.0618,6.1461,6.1517,6.1517,6.1517,6.0763,6.0292,6.0292,5.9784,5.9483,5.9483,5.9483,5.9608,5.9809,5.9935,5.9985,5.9985,5.9985,5.9809,5.9483,5.9483,5.9483,5.9483,5.9483,5.9809,6.0317,6.0688,6.0964,6.1235,6.1542,6.1512,6.1235,6.1461,6.1366,6.116,4.8913,4.8913,4.8913,4.8913,4.8913,4.8913,4.8913,4.8913,4.8913,4.8913,4.8913,4.8913,4.8913,4.8913,4.8913,4.8913,4.8913,4.8913,4.8913,4.8913,4.8913,4.8913,4.8499,4.9221,5.1226,5.0419,4.9983,4.9983,4.7552,4.6435,4.6678,4.8286,5.0537,5.3269,5.4937,5.6804,5.8761,5.8761,5.8364,5.7618,5.7025,5.6638,5.616,5.3749,5.2698,5.2281,5.0394,4.9596,4.9459,4.9635,5.1113,5.2873,5.3043,5.4534,5.62,5.6251,5.6276,5.5866,5.4015,5.3243,5.2596,5.1033,5.1668,5.2707,5.2897,5.3232,5.4066,5.6096,5.5675,5.5665,5.7987,5.8646,5.9187,6.0217,6.0367,6.0588,6.121,6.0763,6.0613,6.121,6.0788,6.0869,6.1969,6.2069,6.2069,6.2069,6.109,6.0442,6.0442,5.991,5.9558,5.9558,5.9508,5.9734,6.0217,5.9759,5.9508,5.9558,5.9508,5.9483,5.9483,5.9483,5.9483,5.9483,5.9483,5.9809,6.0292,6.0292,6.0663,6.1185,6.1135,6.116,6.126,6.1692,6.1592,6.126,4.8913,4.8913,4.8913,4.8913,4.8913,4.8913,4.8913,4.8913,4.8913,4.8913,4.8913,4.8913,4.8913,4.8913,4.8913,4.8913,4.8913,4.8913,4.8913,4.8913,4.8913,4.8913,4.8792,4.8964,4.9451,4.8618,4.8161,4.8161,4.7236,4.766,4.9365,4.9424,5.1632,5.549,5.5893,5.728,5.9332,5.9332,5.8011,5.591,5.5395,5.3913,5.1894,5.1025,4.9635,4.8122,4.7706,4.6506,4.5291,4.6926,4.891,5.0955,5.2584,5.4534,5.6276,5.6684,5.6828,5.6836,5.685,5.4375,5.1688,5.1323,5.0216,4.9645,5.1368,5.1855,5.2062,5.2632,5.5452,5.749,5.6454,5.8304,6.0166,6.0889,6.0989,6.119,6.1743,6.1341,6.119,6.1768,6.1718,6.1873,6.2551,6.2626,6.2626,6.2626,6.1999,6.1622,6.1622,6.0668,6.0116,6.0116,5.9709,5.9558,5.9684,5.9558,5.9709,6.0116,5.9709,5.9483,5.9483,5.9483,5.9483,5.9483,5.9483,5.9809,6.0292,6.0292,6.0663,6.116,6.0688,6.0788,6.116,6.0814,6.1145,6.1768,4.8913,4.8913,4.8913,4.8913,4.9066,4.9125,4.8933,4.9066,4.9125,4.8933,4.8913,4.8913,4.8913,4.8913,4.8913,4.8913,4.8913,4.8913,4.8913,4.8913,4.8913,4.8913,4.8913,4.8913,4.8913,4.8441,4.8109,4.7894,4.7224,4.8021,5.0223,5.0866,5.2962,5.6259,5.7312,5.8422,5.9425,5.8092,5.674,5.532,5.3502,5.1917,5.054,4.9068,4.7784,4.6666,4.5718,4.4798,4.419,4.5287,4.7705,5.0482,5.1572,5.4049,5.6652,5.691,5.6445,5.5703,5.4985,5.2383,4.9628,4.8856,4.8588,4.9042,5.0945,5.1561,5.2344,5.4532,5.6322,5.7497,5.7472,5.9027,6.0512,6.111,6.1391,6.1768,6.23,6.1918,6.1793,6.2325,6.2169,6.2199,6.2752,6.2802,6.2701,6.2425,6.2149,6.1893,6.1617,6.0788,6.0292,6.0292,5.9784,5.9483,5.9483,5.9483,5.9633,5.989,5.9633,5.9483,5.9483,5.9483,5.9483,5.9483,5.9483,5.9659,5.9935,5.9935,6.0261,6.0713,6.0136,6.0437,6.1135,6.0518,6.0668,6.1145,4.8913,4.8972,4.8988,4.8988,4.9277,4.9391,4.9046,4.9219,4.9277,4.8929,4.8913,4.8913,4.8913,4.8913,4.8913,4.8913,4.8913,4.8913,4.8913,4.8913,4.8913,4.8913,4.8913,4.9078,4.9495,4.9495,4.9255,4.8774,4.7983,4.8872,5.1381,5.2793,5.4639,5.6837,5.8285,5.8934,5.8773,5.61,5.4816,5.4321,5.14,5.0043,4.9559,4.7238,4.6324,4.6042,4.431,4.3945,4.434,4.4675,4.7353,5.0594,5.1016,5.3522,5.6402,5.6638,5.547,5.3693,5.2086,5.0047,4.8046,4.6697,4.78,4.9699,5.1406,5.2313,5.398,5.8122,5.7859,5.7506,5.9448,6.0236,6.0744,6.126,6.1793,6.2275,6.2752,6.2425,6.23,6.2752,6.24,6.23,6.2777,6.2802,6.2626,6.2169,6.2144,6.1893,6.1386,6.0788,6.0392,6.0292,5.9784,5.9483,5.9483,5.9483,5.9483,5.9483,5.9483,5.9483,5.9483,5.9483,5.9483,5.9483,5.9483,5.9483,5.9483,5.9483,5.9759,6.0116,5.9684,6.008,6.0858,6.0462,6.0242,6.0166,4.8913,4.918,4.941,4.941,4.9469,4.9488,4.943,4.916,4.8972,4.8913,4.8913,4.8913,4.8913,4.8913,4.8913,4.8913,4.8913,4.8913,4.8913,4.8913,4.8913,4.8913,4.8913,4.9842,5.187,5.1937,5.1641,5.1052,5.0598,5.2303,5.5999,5.5826,5.6932,5.8973,5.7371,5.6654,5.6518,5.4204,5.215,5.0313,4.9084,4.7465,4.5648,4.4564,4.4124,4.4083,4.3794,4.375,4.4078,4.5881,4.8069,5.0478,5.2739,5.3514,5.3879,5.5249,5.3831,5.1965,5.2536,5.1086,4.9342,4.9129,4.9634,5.0762,5.291,5.4556,5.6502,5.9477,5.9901,6.0003,6.0824,6.1416,6.1793,6.1893,6.2325,6.2727,6.2802,6.2752,6.2727,6.2802,6.2752,6.2727,6.2802,6.2802,6.2777,6.2701,6.2701,6.245,6.1918,6.1366,6.0839,6.0317,5.9784,5.9483,5.9483,5.9483,5.9483,5.9483,5.9483,5.9483,5.9483,5.9483,5.9483,5.9483,5.9483,5.9483,5.9483,5.9483,5.9533,5.9608,5.9533,5.9583,5.9784,6.0141,6.001,5.9684,4.9238,4.9371,4.9508,4.9508,4.9508,4.941,4.9199,4.9199,4.9141,4.8933,4.8913,4.8913,4.8913,4.8913,4.8913,4.8913,4.8913,4.8913,4.8913,4.8913,4.8913,4.8913,5.0162,5.1349,5.2387,5.366,5.4697,5.5416,5.3684,5.4415,5.7323,5.6576,5.7371,5.9386,5.7194,5.6195,5.5955,5.2529,5.0355,4.9133,4.7494,4.611,4.494,4.4315,4.4082,4.4062,4.3789,4.4813,4.6413,4.7337,5.0037,5.3009,5.2921,5.358,5.4298,5.3733,5.2064,5.049,5.0943,4.9613,4.8031,4.7811,5.0226,5.2813,5.3538,5.6455,5.9355,6.056,6.0788,6.0889,6.116,6.1642,6.1994,6.1994,6.245,6.2802,6.2802,6.2802,6.2701,6.2375,6.235,6.2245,6.1943,6.1918,6.1918,6.1918,6.1918,6.1793,6.1567,6.1014,6.0588,6.0317,5.9784,5.9483,5.9483,5.9483,5.9483,5.9483,5.9483,5.9483,5.9483,5.9483,5.9483,5.9483,5.9483,5.9483,5.9483,5.9483,5.9483,5.9483,5.9483,5.9483,5.9533,5.9759,5.9709,5.9533]},{"header":{"parameterUnit":"m.s-1","parameterCategory":1,"la1":30.6,"la2":28.766,"lo1":-90.7593,"lo2":-88.6598,"dy":0.0162,"dx":0.0183,"nx":116,"ny":114,"refTime":"2023-03-28T18:00:00:Z","depth":0,"parameterNumber":3,"parameterNumberName":"V-component_of_WINDS"},"data":[0.0,0.0,0.0,0.0,0.0,0.0,0.0,0.0,0.0,0.0,0.0,0.0,0.0,0.0,0.0,0.0,0.0,0.0,0.0,0.0,0.0,0.0,0.0,0.0,0.0,0.0,0.0,0.0,0.0,0.0,0.0,0.0,0.0,0.0,0.0,0.0,0.0,0.0,0.0,0.0,0.0,0.0,0.0,0.0,0.0,0.0,0.0,0.0,0.0,0.0,0.0,0.0,0.0,0.0,0.0,0.0,0.0,0.0,0.0,0.0,0.0,0.0,0.0,0.0,0.0,0.0,0.0,0.0,0.0,0.0,0.0,0.0,0.0,0.0,0.0,0.0,0.0,0.0,0.0,0.0,0.0,0.0,0.0,0.0,0.0,0.0,0.0,0.0,0.0,0.0,0.0,0.0,0.0,0.0,0.0,0.0,0.0,0.0,0.0,0.0,0.0,0.0,0.0,0.0,0.0,0.0,0.0,0.0,0.0,0.0,0.0,0.0,0.0,0.0,0.0,0.0,0.0,0.0,0.0,0.0,0.0,0.0,0.0,0.0,0.0,0.0,0.0,0.0,0.0,0.0,0.0,0.0,0.0,0.0,0.0,0.0,0.0,0.0,0.0,0.0,0.0,0.0,0.0,0.0,0.0,0.0,0.0,0.0,0.0,0.0,0.0,0.0,0.0,0.0,0.0,0.0,0.0,0.0,0.0,0.0,0.0,0.0,0.0,0.0,0.0,0.0,0.0,0.0,0.0,0.0,0.0,0.0,0.0,0.0,0.0,0.0,0.0,0.0,0.0,0.0,0.0,0.0,0.0,0.0,0.0,0.0,0.0,0.0,0.0,0.0,0.0,0.0,0.0,0.0,0.0,0.0,0.0,0.0,0.0,0.0,0.0,0.0,0.0,0.0,0.0,0.0,0.0,0.0,0.0,0.0,0.0,0.0,0.0,0.0,0.0,0.0,0.0,0.0,0.0,0.0,0.0,0.0,0.0,0.0,0.0,0.0,0.0,0.0,0.0,0.0,0.0,0.0,0.0,0.0,0.0,0.0,0.0,0.0,0.0,0.0,0.0,0.0,0.0,0.0,0.0,0.0,0.0,0.0,0.0,0.0,0.0,0.0,0.0,0.0,0.0,0.0,0.0,0.0,0.0,0.0,0.0,0.0,0.0,0.0,0.0,0.0,0.0,0.0,0.0,0.0,0.0,0.0,0.0,0.0,0.0,0.0,0.0,0.0,0.0,0.0,0.0,0.0,0.0,0.0,0.0,0.0,0.0,0.0,0.0,0.0,0.0,0.0,0.0,0.0,0.0,0.0,0.0,0.0,0.0,0.0,0.0,0.0,0.0,0.0,0.0,0.0,0.0,0.0,0.0,0.0,0.0,0.0,0.0,0.0,0.0,0.0,0.0,0.0,0.0,0.0,0.0,0.0,0.0,0.0,0.0,0.0,0.0,0.0,0.0,0.0,0.0,0.0,0.0,0.0,0.0,0.0,0.0,0.0,0.0,0.0,0.0,0.0,0.0,0.0,0.0,0.0,0.0,0.0,0.0,0.0,0.0,0.0,0.0,0.0,0.0,0.0,0.0,0.0,0.0,0.0,0.0,0.0,0.0,0.0,0.0,0.0,0.0,0.0,0.0,0.0,0.0,0.0,0.0,0.0,0.0,0.0,0.0,0.0,0.0,0.0,0.0,0.0,0.0,0.0,0.0,0.0,0.0,0.0,0.0,0.0,0.0,0.0,0.0,0.0,0.0,0.0,0.0,0.0,0.0,0.0,0.0,0.0,0.0,0.0,0.0,0.0,0.0,0.0,0.0,0.0,0.0,0.0,0.0,0.0,0.0,0.0,0.0,0.0,0.0,0.0,0.0,0.0,0.0,0.0,0.0,0.0,0.0,0.0,0.0,0.0,0.0,0.0,0.0,0.0,0.0,0.0,0.0,0.0,0.0,0.0,0.0,0.0,0.0,0.0,0.0,0.0,0.0,0.0,0.0,0.0,0.0,0.0,0.0,0.0,0.0,0.0,0.0,0.0,0.0,0.0,0.0,0.0,0.0,0.0,0.0,0.0,0.0,0.0,0.0,0.0,0.0,0.0,0.0,0.0,0.0,0.0,0.0,0.0,0.0,0.0,0.0,0.0,0.0,0.0,0.0,0.0,0.0,0.0,0.0,0.0,0.0,0.0,0.0,0.0,0.0,0.0,0.0,0.0,0.0,0.0,0.0,0.0,0.0,0.0,0.0,0.0,0.0,0.0,0.0,0.0,0.0,0.0,0.0,0.0,0.0,0.0,0.0,0.0,0.0,0.0,0.0,0.0,0.0,0.0,0.0,0.0,0.0,0.0,0.0,0.0,0.0,0.0,0.0,0.0,0.0,0.0,0.0,0.0,0.0,0.0,0.0,0.0,0.0,0.0,0.0,0.0,0.0,0.0,0.0,0.0,0.0,0.0,0.0,0.0,0.0,0.0,0.0,0.0,0.0,0.0,0.0,0.0,0.0,0.0,0.0,0.0,0.0,0.0,0.0,0.0,0.0,0.0,0.0,0.0,0.0,0.0,0.0,0.0,0.0,0.0,0.0,0.0,0.0,0.0,0.0,0.0,0.0,0.0,0.0,0.0,0.0,0.0,0.0,0.0,0.0,0.0,0.0,0.0,0.0,0.0,0.0,0.0,0.0,0.0,0.0,0.0,0.0,0.0,0.0,0.0,0.0,0.0,0.0,0.0,0.0,0.0,0.0,0.0,0.0,0.0,0.0,0.0,0.0,0.0,0.0,0.0,0.0,0.0,0.0,0.0,0.0,0.0,0.0,0.0,0.0,0.0,0.0,0.0,0.0,0.0,0.0,0.0,0.0,0.0,0.0,0.0,0.0,0.0,0.0,0.0,0.0,0.0,0.0,0.0,0.0,0.0,0.0,0.0,0.0,0.0,0.0,0.0,0.0,0.0,0.0,0.0,0.0,0.0,0.0,0.0,0.0,0.0,0.0,0.0,0.0,0.0,0.0,0.0,0.0,0.0,0.0,0.0,0.0,0.0,0.0,0.0,0.0,0.0,0.0,0.0,0.0,0.0,0.0,0.0,0.0,0.0,0.0,0.0,0.0,0.0,0.0,0.0,0.0,0.0,0.0,0.0,0.0,0.0,0.0,0.0,0.0,0.0,0.0,0.0,0.0,0.0,0.0,0.0,0.0,0.0,0.0,0.0,0.0,0.0,0.0,0.0,0.0,0.0,0.0,0.0,0.0,0.0,0.0,0.0,0.0,0.0,0.0,0.0,0.0,0.0,0.0,0.0,0.0,0.0,0.0,0.0,0.0,0.0,0.0,0.0,0.0,0.0,0.0,0.0,0.0,0.0,0.0,0.0,0.0,0.0,0.0,0.0,0.0,0.0,0.0,0.0,0.0,0.0,0.0,0.0,0.0,0.0,0.0,0.0,0.0,0.0,0.0,0.0,0.0,0.0,0.0,0.0,0.0,0.0,0.0,0.0,0.0,0.0,0.0,0.0,0.0,0.0,0.0,0.0,0.0,0.0,0.0,0.0,0.0,0.0,0.0,0.0,0.0,0.0,0.0,0.0,0.0,0.0,0.0,0.0,0.0,0.0,0.0,0.0,0.0,0.0,0.0,0.0,0.0,0.0,0.0,0.0,0.0,0.0,0.0,0.0,0.0,0.0,0.0,0.0,0.0,0.0,0.0,0.0,0.0,0.0,0.0,0.0,0.0,0.0,0.0,0.0,0.0,0.0,0.0,0.0,0.0,0.0,0.0,0.0,0.0,0.0,0.0,0.0,0.0,0.0,0.0,0.0,0.0,0.0,0.0,0.0,0.0,0.0,0.0,0.0,0.0,0.0,0.0,0.0,0.0,0.0,0.0,0.0,0.0,0.0,0.0,0.0,0.0,0.0,0.0,0.0,0.0,0.0,0.0,0.0,0.0,0.0,0.0,0.0,0.0,0.0,0.0,0.0,0.0,0.0,0.0,0.0,0.0,0.0,0.0,0.0,0.0,0.0,0.0,0.0,0.0,0.0,0.0,0.0,0.0,0.0,0.0,0.0,0.0,0.0,0.0,0.0,0.0,0.0,0.0,0.0,0.0,0.0,0.0,0.0,0.0,0.0,0.0,0.0,0.0,0.0,0.0,0.0,0.0,0.0,0.0,0.0,0.0,0.0,0.0,0.0,0.0,0.0,0.0,0.0,0.0,0.0,0.0,0.0,0.0,0.0,0.0,0.0,0.0,0.0,0.0,0.0,0.0,0.0,0.0,0.0,0.0,0.0,0.0,0.0,0.0,0.0,0.0,0.0,0.0,0.0,0.0,0.0,0.0,0.0,0.0,0.0,0.0,0.0,0.0,0.0,0.0,0.0,0.0,0.0,0.0,0.0,0.0,0.0,0.0,0.0,0.0,0.0,0.0,0.0,0.0,0.0,0.0,0.0,0.0,0.0,0.0,0.0,0.0,0.0,0.0,0.0,0.0,0.0,0.0,0.0,0.0,0.0,0.0,0.0,0.0,0.0,0.0,0.0,0.0,0.0,0.0,0.0,0.0,0.0,0.0,0.0,0.0,0.0,0.0,0.0,0.0,0.0,0.0,0.0,0.0,0.0,0.0,0.0,0.0,0.0,0.0,0.0,0.0,0.0,0.0,0.0,0.0,0.0,0.0,0.0,0.0,0.0,0.0,0.0,0.0,0.0,0.0,0.0,0.0,0.0,0.0,0.0,0.0,0.0,0.0,0.0,0.0,0.0,0.0,0.0,0.0,0.0,0.0,0.0,0.0,0.0,0.0,0.0,0.0,0.0,0.0,0.0,0.0,0.0,0.0,0.0,0.0,0.0,0.0,0.0,0.0,0.0,0.0,0.0,0.0,0.0,0.0,0.0,0.0,0.0,0.0,0.0,0.0,0.0,0.0,0.0,0.0,0.0,0.0,0.0,0.0,0.0,0.0,0.0,0.0,0.0,0.0,0.0,0.0,0.0,0.0,0.0,0.0,0.0,0.0,0.0,0.0,0.0,0.0,0.0,0.0,0.0,0.0,0.0,0.0,0.0,0.0,0.0,0.0,0.0,0.0,0.0,0.0,0.0,0.0,0.0,0.0,0.0,0.0,0.0,0.0,0.0,0.0,0.0,0.0,0.0,0.0,0.0,0.0,0.0,0.0,0.0,0.0,0.0,0.0,0.0,0.0,0.0,0.0,0.0,0.0,0.0,0.0,0.0,0.0,0.0,0.0,0.0,0.0,0.0,0.0,0.0,0.0,0.0,0.0,0.0,0.0,0.0,0.0,0.0,0.0,0.0,0.0,0.0,0.0,0.0,0.0,0.0,0.0,0.0,0.0,0.0,0.0,0.0,0.0,0.0,0.0,0.0,0.0,0.0,0.0,0.0,0.0,0.0,0.0,0.0,0.0,0.0,0.0,0.0,0.0,0.0,0.0,0.0,0.0,0.0,0.0,0.0,0.0,0.0,0.0,0.0,0.0,0.0,0.0,0.0,0.0,0.0,0.0,0.0,0.0,0.0,0.0,0.0,0.0,0.0,0.0,0.0,0.0,0.0,0.0,0.0,0.0,0.0,0.0,0.0,0.0,0.0,0.0,0.0,0.0,0.0,0.0,0.0,0.0,0.0,0.0,0.0,0.0,0.0,0.0,0.0,0.0,0.0,0.0,0.0,0.0,0.0,0.0,0.0,0.0,0.0,0.0,0.0,0.0,0.0,0.0,0.0,0.0,0.0,0.0,0.0,0.0,0.0,0.0,0.0,0.0,0.0,0.0,0.0,0.0,0.0,0.0,0.0,0.0,0.0,0.0,0.0,0.0,0.0,0.0,0.0,0.0,0.0,0.0,0.0,0.0,0.0,0.0,0.0,0.0,0.0,0.0,0.0,0.0,0.0,0.0,0.0,0.0,0.0,0.0,0.0,0.0,0.0,0.0,0.0,0.0,0.0,0.0,0.0,0.0,0.0,0.0,0.0,0.0,0.0,0.0,0.0,0.0,0.0,0.0,0.0,0.0,0.0,0.0,0.0,0.0,0.0,0.0,0.0,0.0,0.0,0.0,0.0,0.0,0.0,0.0,0.0,0.0,0.0,0.0,0.0,0.0,0.0,0.0,0.0,0.0,0.0,2.8711,2.8413,0.0,0.0,0.0,0.0,0.0,0.0,0.0,0.0,0.0,0.0,0.0,0.0,0.0,0.0,0.0,0.0,0.0,0.0,0.0,0.0,0.0,0.0,0.0,0.0,0.0,0.0,0.0,0.0,0.0,0.0,0.0,0.0,0.0,0.0,0.0,0.0,0.0,0.0,0.0,0.0,0.0,0.0,0.0,0.0,0.0,0.0,0.0,0.0,0.0,0.0,0.0,0.0,0.0,0.0,0.0,0.0,0.0,0.0,0.0,0.0,0.0,0.0,0.0,0.0,0.0,0.0,0.0,0.0,0.0,0.0,0.0,0.0,0.0,0.0,0.0,0.0,0.0,0.0,0.0,0.0,0.0,0.0,0.0,0.0,0.0,0.0,0.0,0.0,0.0,0.0,0.0,0.0,0.0,0.0,0.0,0.0,0.0,0.0,0.0,0.0,0.0,0.0,0.0,0.0,0.0,0.0,0.0,0.0,0.0,0.0,0.0,0.0,0.0,0.0,2.9838,2.9109,0.0,0.0,0.0,0.0,0.0,0.0,0.0,0.0,0.0,0.0,0.0,0.0,0.0,0.0,0.0,0.0,0.0,0.0,0.0,0.0,0.0,0.0,0.0,0.0,0.0,0.0,0.0,0.0,0.0,0.0,0.0,0.0,0.0,0.0,0.0,0.0,0.0,0.0,0.0,0.0,0.0,0.0,0.0,0.0,0.0,0.0,0.0,0.0,0.0,0.0,0.0,0.0,0.0,0.0,0.0,0.0,0.0,0.0,0.0,0.0,0.0,0.0,0.0,0.0,0.0,0.0,0.0,0.0,0.0,0.0,0.0,0.0,0.0,0.0,0.0,0.0,0.0,0.0,0.0,0.0,0.0,0.0,0.0,0.0,0.0,0.0,0.0,0.0,0.0,0.0,0.0,0.0,0.0,0.0,0.0,0.0,0.0,0.0,0.0,0.0,0.0,0.0,0.0,0.0,0.0,0.0,0.0,0.0,3.1547,3.235,3.297,3.2475,3.2621,3.3144,3.1435,3.0386,2.9905,3.0204,0.0,0.0,0.0,0.0,0.0,0.0,0.0,0.0,0.0,0.0,0.0,0.0,0.0,0.0,0.0,0.0,0.0,0.0,0.0,0.0,0.0,0.0,0.0,0.0,0.0,0.0,0.0,0.0,0.0,0.0,0.0,0.0,0.0,0.0,0.0,0.0,0.0,0.0,2.798,2.8066,2.8404,2.8864,0.0,0.0,0.0,0.0,0.0,0.0,0.0,0.0,0.0,0.0,0.0,0.0,0.0,0.0,0.0,0.0,0.0,0.0,0.0,0.0,0.0,0.0,0.0,0.0,0.0,0.0,0.0,0.0,0.0,0.0,0.0,0.0,0.0,0.0,0.0,0.0,0.0,0.0,0.0,0.0,0.0,0.0,0.0,0.0,2.9708,3.0196,0.0,0.0,0.0,0.0,0.0,0.0,0.0,0.0,0.0,0.0,0.0,0.0,0.0,3.102,3.145,3.1599,3.2011,3.2689,3.3305,3.3655,3.3753,3.3677,3.3688,3.3771,3.3491,0.0,3.1751,3.0737,0.0,0.0,0.0,0.0,0.0,0.0,0.0,0.0,0.0,0.0,0.0,0.0,0.0,0.0,0.0,0.0,0.0,0.0,0.0,0.0,0.0,0.0,0.0,0.0,0.0,0.0,0.0,0.0,0.0,0.0,0.0,0.0,0.0,0.0,0.0,0.0,2.8744,2.8385,2.8104,2.8104,2.8231,2.8435,2.8262,2.8569,2.916,2.8831,0.0,0.0,0.0,0.0,0.0,0.0,0.0,0.0,0.0,0.0,0.0,0.0,0.0,0.0,0.0,0.0,0.0,0.0,0.0,0.0,0.0,0.0,0.0,0.0,0.0,0.0,0.0,0.0,0.0,0.0,0.0,0.0,0.0,0.0,0.0,0.0,0.0,0.0,0.0,2.9695,3.0382,3.0332,3.0145,2.9858,0.0,0.0,0.0,0.0,0.0,0.0,0.0,0.0,0.0,3.1396,3.2338,3.2918,3.3072,3.3687,3.4296,3.4951,3.5515,3.5906,3.6207,3.5892,3.5906,3.6157,3.5205,3.4714,3.441,3.2617,3.1726,3.1416,0.0,0.0,0.0,0.0,3.0314,3.0464,0.0,0.0,0.0,0.0,0.0,0.0,0.0,0.0,0.0,0.0,0.0,0.0,0.0,0.0,0.0,2.8695,0.0,0.0,0.0,0.0,0.0,0.0,0.0,0.0,0.0,0.0,0.0,0.0,2.9789,2.9244,2.8314,2.8464,2.8524,2.8524,2.8524,2.8816,2.9244,2.8691,2.8713,0.0,0.0,0.0,0.0,0.0,0.0,0.0,0.0,0.0,0.0,0.0,0.0,0.0,0.0,0.0,0.0,0.0,0.0,0.0,0.0,0.0,0.0,0.0,0.0,0.0,0.0,0.0,0.0,0.0,0.0,0.0,0.0,0.0,0.0,0.0,0.0,0.0,0.0,3.081,3.1468,3.0673,3.1351,3.1534,0.0,0.0,0.0,0.0,0.0,0.0,3.1988,3.3298,3.4023,3.3955,3.4617,3.497,3.4951,3.5882,3.651,3.6823,3.7525,3.7977,3.8216,3.7826,3.7851,3.814,3.6585,3.6207,3.6443,3.422,3.3061,3.2655,3.1955,3.1693,3.1672,3.1512,3.1702,3.1943,0.0,0.0,0.0,0.0,0.0,0.0,0.0,0.0,0.0,0.0,0.0,0.0,0.0,0.0,2.922,3.0807,2.9997,2.9942,0.0,0.0,0.0,0.0,0.0,0.0,0.0,0.0,0.0,3.0726,3.1222,3.0592,2.8872,2.9453,2.9704,2.9704,2.9704,2.9422,2.8875,2.8337,2.842,2.8932,0.0,0.0,0.0,0.0,0.0,0.0,0.0,0.0,0.0,0.0,0.0,0.0,0.0,0.0,0.0,0.0,0.0,0.0,0.0,0.0,0.0,0.0,0.0,0.0,0.0,0.0,0.0,0.0,0.0,0.0,0.0,0.0,0.0,0.0,0.0,0.0,0.0,0.0,0.0,3.2081,3.3467,0.0,0.0,0.0,0.0,3.4821,3.4193,3.3939,3.4491,3.5332,3.5934,3.6229,3.677,3.7286,3.7777,3.8404,3.8454,3.7927,3.9044,3.9308,3.8843,3.8831,3.8818,3.8793,3.7625,3.7123,3.6997,3.4776,3.3942,3.4052,3.3506,3.3278,3.3278,3.3267,3.3164,3.3007,0.0,0.0,0.0,0.0,0.0,0.0,0.0,0.0,0.0,0.0,0.0,0.0,0.0,2.9726,3.0317,3.1291,3.1006,3.1153,3.2071,0.0,0.0,0.0,0.0,0.0,0.0,0.0,3.2205,3.2295,3.2708,3.2209,3.092,3.182,3.1879,3.1186,3.0842,3.0575,3.0304,2.913,2.8935,2.936,2.8732,2.8868,0.0,0.0,0.0,0.0,0.0,0.0,0.0,0.0,0.0,0.0,0.0,0.0,0.0,0.0,0.0,0.0,0.0,0.0,0.0,0.0,0.0,0.0,0.0,0.0,0.0,0.0,0.0,0.0,0.0,0.0,0.0,0.0,0.0,0.0,0.0,0.0,0.0,3.3562,3.5845,0.0,3.5785,3.5966,3.6287,3.6626,3.703,3.7102,3.6845,3.7787,3.8239,3.8027,3.8843,3.9245,3.9094,3.9985,4.0337,4.0123,4.0524,4.0638,4.0437,4.0099,3.9923,3.9873,3.8756,3.8291,3.819,3.701,3.5941,3.4992,3.446,3.4234,3.4234,3.4234,3.4405,3.4603,0.0,0.0,0.0,0.0,0.0,0.0,0.0,0.0,0.0,0.0,0.0,2.9776,3.0172,3.0677,3.1402,3.243,3.2086,3.2248,3.3227,0.0,0.0,0.0,0.0,0.0,0.0,3.3064,3.3292,3.4079,3.4069,3.3487,3.2374,3.3446,3.3085,3.1545,3.1877,3.1528,3.0707,3.0318,2.9883,2.9358,2.8703,2.8889,2.9541,0.0,0.0,0.0,0.0,0.0,0.0,0.0,0.0,0.0,0.0,0.0,0.0,0.0,0.0,0.0,0.0,0.0,0.0,0.0,0.0,0.0,0.0,0.0,0.0,0.0,0.0,0.0,0.0,0.0,0.0,0.0,0.0,0.0,0.0,0.0,3.6609,3.5375,3.8402,4.015,3.8925,3.9709,4.0123,3.9768,4.0056,3.9946,3.9158,3.9835,4.0074,3.9722,4.0614,4.0902,4.0552,4.143,4.1793,4.1592,4.1592,4.1503,4.1289,4.075,4.0512,4.0437,3.9371,3.8894,3.8843,3.8241,3.735,3.6309,3.5958,3.5807,3.5782,3.5618,3.5768,3.6008,0.0,0.0,0.0,0.0,0.0,0.0,0.0,0.0,0.0,0.0,2.9744,3.0538,3.0728,3.1237,3.2362,3.4316,3.3275,3.3138,3.4688,3.2681,0.0,0.0,0.0,0.0,3.4744,3.4641,3.5037,3.6048,3.5405,3.4413,3.3138,3.4207,3.33,3.0886,3.2756,3.2265,3.0084,3.1838,3.1225,2.9032,2.9144,2.9133,2.9099,0.0,0.0,0.0,0.0,0.0,0.0,0.0,0.0,0.0,0.0,0.0,0.0,0.0,0.0,0.0,0.0,0.0,0.0,0.0,0.0,0.0,0.0,0.0,0.0,0.0,0.0,0.0,0.0,0.0,0.0,0.0,0.0,0.0,3.5673,3.7803,3.8981,3.7607,4.1162,4.3644,4.3367,4.3726,4.4089,4.437,4.3345,4.2306,4.142,4.1389,4.1389,4.1364,4.197,4.2274,4.2249,4.2788,4.2788,4.2274,4.2249,4.1945,4.1364,4.0814,4.0538,4.0462,3.9409,3.8944,3.8869,3.8291,3.8053,3.8053,3.8002,3.8002,3.7939,3.7424,3.7223,3.7148,0.0,0.0,0.0,0.0,0.0,0.0,0.0,0.0,0.0,0.0,3.1045,3.1893,3.1672,3.2442,3.3372,3.4406,3.3275,3.3005,3.4227,0.0,0.0,0.0,0.0,0.0,3.5982,3.5971,3.6308,3.7022,3.7318,3.6866,3.578,3.636,3.6066,3.5049,3.4251,3.3764,3.3517,3.2876,3.2216,3.1559,3.1213,3.1332,3.1695,0.0,0.0,0.0,0.0,0.0,0.0,0.0,0.0,0.0,0.0,0.0,0.0,0.0,0.0,0.0,0.0,0.0,0.0,0.0,0.0,0.0,0.0,0.0,0.0,0.0,0.0,0.0,0.0,0.0,0.0,0.0,0.0,4.0181,3.9213,4.0686,4.2032,4.2515,4.5178,4.6995,4.6888,4.731,4.7216,4.6399,4.5419,4.4345,4.3168,4.3474,4.351,4.3123,4.365,4.374,4.3352,4.389,4.4077,4.394,4.3553,4.3263,4.3073,4.2146,4.148,4.1038,4.0362,3.9848,3.9459,3.9295,3.922,3.9145,3.8316,3.8002,3.7977,3.7839,3.7789,3.7688,0.0,0.0,0.0,0.0,0.0,0.0,0.0,0.0,0.0,0.0,3.2003,3.2879,3.2262,3.2969,3.3761,3.4436,3.3457,3.3285,3.4447,0.0,0.0,0.0,0.0,3.5641,3.6844,3.6866,3.7315,3.8234,3.8341,3.7984,3.722,3.7922,3.7515,3.6184,3.5653,3.505,3.4386,3.399,3.3567,3.3209,3.3317,3.3087,3.267,3.2283,3.2381,3.2691,3.2467,3.2881,3.3255,3.1681,0.0,0.0,0.0,0.0,0.0,0.0,0.0,0.0,0.0,0.0,0.0,0.0,0.0,0.0,0.0,0.0,0.0,0.0,0.0,0.0,0.0,0.0,0.0,0.0,4.2565,4.4214,4.4887,4.5052,4.5461,4.6466,4.8569,5.0048,5.0324,5.0842,5.0457,4.8731,4.811,4.6945,4.4946,4.5131,4.5181,4.4869,4.5382,4.5493,4.5181,4.5282,4.5307,4.5307,4.4503,4.4016,4.3765,4.2914,4.2235,4.1617,4.0839,4.0312,4.0023,3.9798,3.9697,3.9622,0.0,0.0,0.0,0.0,3.8216,3.7965,0.0,0.0,0.0,0.0,0.0,0.0,0.0,0.0,0.0,0.0,0.0,3.3678,3.2706,3.3275,3.3941,3.4436,3.3841,3.3919,0.0,0.0,0.0,3.5362,3.6437,3.7206,3.7494,3.7575,3.8195,3.9391,3.8811,3.8334,3.8003,3.8864,3.8064,3.589,3.6931,3.6184,3.4208,3.528,3.5208,3.4456,3.5349,3.4605,3.2935,3.3072,3.3089,3.3133,3.3706,3.3995,3.3976,3.3553,0.0,0.0,0.0,0.0,0.0,0.0,0.0,0.0,0.0,0.0,0.0,0.0,0.0,0.0,0.0,0.0,0.0,0.0,0.0,0.0,0.0,0.0,0.0,0.0,4.6526,4.8775,5.1397,5.0286,4.9376,4.9794,5.1519,5.2875,5.3486,5.3816,5.315,5.1072,5.0586,4.9226,4.6612,4.6461,0.0,0.0,0.0,4.7199,4.7199,4.6712,4.6461,4.6461,4.5332,4.4503,4.3966,4.3377,4.2763,4.2149,4.1142,4.0613,4.0462,3.9998,3.9747,3.9697,3.9697,3.9697,3.9647,3.917,3.8655,3.8191,0.0,0.0,0.0,0.0,0.0,0.0,0.0,0.0,0.0,3.1838,3.3904,3.4941,3.3471,3.4382,3.4951,3.4526,3.4698,3.5076,0.0,0.0,3.5224,3.6738,3.7141,3.7584,3.8191,3.8742,3.9152,3.9391,3.9272,3.9182,3.908,3.8752,3.8615,3.8607,3.7769,3.7433,3.7441,3.7169,3.6905,3.6769,3.6939,3.6178,3.4938,3.496,3.5297,3.565,3.5008,3.5928,3.7119,3.4869,3.5399,3.674,3.5099,0.0,0.0,0.0,0.0,0.0,0.0,0.0,0.0,0.0,0.0,0.0,0.0,0.0,0.0,0.0,0.0,0.0,0.0,0.0,0.0,4.673,4.9422,5.2187,5.4862,5.4912,5.4314,5.3367,5.4545,5.5474,5.5623,5.394,5.2645,5.2192,4.9848,4.8202,4.7637,4.7606,4.7606,4.7606,4.7691,4.7741,4.7741,4.7641,4.7606,4.7566,4.6486,0.0,4.5135,4.4116,4.3126,4.2199,4.1973,4.1343,4.0487,4.0387,4.0099,3.9697,3.9697,3.9697,3.9685,3.9584,3.9484,3.9295,0.0,0.0,0.0,0.0,0.0,0.0,0.0,0.0,0.0,0.0,3.4918,3.5753,3.4788,3.492,3.508,3.5202,3.5399,0.0,0.0,3.6076,3.6305,3.7752,3.8202,3.8712,3.9388,4.0068,4.0397,4.0397,4.0058,4.0058,4.0367,3.9379,3.926,3.9849,3.8512,3.8101,3.835,3.7665,3.7396,3.7396,3.7396,3.7007,3.6439,3.6439,3.6866,3.7421,3.7266,3.8139,3.9191,3.7831,3.8146,3.9,3.8084,3.7293,3.6406,0.0,0.0,0.0,0.0,0.0,0.0,0.0,0.0,0.0,0.0,0.0,0.0,0.0,0.0,4.1916,0.0,0.0,4.8387,5.1476,5.3226,5.5012,5.7317,5.7945,5.7766,5.6752,5.6944,5.709,5.6916,5.5778,5.4511,5.3136,5.1621,5.041,4.9638,4.959,4.959,4.959,4.959,4.9464,4.9147,4.9688,4.9254,4.7923,4.8663,4.7787,4.5516,4.567,4.4758,4.2989,4.2713,4.2135,4.1343,4.1014,4.0575,4.0099,4.0099,3.9948,3.9697,3.9697,3.9697,3.966,0.0,0.0,0.0,0.0,0.0,0.0,0.0,0.0,0.0,0.0,3.5419,3.5937,3.5601,3.4957,3.4972,0.0,0.0,0.0,0.0,3.7483,3.7634,3.8568,3.937,4.0029,4.0576,4.1124,4.1403,4.1403,4.0855,4.0885,4.1373,4.0298,4.0098,4.0546,3.9478,3.8969,3.8939,3.8401,3.8182,3.8182,3.8182,3.8182,3.8182,3.8182,3.8362,3.8691,3.934,3.9939,4.0427,4.0546,4.0675,4.0825,4.0935,4.0122,3.8766,3.6913,3.6949,0.0,0.0,0.0,0.0,0.0,0.0,0.0,0.0,0.0,3.9455,4.1656,4.3652,4.5825,4.8518,5.0213,5.2419,5.6166,5.6881,5.7599,5.9428,6.0027,6.019,5.9907,5.9175,5.8443,5.7816,5.751,5.6291,5.3779,5.3329,5.262,5.1372,5.1289,5.1289,5.1289,5.1495,5.1356,5.0883,5.192,5.136,4.9194,5.1119,5.0013,4.6321,4.7409,4.646,4.3915,4.3277,4.2738,4.2299,4.1592,4.1051,4.0663,4.0663,4.0337,3.9848,3.9747,3.9697,3.9697,0.0,0.0,0.0,0.0,0.0,0.0,0.0,0.0,0.0,0.0,0.0,0.0,0.0,0.0,0.0,0.0,0.0,0.0,3.8231,3.7741,3.7965,3.9242,4.0487,4.1224,4.1283,4.1373,4.1403,4.1403,4.1313,4.1343,4.1403,4.1254,4.1224,4.1283,4.1134,4.1074,4.1074,4.0975,4.0954,4.0954,4.0954,4.0954,4.0954,4.0954,4.0247,3.937,4.0058,4.0337,4.0487,4.1094,4.1673,4.2281,4.2811,4.326,4.2971,3.9757,0.0,3.7169,3.3961,3.4677,3.6786,3.8453,3.9071,4.0283,0.0,0.0,4.4627,4.6959,4.8985,5.0818,5.2342,5.4209,5.6213,5.8411,5.9292,6.016,6.1553,6.1313,6.1403,6.2525,6.1553,6.0144,5.8551,5.7174,5.5604,5.3752,5.2336,5.1489,5.1306,5.1289,5.1289,5.1289,5.2178,5.2597,5.2544,5.3591,5.3989,5.3673,5.3426,5.1809,4.9045,4.8721,4.7089,4.4439,4.3452,4.2964,4.2838,4.1742,4.1264,4.1214,4.1214,4.0876,4.0362,3.9873,3.9697,3.9697,0.0,0.0,0.0,0.0,0.0,0.0,0.0,0.0,0.0,0.0,0.0,0.0,0.0,0.0,0.0,0.0,0.0,0.0,3.9876,3.875,3.8751,4.0487,4.1463,4.1982,4.1982,4.2312,4.2512,4.2512,4.2142,4.2142,4.2482,4.1753,4.1613,4.1952,4.1583,4.1403,4.1433,4.1832,4.1772,4.1433,4.1832,4.1742,4.1433,4.1832,4.1643,4.1055,4.0455,4.0478,0.0,0.0,4.1093,4.1897,4.3399,4.3289,4.2233,4.034,3.9613,0.0,3.8864,3.9112,3.986,0.0,4.2892,4.4458,4.5949,4.7149,4.8436,5.0219,5.2468,5.4491,5.5807,5.7377,5.8993,0.0,6.1074,6.1716,6.3019,6.266,6.2614,6.3512,6.2824,6.1188,5.8466,5.762,5.6124,5.3411,5.259,5.2226,5.2226,5.3161,5.3701,5.3701,5.5082,5.5692,5.5371,5.6314,5.6,5.4462,5.5637,5.4501,5.1359,5.1044,4.8962,4.5533,4.4403,4.394,4.3865,4.3073,4.2571,4.2258,4.1945,4.1466,4.0901,4.0362,4.0174,4.0174,0.0,0.0,0.0,0.0,0.0,0.0,0.0,0.0,0.0,0.0,0.0,0.0,0.0,0.0,0.0,0.0,0.0,0.0,0.0,3.9675,3.9787,4.1592,4.2491,4.302,4.3209,4.3629,4.3848,4.3848,4.3399,4.3429,4.3818,4.2731,4.2571,4.3179,4.2511,4.2292,4.2511,4.3,4.293,4.2511,4.3,4.281,4.2232,4.2531,4.2302,4.1656,4.052,4.0325,0.0,0.0,3.953,4.0287,4.2066,4.1795,4.0655,3.9682,3.962,4.0189,4.1644,0.0,0.0,4.4178,4.6422,4.8345,4.8226,5.011,5.2175,5.3324,5.5551,5.7616,5.8726,5.9877,6.1028,6.2195,6.2525,6.2899,6.3662,6.3512,6.3452,6.3722,6.3363,6.1925,5.8993,5.8273,5.6967,5.4493,5.3427,5.3316,5.4257,5.4999,5.5617,5.6108,5.7606,5.8237,5.7836,5.8747,5.8248,5.6345,5.7894,5.6958,5.3822,5.2946,5.0822,4.7744,4.6766,4.6234,4.6013,4.529,4.4761,4.4336,4.3767,4.2956,4.2057,4.1663,4.1183,4.0725,0.0,0.0,0.0,0.0,0.0,0.0,0.0,0.0,0.0,0.0,0.0,0.0,0.0,0.0,0.0,0.0,0.0,0.0,0.0,4.0227,4.0945,4.2321,4.3569,4.4556,4.5195,4.5225,4.5255,4.5255,4.5225,4.5225,4.5214,4.4516,4.4576,4.5195,4.4516,4.4576,4.5195,4.5185,4.5195,4.5195,4.5185,4.4796,4.4147,4.3509,4.2026,4.0263,4.0224,0.0,0.0,0.0,3.6963,3.726,3.8127,3.8895,0.0,3.7806,3.7704,0.0,0.0,0.0,4.5474,4.698,4.9236,5.1427,5.2707,5.4576,5.6192,5.6838,5.8574,6.019,6.088,6.1569,6.2285,6.2944,6.3572,6.3737,6.3183,6.3632,6.3767,6.3183,6.3108,6.2409,0.0,5.8933,5.7957,5.7862,5.4768,5.4358,5.7672,5.6304,5.6174,5.7878,5.8923,5.9454,5.9425,6.0493,6.0976,6.0904,6.0314,5.8879,5.6677,5.3935,5.2261,5.1512,5.0947,5.0354,4.9664,4.8477,4.7952,4.7884,4.7212,4.5782,4.4098,4.4072,4.29,4.1264,0.0,0.0,0.0,0.0,0.0,0.0,0.0,0.0,0.0,0.0,0.0,0.0,0.0,0.0,0.0,0.0,0.0,0.0,0.0,4.0239,4.1005,4.2351,4.318,4.3938,4.4606,4.4636,4.4855,4.5315,4.5315,4.5315,4.5315,4.5065,4.5095,4.5285,4.5065,4.5095,4.5334,4.5773,4.5713,4.5315,4.5315,4.4915,4.4117,4.2474,4.1557,4.077,0.0,0.0,0.0,0.0,0.0,0.0,3.7302,0.0,0.0,3.8346,0.0,0.0,0.0,0.0,4.8069,5.0113,5.2594,5.4743,5.5581,5.7347,5.8857,5.9053,5.9427,5.9759,6.0,6.0587,6.1114,6.1325,6.2864,6.3917,6.3722,6.4231,6.4411,6.3767,6.3692,0.0,0.0,0.0,0.0,5.8084,5.6919,5.679,5.7941,5.8512,5.9058,5.9629,6.1099,6.1893,6.1893,6.1805,6.1762,6.1762,6.0639,5.9174,5.7383,5.5608,5.3867,5.2191,5.1653,5.1058,5.034,4.9123,4.8626,4.8529,4.7494,4.6714,4.6109,4.6109,4.5716,4.4836,0.0,0.0,0.0,0.0,0.0,0.0,0.0,0.0,0.0,0.0,0.0,0.0,0.0,0.0,0.0,0.0,0.0,0.0,0.0,0.0,4.0661,4.2088,4.2743,4.3578,4.4636,4.4594,4.4844,4.5428,4.5356,4.5315,4.5274,4.5035,4.5065,4.5315,4.5315,4.5424,4.5683,4.6121,4.5838,4.5047,4.46,4.3815,4.2743,4.0982,4.0051,0.0,0.0,0.0,0.0,0.0,0.0,0.0,0.0,0.0,0.0,0.0,0.0,0.0,0.0,4.9111,5.1737,5.3511,5.579,5.7689,5.8095,5.9532,6.0819,6.0819,6.0112,5.9519,5.9519,5.9446,5.9446,5.9446,6.1211,6.278,6.3258,6.3693,6.3962,6.4006,6.3797,6.3542,0.0,0.0,0.0,5.99,5.8697,5.854,5.9762,6.0237,6.0795,6.1392,6.2526,6.3108,6.3108,6.2674,6.2345,6.2091,6.0984,5.9781,5.8529,5.7519,5.6119,5.4484,5.3872,5.3258,5.2561,5.1323,5.0797,5.0668,4.9415,4.8755,4.8504,4.828,4.8336,4.8084,0.0,0.0,0.0,0.0,0.0,0.0,0.0,0.0,0.0,0.0,0.0,0.0,0.0,0.0,0.0,0.0,0.0,0.0,0.0,0.0,0.0,4.1548,4.2226,4.3374,4.5104,4.4937,4.503,4.5462,4.5267,4.5164,4.5143,4.4526,4.4566,4.5164,4.5154,4.5521,4.6109,4.6068,4.5469,4.4421,4.3143,4.1774,4.0373,3.923,0.0,0.0,0.0,0.0,0.0,0.0,0.0,0.0,0.0,0.0,0.0,0.0,0.0,4.6447,4.9634,5.3184,5.6176,5.7049,5.8753,6.019,6.019,6.1208,6.2135,6.1986,6.0562,5.9355,0.0,0.0,5.7471,5.7549,5.9154,6.0848,6.2121,6.2361,6.281,0.0,0.0,0.0,0.0,0.0,0.0,6.3183,6.0156,5.9714,6.2979,6.157,6.1451,6.308,6.3108,6.3108,6.3108,6.3108,6.2764,6.2121,6.1479,6.0805,6.013,5.9458,5.8756,5.8055,5.7423,5.6778,5.6102,5.479,5.4239,5.4059,5.2755,5.1805,5.1141,5.0551,5.0724,5.0848,0.0,0.0,0.0,0.0,0.0,0.0,0.0,0.0,0.0,0.0,0.0,0.0,0.0,0.0,0.0,0.0,0.0,0.0,0.0,0.0,0.0,0.0,0.0,0.0,0.0,0.0,0.0,0.0,0.0,4.3525,4.3229,4.3347,4.3437,4.3423,4.328,4.3307,4.3425,4.2791,4.2346,4.2001,0.0,4.033,3.9998,0.0,0.0,0.0,0.0,0.0,0.0,0.0,0.0,0.0,0.0,0.0,4.377,0.0,0.0,5.1278,5.3722,5.6264,5.8424,5.9169,6.0459,6.1583,6.1583,6.2255,6.2342,6.053,5.8772,5.7111,0.0,0.0,0.0,5.813,6.1751,0.0,6.4964,6.5877,0.0,6.5562,0.0,6.5069,6.456,6.453,0.0,0.0,6.3239,6.2839,6.3738,6.3341,6.3297,6.3767,6.3333,6.3108,6.3108,6.3108,6.3003,6.2824,6.2165,6.1493,6.0821,6.0146,5.9219,5.8085,5.7919,5.7214,5.6132,5.5281,5.464,5.4119,5.3264,5.2842,5.265,5.2501,5.2531,5.2511,0.0,0.0,0.0,0.0,0.0,0.0,0.0,0.0,0.0,0.0,0.0,0.0,0.0,0.0,0.0,0.0,0.0,0.0,0.0,0.0,0.0,0.0,0.0,0.0,0.0,0.0,0.0,0.0,0.0,0.0,0.0,4.1165,4.1253,4.1489,4.1283,4.1419,4.1724,0.0,0.0,0.0,0.0,0.0,0.0,0.0,0.0,0.0,0.0,0.0,0.0,0.0,0.0,4.1273,4.4291,4.6135,4.7758,5.0772,0.0,5.4534,5.6683,5.8808,6.0505,6.0878,6.1776,6.2254,6.1213,6.1017,6.0442,5.835,5.6154,0.0,5.3759,5.4788,0.0,0.0,0.0,0.0,6.5398,6.5951,6.6296,0.0,6.6191,0.0,6.5488,6.5697,6.5877,0.0,6.4979,6.4441,6.4441,6.4441,6.4441,6.4441,6.3827,6.3363,6.3108,6.3108,6.3108,6.3108,6.2435,6.1912,6.1523,6.0549,5.9681,5.8936,5.8367,5.7679,5.6974,5.6316,5.5671,5.4999,5.4354,5.4084,5.4054,5.3755,5.3815,5.3994,0.0,0.0,0.0,0.0,0.0,0.0,0.0,0.0,0.0,0.0,0.0,0.0,0.0,0.0,0.0,0.0,0.0,0.0,0.0,0.0,0.0,0.0,0.0,0.0,0.0,0.0,0.0,0.0,0.0,0.0,0.0,0.0,0.0,0.0,0.0,0.0,0.0,0.0,0.0,0.0,0.0,0.0,0.0,0.0,0.0,0.0,0.0,0.0,0.0,0.0,4.6659,4.5569,4.8042,4.9695,5.1362,5.4404,5.6022,5.717,5.9004,6.0835,6.2241,6.2241,6.2674,6.2446,5.9937,5.8877,5.7811,5.5637,0.0,5.1804,5.2509,5.3371,5.4508,5.5976,0.0,6.2346,6.5144,6.5039,6.5323,6.7194,6.6819,6.64,6.64,6.6909,6.7284,6.7284,6.6176,6.5443,6.5263,6.5084,6.4904,6.4755,6.4261,6.3722,6.3108,6.3108,6.3108,6.3108,6.2525,6.2181,6.2061,6.0908,6.028,6.004,5.8876,5.8294,5.8175,5.7513,5.6915,5.6402,5.57,5.5461,5.5388,5.479,5.491,5.5251,0.0,0.0,0.0,0.0,0.0,0.0,0.0,0.0,0.0,0.0,3.6816,3.6685,0.0,0.0,0.0,0.0,0.0,0.0,0.0,0.0,0.0,0.0,0.0,0.0,0.0,0.0,0.0,0.0,0.0,0.0,0.0,0.0,0.0,0.0,0.0,0.0,0.0,0.0,0.0,0.0,0.0,0.0,0.0,0.0,0.0,0.0,0.0,0.0,0.0,0.0,5.0653,5.1516,5.3842,5.6325,5.8333,5.8087,5.9344,6.0901,6.1454,6.2255,6.2928,6.2928,6.3003,6.2312,5.9265,5.8608,0.0,0.0,5.1483,5.1015,4.94,5.1295,5.4129,5.7217,6.0561,6.4051,0.0,0.0,6.8465,0.0,0.0,0.0,0.0,0.0,0.0,0.0,6.8435,6.7837,6.67,6.5607,6.453,6.3452,6.3797,6.3722,6.3108,6.3108,6.3108,6.3108,6.2974,6.2644,6.2091,6.1852,6.1148,6.01,5.9861,5.9428,5.8876,5.8218,5.7859,5.7709,5.7034,5.6778,5.6778,5.6645,5.6359,5.5923,0.0,0.0,0.0,0.0,0.0,0.0,0.0,3.7501,3.7669,3.7857,3.7436,3.6892,3.628,3.6092,3.623,0.0,0.0,0.0,0.0,0.0,0.0,0.0,0.0,0.0,0.0,0.0,0.0,0.0,0.0,0.0,0.0,0.0,0.0,0.0,0.0,0.0,0.0,0.0,0.0,0.0,0.0,0.0,0.0,0.0,0.0,0.0,0.0,0.0,0.0,0.0,5.2076,5.4845,5.7465,5.9079,6.006,6.0284,6.1125,6.2122,6.2892,6.3318,6.3572,6.3572,6.3333,6.1951,5.7527,0.0,0.0,0.0,4.8726,4.8828,4.8343,5.0493,0.0,5.626,5.9433,6.2914,0.0,0.0,0.0,0.0,0.0,0.0,0.0,0.0,6.9991,6.9991,6.9692,6.9093,6.8076,6.7089,6.5951,6.4635,6.4904,6.471,6.4096,6.3737,6.3572,6.3572,6.3243,6.2914,6.2614,6.2241,6.1746,6.1118,6.0775,6.0446,6.0116,5.9803,5.9265,5.8577,5.8261,5.7723,5.7094,5.7094,5.6928,5.6568,0.0,0.0,0.0,0.0,0.0,0.0,0.0,3.7761,3.8153,3.8555,3.7888,3.7048,3.6201,3.6053,3.6098,0.0,0.0,0.0,0.0,0.0,0.0,0.0,0.0,0.0,0.0,0.0,0.0,0.0,0.0,0.0,0.0,0.0,0.0,0.0,0.0,0.0,0.0,0.0,0.0,0.0,0.0,0.0,0.0,0.0,0.0,0.0,0.0,0.0,0.0,0.0,5.178,5.5261,5.8076,5.9281,5.9863,6.0878,6.1507,6.2211,6.3617,6.4006,6.4006,6.4006,6.3452,6.1439,5.5857,5.3686,0.0,0.0,4.6305,4.6677,4.7608,0.0,5.182,0.0,5.7215,6.051,6.4949,0.0,0.0,0.0,0.0,0.0,0.0,7.062,0.0,7.1098,7.0696,6.9858,6.8645,6.8211,6.7313,6.5817,6.5936,6.5667,6.5024,6.447,6.4156,6.3977,6.3512,6.3227,6.3063,6.2555,6.2255,6.2061,6.1553,6.1299,6.1299,6.115,6.0551,5.9727,5.9428,5.865,5.7736,5.7573,5.7423,5.7244,0.0,0.0,0.0,0.0,0.0,0.0,0.0,3.763,3.784,3.7425,3.7185,3.6702,3.5828,3.591,3.5828,0.0,0.0,0.0,0.0,0.0,0.0,0.0,0.0,0.0,0.0,0.0,0.0,0.0,0.0,0.0,0.0,0.0,0.0,0.0,0.0,0.0,0.0,0.0,0.0,0.0,0.0,0.0,0.0,0.0,0.0,0.0,0.0,0.0,0.0,0.0,0.0,5.1166,5.3643,5.661,5.9123,5.8884,0.0,0.0,6.3498,6.4006,6.4006,6.4006,6.3079,6.0736,5.5162,0.0,0.0,4.5919,4.5268,4.5778,4.6052,0.0,0.0,0.0,0.0,5.7352,6.3349,6.5802,0.0,0.0,0.0,0.0,0.0,7.0859,7.1158,7.1773,7.1773,7.0396,6.7343,6.7703,6.7104,6.5144,6.5697,6.5667,6.5024,6.4934,6.459,6.4006,6.3947,6.3632,6.3108,6.3048,6.2674,6.2091,6.2032,6.2002,6.1972,6.1359,6.1389,6.1702,6.0489,5.9921,5.9741,5.9129,5.8517,5.7995,0.0,0.0,0.0,0.0,0.0,0.0,3.7115,3.7974,3.8594,3.8598,3.8124,3.7182,3.563,3.5244,3.4956,3.4628,0.0,0.0,0.0,0.0,0.0,0.0,0.0,0.0,0.0,0.0,0.0,0.0,0.0,0.0,0.0,0.0,0.0,0.0,0.0,0.0,0.0,0.0,0.0,0.0,0.0,0.0,0.0,0.0,0.0,0.0,0.0,0.0,0.0,0.0,0.0,0.0,4.8982,5.0886,0.0,0.0,5.9493,6.1415,6.3918,6.4889,6.5099,6.471,6.285,5.9789,5.4915,0.0,4.9562,4.5447,4.4943,4.538,4.5809,4.6656,4.8196,0.0,0.0,0.0,6.0122,6.2191,6.4666,6.8615,6.973,0.0,0.0,0.0,7.2056,7.1923,7.1534,7.056,6.89,6.869,6.8062,6.6849,6.667,6.646,6.6221,6.5787,6.5458,6.5203,6.48,6.4261,6.3632,6.3632,6.3303,6.2704,6.2704,6.2704,6.2674,6.2405,6.2211,6.2046,6.1493,6.0819,6.007,5.9801,5.9279,5.8637,0.0,0.0,0.0,0.0,0.0,3.6133,3.6778,3.7662,3.8389,3.871,3.7969,3.6781,3.5158,3.4363,3.384,3.3569,3.335,0.0,0.0,0.0,0.0,0.0,0.0,0.0,0.0,0.0,0.0,3.4319,3.4041,0.0,0.0,0.0,0.0,0.0,0.0,0.0,0.0,0.0,0.0,0.0,0.0,0.0,0.0,0.0,0.0,0.0,0.0,0.0,0.0,0.0,0.0,0.0,0.0,0.0,0.0,0.0,5.7567,6.0158,6.2965,6.4561,6.5338,6.5054,6.2247,5.8539,0.0,0.0,4.8087,4.518,4.4865,4.5231,4.5728,4.6411,4.7507,4.9385,5.0852,5.3118,5.7054,5.9163,6.1874,0.0,0.0,6.8842,7.137,7.2558,7.2924,7.2235,7.1757,7.1218,7.0606,6.9768,6.89,6.8017,6.7523,6.7313,6.7313,6.664,6.6311,6.6281,6.5428,6.465,6.3977,6.3827,6.3512,6.3108,6.3108,6.3108,6.3108,6.3108,6.2824,6.2375,6.2195,6.1523,6.0669,6.0459,6.0086,5.9608,0.0,0.0,0.0,0.0,0.0,0.0,3.5939,3.6343,3.6651,3.6988,3.6048,3.5056,3.4286,3.3317,3.2521,3.2067,3.2488,0.0,0.0,0.0,0.0,0.0,0.0,0.0,0.0,0.0,3.3919,3.3919,3.3891,3.3968,3.4065,0.0,0.0,0.0,0.0,0.0,0.0,0.0,0.0,0.0,0.0,0.0,0.0,0.0,0.0,0.0,0.0,0.0,0.0,0.0,0.0,0.0,0.0,0.0,0.0,0.0,5.3403,5.741,6.0041,6.2354,6.4186,6.4859,6.1227,5.692,0.0,0.0,4.7507,4.5087,4.4981,4.537,4.5565,4.5781,4.6499,4.8224,4.8928,0.0,5.4495,5.751,6.0049,0.0,0.0,6.6035,6.832,7.1801,7.3612,7.2937,7.2877,7.2595,7.1923,7.0666,6.9379,6.8047,6.7987,6.7987,6.7987,6.7313,6.6984,6.6969,6.5637,6.465,6.3977,6.3393,6.3108,6.3108,6.3108,6.3108,6.3108,6.3108,6.3108,6.3003,6.2375,6.2091,6.2002,6.1329,6.109,6.097,0.0,0.0,0.0,0.0,0.0,0.0,0.0,3.5538,3.5604,3.5921,3.5182,3.4073,3.2588,3.2628,3.2472,3.1731,3.231,0.0,0.0,0.0,0.0,0.0,0.0,0.0,0.0,0.0,3.3486,3.3225,3.3901,3.4157,3.3968,3.3935,3.3899,0.0,0.0,0.0,0.0,0.0,0.0,0.0,0.0,0.0,0.0,0.0,0.0,0.0,0.0,0.0,0.0,0.0,0.0,0.0,0.0,0.0,0.0,0.0,0.0,0.0,5.5406,5.7102,5.8127,5.7903,5.5475,5.2765,5.1138,0.0,4.6251,4.4877,4.4981,4.54,4.5748,4.6234,4.7065,4.8529,4.9204,5.05,0.0,0.0,0.0,6.3769,6.872,7.2063,0.0,7.3502,7.3821,7.3612,7.3146,7.2624,7.1953,7.1534,7.0696,6.9409,6.893,6.8451,6.7987,6.7808,6.7433,6.6999,6.658,6.6011,6.5353,6.468,6.4156,6.3677,6.3273,6.3108,6.3108,6.3108,6.3108,6.3078,6.2868,6.2495,6.2061,6.1852,6.1493,6.106,0.0,0.0,0.0,0.0,0.0,0.0,0.0,3.4197,3.4111,3.4518,3.3868,3.2938,3.1797,3.2106,3.2225,3.1717,3.2248,0.0,0.0,0.0,0.0,0.0,0.0,0.0,0.0,3.2795,3.3403,3.3608,3.3942,3.4143,3.4216,3.3893,3.3748,3.3782,3.393,0.0,0.0,0.0,0.0,0.0,0.0,0.0,4.0177,0.0,0.0,0.0,0.0,0.0,0.0,0.0,0.0,0.0,0.0,0.0,0.0,0.0,0.0,0.0,0.0,5.3361,5.4465,5.4193,5.2011,0.0,0.0,0.0,4.4987,4.4754,4.503,4.54,4.5718,4.613,4.6885,4.8351,4.8938,0.0,0.0,0.0,0.0,6.495,0.0,0.0,7.3238,7.386,7.4287,7.4287,7.3642,7.2984,7.2295,7.2042,7.1414,7.0366,6.9692,6.9049,6.8391,6.8137,6.7808,6.7373,6.6849,6.64,6.5981,6.5039,6.4381,6.3977,6.3363,6.3108,0.0,6.3108,6.3108,6.3108,6.3108,6.2854,6.2495,6.2495,6.2211,6.1822,0.0,0.0,0.0,0.0,0.0,0.0,0.0,3.2542,3.2398,3.282,3.2253,3.1764,3.1698,3.1794,3.1869,3.1947,0.0,0.0,0.0,0.0,0.0,0.0,0.0,0.0,0.0,3.2614,3.3445,3.4638,3.393,3.3987,3.4668,3.3334,3.2892,3.3297,3.3434,0.0,0.0,0.0,0.0,0.0,0.0,0.0,0.0,0.0,0.0,0.0,0.0,0.0,0.0,0.0,0.0,0.0,0.0,0.0,0.0,0.0,0.0,0.0,0.0,0.0,0.0,0.0,0.0,0.0,0.0,0.0,0.0,4.4703,4.5087,4.5331,4.5554,4.558,4.6138,4.7827,0.0,0.0,0.0,5.7128,0.0,0.0,6.8982,7.0736,7.0511,7.3161,7.4886,7.4886,7.4317,7.3672,7.2997,7.2325,7.1667,7.0979,7.038,6.9738,6.9064,6.8451,6.8107,6.7987,6.6729,6.6101,6.5951,6.4725,6.4096,6.3977,6.3393,6.3123,6.3108,6.3108,6.3108,6.3108,6.3108,6.3108,6.3108,6.3108,6.3108,6.3003,0.0,0.0,0.0,0.0,0.0,0.0,0.0,0.0,0.0,0.0,3.1628,3.133,3.0707,3.1676,3.2085,0.0,0.0,0.0,0.0,0.0,0.0,0.0,0.0,0.0,0.0,3.202,3.2601,3.311,3.3444,3.3629,3.3637,3.3561,3.3727,3.4137,3.4314,3.523,0.0,0.0,0.0,0.0,0.0,0.0,0.0,0.0,0.0,0.0,3.9451,3.9511,0.0,0.0,0.0,0.0,0.0,0.0,0.0,0.0,4.0674,4.1715,4.2811,0.0,0.0,0.0,0.0,0.0,0.0,0.0,0.0,0.0,0.0,4.5061,4.5328,4.5357,4.5962,0.0,0.0,4.9659,5.3451,6.0212,0.0,6.8404,7.1762,7.2995,7.0736,7.3161,7.4886,7.4886,7.4736,7.4377,7.3702,7.3043,7.2355,7.1683,7.1038,7.038,6.9768,6.9618,6.9035,6.7987,6.7688,6.6984,6.5996,6.5667,6.4964,6.3977,6.3857,6.3542,6.3108,6.3108,6.3108,6.3108,6.3108,6.3108,6.3108,6.3108,6.3108,6.3078,0.0,0.0,0.0,0.0,0.0,0.0,0.0,0.0,0.0,0.0,0.0,3.0783,3.0544,3.1651,0.0,0.0,0.0,0.0,0.0,0.0,0.0,0.0,0.0,3.064,3.1486,3.1671,3.226,3.3316,3.3243,3.3367,3.3719,3.3622,3.3819,3.4272,3.4572,3.5583,0.0,0.0,0.0,0.0,3.8961,0.0,0.0,0.0,0.0,0.0,3.9364,3.9391,0.0,3.9929,3.9721,3.9311,0.0,0.0,0.0,0.0,3.9981,4.0472,4.0343,4.1069,4.1867,0.0,0.0,0.0,0.0,0.0,0.0,0.0,0.0,0.0,4.501,4.5698,0.0,0.0,4.9968,0.0,0.0,0.0,6.628,6.9587,7.1685,7.2799,7.2527,7.3963,7.4886,7.4886,7.4886,7.4616,7.3941,7.3552,7.2924,7.1923,7.1564,7.0935,7.0007,6.9708,6.9019,6.7987,6.7688,6.7164,6.643,6.5817,6.5159,6.4411,6.3827,6.3393,6.3108,6.3108,6.3108,6.3108,6.3108,6.3108,6.3108,6.3108,6.3108,6.3108,0.0,0.0,0.0,0.0,0.0,0.0,0.0,0.0,0.0,0.0,0.0,0.0,0.0,0.0,0.0,0.0,0.0,0.0,0.0,0.0,0.0,0.0,0.0,3.0769,3.1793,3.1372,3.2038,3.3925,3.312,3.3185,3.4065,3.3774,3.3893,3.4349,3.4609,3.5377,0.0,0.0,0.0,0.0,3.7704,0.0,0.0,0.0,0.0,0.0,0.0,0.0,0.0,3.9893,3.9797,3.9547,3.9754,0.0,0.0,0.0,0.0,0.0,3.9466,4.098,4.2454,4.1966,0.0,0.0,0.0,0.0,0.0,0.0,0.0,0.0,0.0,4.641,0.0,0.0,0.0,0.0,6.2485,6.3874,6.5891,7.0003,7.0901,7.197,7.4023,7.4629,7.4886,7.4886,7.4886,7.4646,7.4061,7.3958,7.3373,7.2252,7.2013,7.1384,7.0306,6.9512,6.881,6.8122,6.7463,6.7044,6.6819,6.5787,6.5159,6.48,6.3797,6.3273,6.3108,6.3108,6.3108,6.3108,6.3108,6.3108,6.3108,6.3108,6.3108,6.3108,0.0,0.0,0.0,0.0,0.0,0.0,0.0,0.0,0.0,0.0,0.0,0.0,0.0,0.0,0.0,0.0,0.0,0.0,0.0,0.0,0.0,3.0664,3.064,3.0744,3.0969,3.091,3.1454,3.2679,3.2854,3.3114,3.3448,3.4611,3.5248,3.5352,3.502,3.5372,3.6208,0.0,0.0,0.0,0.0,0.0,0.0,0.0,0.0,0.0,0.0,0.0,0.0,3.9745,3.9831,3.9913,3.9972,0.0,0.0,0.0,0.0,0.0,4.0065,4.2408,4.4419,4.1819,0.0,0.0,0.0,0.0,0.0,0.0,0.0,0.0,0.0,4.7492,4.8661,0.0,0.0,6.1635,6.6879,6.8824,6.9902,7.0439,7.2693,7.3434,7.1368,7.3434,7.4886,7.4886,7.4886,7.4873,7.4736,7.4227,7.3791,7.3599,7.2491,7.1803,7.1623,7.0426,6.9498,6.8824,6.8151,6.7254,6.6161,6.652,6.5772,6.4171,6.456,6.4096,6.3108,6.3108,6.3108,6.3108,6.3108,6.3108,6.3108,6.3108,6.3108,6.3108,0.0,0.0,0.0,0.0,0.0,0.0,0.0,0.0,0.0,0.0,0.0,0.0,0.0,0.0,0.0,0.0,0.0,0.0,0.0,0.0,0.0,3.0704,3.1059,3.1237,3.1282,3.1184,3.1797,3.3195,3.3305,3.358,3.3965,3.4722,3.5073,3.5116,3.4953,3.5244,3.5815,3.5478,0.0,0.0,0.0,0.0,0.0,0.0,0.0,0.0,0.0,0.0,0.0,0.0,3.9759,3.9848,3.9984,0.0,0.0,0.0,0.0,0.0,4.0093,4.1537,4.3196,0.0,0.0,0.0,0.0,0.0,0.0,0.0,0.0,0.0,0.0,0.0,5.395,5.9844,0.0,6.3432,6.7445,6.8173,6.8841,7.0317,7.1699,7.2634,7.2859,7.41,7.4886,7.4886,7.4886,7.4886,7.4886,7.4616,7.4091,7.3402,7.2774,7.2086,7.1368,7.0456,6.9858,6.9528,6.8481,6.7688,6.7074,6.664,6.5951,6.5054,6.465,6.4126,6.3572,6.3213,6.3108,6.3108,6.3108,6.3108,6.3108,6.3108,6.3108,6.3108,0.0,0.0,0.0,0.0,0.0,0.0,0.0,0.0,0.0,0.0,0.0,0.0,0.0,0.0,0.0,0.0,0.0,0.0,0.0,0.0,3.07,3.0957,3.133,3.1557,3.1574,3.1668,3.2384,3.3756,3.3881,3.4278,3.4919,3.4871,3.4881,3.4911,3.4886,3.5108,3.5511,3.5441,3.5838,0.0,0.0,0.0,0.0,0.0,0.0,0.0,0.0,0.0,0.0,0.0,0.0,0.0,0.0,0.0,0.0,4.0156,4.0139,4.0173,4.0379,4.1291,4.283,0.0,0.0,0.0,0.0,0.0,0.0,0.0,0.0,0.0,0.0,5.4496,0.0,6.5532,6.5544,6.5791,6.8596,6.8361,6.8818,7.1232,7.1533,7.2438,7.4689,7.4886,7.4886,7.4886,7.4886,7.4886,7.4886,7.4736,7.4197,7.3163,7.2817,7.2176,7.1128,7.05,7.0127,6.9977,6.8646,6.7987,6.7958,6.6759,6.6161,6.5936,6.4755,6.4156,6.3947,6.3333,6.3108,6.3108,6.3108,6.3108,6.3108,6.3108,6.3108,6.3108,0.0,0.0,0.0,0.0,0.0,0.0,0.0,0.0,0.0,0.0,0.0,0.0,0.0,0.0,0.0,0.0,0.0,0.0,0.0,0.0,3.0742,3.1674,3.1287,3.1079,3.1135,3.2109,3.2842,3.3338,3.4278,3.5209,3.6174,3.5541,3.5348,3.5525,3.51,3.5108,3.5503,3.5302,3.5432,3.586,0.0,0.0,0.0,0.0,0.0,0.0,0.0,0.0,0.0,0.0,0.0,0.0,0.0,0.0,4.0513,4.0703,4.0617,4.0636,4.1436,4.3709,4.5898,4.6193,0.0,0.0,0.0,0.0,0.0,0.0,0.0,0.0,0.0,5.8563,6.2392,6.4755,6.7596,7.0422,7.307,7.3382,7.3651,7.4463,7.4582,7.4659,7.4886,7.4886,7.4886,7.4886,7.4886,7.4886,7.4886,7.4317,7.3911,7.3821,7.2624,7.1923,7.1833,7.1158,7.056,6.9977,6.8646,6.7987,6.7987,6.7254,6.658,6.5966,6.5233,6.456,6.3947,6.3333,6.3108,6.3108,6.3108,6.3108,6.3108,6.3108,6.3108,6.3108,0.0,0.0,0.0,0.0,0.0,0.0,0.0,0.0,0.0,0.0,0.0,0.0,0.0,0.0,0.0,0.0,0.0,0.0,0.0,3.0672,3.0964,3.1758,3.1775,3.2078,3.276,3.2931,3.3537,3.4622,3.4845,3.5246,3.5731,3.5174,3.5023,3.518,3.5235,3.5386,3.5621,3.5557,3.5837,3.6373,3.6921,0.0,0.0,0.0,0.0,0.0,0.0,0.0,0.0,0.0,4.047,4.0548,4.0789,4.0865,4.0857,4.0792,4.0763,4.0818,4.1516,4.3579,4.5848,4.7005,0.0,0.0,0.0,0.0,0.0,0.0,0.0,0.0,0.0,0.0,6.5772,6.7716,7.0155,7.2445,7.4257,7.4527,7.4616,7.4856,7.4886,7.4886,7.4886,7.4886,7.4736,7.4317,7.4646,7.4527,7.3702,7.3821,7.3522,7.2684,7.2162,7.1713,7.1278,7.1038,7.0799,7.053,6.9259,6.863,6.8585,6.7493,6.6849,6.658,6.5906,6.5248,6.456,6.3917,6.3452,6.3108,6.3108,6.3108,6.3108,6.3108,6.3108,6.3108,0.0,0.0,0.0,0.0,0.0,0.0,0.0,0.0,0.0,0.0,0.0,0.0,0.0,0.0,0.0,0.0,0.0,0.0,3.0888,3.0974,3.133,3.1995,3.2166,3.2703,3.3698,3.3329,3.3864,3.5303,3.5185,3.5069,3.5017,3.4935,3.4865,3.4843,3.5245,3.5587,3.5908,3.5881,3.6313,3.7027,3.7339,3.7869,0.0,0.0,0.0,0.0,0.0,0.0,0.0,0.0,4.0643,4.0737,4.1024,4.11,4.1092,4.1001,4.1291,4.1798,4.2446,4.4051,4.6021,0.0,0.0,0.0,0.0,0.0,0.0,0.0,0.0,0.0,0.0,0.0,0.0,6.9034,7.1517,7.3612,7.4736,7.4886,7.4886,7.4886,7.4886,7.4826,7.4587,7.4587,7.4317,7.3642,7.4197,7.4108,7.2967,7.3343,7.3073,7.1953,7.1697,7.1368,7.0889,7.0709,7.0709,7.0889,6.9602,6.9123,6.9273,6.7942,6.7313,6.7254,6.637,6.5727,6.5248,6.4351,6.3632,6.3108,6.3108,6.3108,6.3108,6.3108,6.3108,6.3108,0.0,0.0,0.0,0.0,0.0,0.0,0.0,0.0,0.0,0.0,0.0,0.0,0.0,0.0,0.0,0.0,0.0,0.0,3.1073,3.1353,3.18,3.246,3.2369,3.2706,3.3597,3.3219,3.3696,3.5089,3.5089,3.4765,3.4207,3.4927,3.5069,3.4714,3.5063,3.5659,3.6384,3.6254,3.6785,3.7742,3.8201,3.8258,0.0,0.0,0.0,0.0,0.0,0.0,0.0,0.0,4.0933,4.11,4.1109,4.1109,4.1142,4.1248,4.2346,4.3691,4.4529,4.5519,4.6885,0.0,0.0,0.0,0.0,0.0,0.0,0.0,0.0,0.0,0.0,0.0,0.0,6.7808,7.1324,7.4138,7.4796,7.4886,7.4886,7.4886,7.4886,7.4616,7.3958,7.3881,7.3612,7.2937,7.3522,7.3582,7.2907,7.2877,7.2578,7.1923,7.1248,7.0889,7.0889,7.0306,7.0306,7.0889,6.9602,6.9363,6.9947,6.8616,6.7987,6.7928,6.658,6.5996,6.5892,6.4545,6.3632,6.3108,6.3108,6.3108,6.3108,6.3108,6.3108,6.3108,0.0,0.0,0.0,0.0,0.0,0.0,0.0,0.0,0.0,0.0,0.0,0.0,0.0,0.0,0.0,0.0,0.0,0.0,3.0925,3.1154,3.152,3.204,3.1991,3.2409,3.3385,3.342,3.3694,3.425,3.3771,3.3842,3.4405,3.4114,3.428,3.4873,3.5595,3.6101,3.6507,3.6896,3.7477,3.8218,3.8498,3.8844,0.0,0.0,0.0,0.0,0.0,0.0,0.0,0.0,0.0,0.0,4.1421,4.1717,4.1904,4.1327,4.2052,4.3025,4.3198,4.4947,0.0,4.9367,0.0,0.0,0.0,0.0,0.0,0.0,0.0,0.0,0.0,0.0,0.0,6.9259,7.1547,7.3612,7.4736,7.4886,7.4736,7.4257,7.4197,7.3941,7.3266,7.3206,7.2924,7.2235,7.2834,7.2698,7.1531,7.1936,7.1876,7.1218,7.1009,7.0889,7.0889,7.0709,7.05,7.0277,6.9887,6.9798,6.9947,6.8616,6.7987,6.7958,6.7074,6.6161,6.5218,6.3887,6.3243,6.3108,6.3108,6.3108,6.3108,6.3108,6.3108,6.3108,0.0,0.0,0.0,0.0,0.0,0.0,0.0,0.0,0.0,0.0,0.0,0.0,0.0,0.0,0.0,0.0,0.0,0.0,0.0,3.1159,3.1391,3.1613,3.1696,3.2077,3.2855,3.3041,3.317,3.3257,3.3059,3.3292,3.3871,3.3632,3.408,3.5137,3.579,3.6442,3.7079,3.7523,3.8151,3.882,3.8926,3.9308,3.9809,0.0,0.0,0.0,0.0,0.0,0.0,0.0,0.0,0.0,4.1564,4.1838,4.2088,4.2212,4.3136,4.4319,4.5199,4.721,0.0,5.1834,5.3959,5.6659,6.1026,0.0,0.0,0.0,0.0,6.6537,6.7598,6.8675,6.9512,6.9901,7.1591,7.3283,7.4347,7.4287,7.4168,7.4287,7.3821,7.3326,7.2937,7.2654,7.2206,7.1547,7.2116,7.2026,7.0949,7.1534,7.1593,7.0919,7.0889,7.0769,7.053,7.029,6.9961,6.9618,6.9319,6.9349,6.9558,6.8496,6.7987,6.7958,6.7014,6.5996,6.4904,6.3887,6.3303,6.3108,6.3108,6.3108,6.3108,6.3108,6.3108,6.3108,0.0,0.0,0.0,0.0,0.0,0.0,0.0,0.0,0.0,0.0,0.0,0.0,0.0,0.0,0.0,0.0,0.0,0.0,0.0,0.0,3.1313,3.1221,3.1487,3.1826,3.22,3.2299,3.2362,3.2368,3.2796,3.2995,3.2961,3.3466,3.428,3.5365,3.58,3.6671,3.7875,3.81,3.8677,3.9391,3.9409,3.9634,3.9993,4.0037,0.0,0.0,0.0,0.0,0.0,0.0,0.0,0.0,4.1755,4.1786,4.209,4.3559,4.5005,4.6681,4.9047,5.0896,5.2819,5.5681,5.7804,0.0,6.4275,6.6729,6.8676,7.038,0.0,6.9183,6.9183,6.9678,7.0081,7.0095,7.1621,7.3027,7.3702,7.3343,7.3402,7.4497,7.3612,7.2847,7.2727,7.2176,7.1534,7.0859,7.1444,7.1534,7.0859,7.1457,7.1487,7.0829,7.0829,7.053,6.9917,6.9303,6.8974,6.8884,6.8271,6.8271,6.8794,6.8241,6.7958,6.7822,6.649,6.5577,6.4934,6.4216,6.3602,6.3108,6.3108,6.3108,6.3108,6.3108,6.3108,6.3108,0.0,0.0,0.0,0.0,0.0,0.0,0.0,0.0,0.0,0.0,0.0,0.0,0.0,0.0,0.0,0.0,0.0,0.0,0.0,0.0,3.1127,3.1426,3.1854,3.2173,3.2345,3.2172,3.2388,3.3003,3.2601,3.2717,3.3297,3.356,3.417,3.5066,3.618,3.6978,3.7553,3.8121,3.8745,3.94,3.9571,3.9687,3.9812,4.0235,4.047,0.0,0.0,0.0,0.0,0.0,0.0,0.0,4.2901,4.3249,4.3327,4.3673,4.5122,4.6995,4.8584,5.0296,0.0,5.6899,6.1197,6.4784,6.6236,6.8122,6.9528,6.9423,6.9991,7.05,7.05,7.062,7.0859,7.1398,7.1816,7.2355,7.3027,7.3462,7.3402,7.2641,7.2744,7.2488,7.1427,7.1188,7.0859,7.0247,7.0769,7.0859,7.0217,7.0769,7.0829,7.0217,7.0187,6.9887,6.9213,6.9064,6.875,6.8211,6.8077,6.7792,6.7448,6.7822,6.7703,6.7134,6.5787,6.5144,6.4904,6.3782,6.3227,6.3108,6.3108,6.3108,6.3108,6.3108,6.3108,6.3108,0.0,0.0,0.0,0.0,0.0,0.0,0.0,0.0,0.0,0.0,0.0,0.0,0.0,0.0,0.0,0.0,0.0,0.0,0.0,0.0,3.1057,3.1608,3.1664,3.1924,3.2481,3.2545,3.2689,3.2953,3.3042,3.3236,3.3543,3.376,3.4332,3.5263,3.6071,3.691,3.7765,3.8207,3.8843,3.9553,3.9661,3.9865,4.01,4.0379,0.0,0.0,0.0,0.0,0.0,0.0,0.0,0.0,0.0,0.0,4.3932,4.511,4.6177,4.7561,5.0446,5.2372,0.0,5.9816,0.0,6.634,6.7657,6.8764,6.9618,6.9871,7.044,7.0889,7.0889,7.1158,7.1398,7.1414,7.1683,7.2013,7.2355,7.2445,7.2445,7.2385,7.2116,7.1787,7.1427,7.1098,7.0769,7.044,7.0709,7.0649,7.0037,7.0306,7.0187,6.9558,6.9512,6.9199,6.8541,6.8511,6.8181,6.7523,6.7523,6.7164,6.655,6.7224,6.7164,6.646,6.5458,6.4815,6.4441,6.3482,6.3108,6.3108,6.3108,6.3108,6.3108,6.3108,6.3108,6.3108,0.0,0.0,0.0,0.0,0.0,0.0,0.0,0.0,0.0,0.0,0.0,0.0,0.0,0.0,0.0,0.0,0.0,0.0,0.0,0.0,0.0,3.1652,3.1505,3.182,3.2672,3.3086,3.3238,3.3123,3.3739,0.0,0.0,0.0,3.4625,3.5501,3.5815,3.6644,3.7847,3.8028,3.8661,3.9533,3.9595,3.9973,4.0522,0.0,0.0,0.0,0.0,0.0,0.0,0.0,0.0,0.0,0.0,0.0,4.448,4.6739,4.7384,4.8338,5.2663,5.5294,5.8025,6.2947,6.5173,0.0,6.8286,6.8914,6.9423,7.038,7.0739,7.0889,7.0889,7.1278,7.1414,7.0979,7.1188,7.1474,7.1713,7.1248,7.1308,7.2428,7.1697,7.1248,7.1683,7.1128,7.0709,7.059,7.056,7.029,6.9678,6.9768,6.9468,6.8675,6.8645,6.8286,6.7493,6.7583,6.7373,6.6835,6.6835,6.655,6.5996,6.646,6.634,6.5787,6.5129,6.45,6.3947,6.3333,6.3108,6.3108,6.3108,6.3108,6.3108,6.3108,6.3108,6.3108,0.0,0.0,0.0,0.0,0.0,0.0,0.0,0.0,0.0,0.0,0.0,0.0,0.0,0.0,0.0,0.0,0.0,0.0,0.0,0.0,0.0,3.1215,3.2148,3.28,3.3111,3.3458,3.4043,3.4879,0.0,0.0,0.0,0.0,0.0,3.5032,0.0,3.6373,3.6729,3.6859,3.7673,3.8857,3.9139,3.9763,0.0,0.0,0.0,0.0,0.0,0.0,0.0,0.0,4.3987,0.0,0.0,0.0,4.5608,4.6997,4.7945,4.9298,5.2652,5.7211,6.164,6.4228,6.5877,6.6954,0.0,0.0,6.9738,6.9333,7.0141,7.0889,7.0889,7.0546,7.0396,7.0829,7.0051,6.9782,7.0889,7.0949,7.0979,7.1158,7.1517,7.1577,7.1068,7.0486,6.9887,6.9303,6.9243,6.8944,6.8317,6.881,6.8555,6.7313,6.7284,6.667,6.5428,6.5966,6.6221,6.6116,6.6116,6.6101,6.5966,6.5488,6.5218,6.5099,6.4411,6.4066,6.3947,6.3333,6.3108,6.3108,6.3108,6.3108,6.3108,6.3108,6.3108,6.3108,0.0,0.0,0.0,0.0,0.0,0.0,0.0,0.0,0.0,0.0,0.0,0.0,0.0,0.0,0.0,0.0,0.0,0.0,0.0,0.0,0.0,3.2724,3.2704,3.2975,3.363,3.3881,3.4185,3.4626,0.0,0.0,0.0,3.5679,3.543,0.0,0.0,0.0,0.0,0.0,3.7364,3.8483,3.9103,3.983,0.0,0.0,0.0,0.0,0.0,0.0,0.0,0.0,0.0,4.4985,4.5767,0.0,0.0,0.0,4.8181,4.9616,5.4142,5.8235,6.1849,6.4379,6.5996,6.7194,6.7956,6.8794,6.9542,6.9991,7.0231,7.0396,7.0396,7.0187,7.0097,7.0366,6.9602,6.9333,7.026,7.0396,7.026,6.9871,7.0426,7.0726,7.0426,7.0157,6.9887,6.9572,6.9558,6.9109,6.8047,6.7912,6.7448,6.646,6.6071,6.5607,6.4994,6.5667,6.5996,6.5996,6.5996,6.5607,6.4874,6.456,6.4441,6.4411,6.4126,6.3797,6.3482,6.3213,6.3108,6.3108,6.3108,6.3108,6.3108,6.3108,6.3108,6.3108,0.0,0.0,0.0,0.0,0.0,0.0,0.0,0.0,0.0,0.0,0.0,0.0,0.0,0.0,0.0,0.0,0.0,0.0,0.0,0.0,0.0,3.3765,3.3236,3.3294,3.4042,3.438,3.4528,0.0,0.0,0.0,3.6293,3.6293,3.6122,0.0,3.5778,0.0,0.0,0.0,0.0,0.0,0.0,0.0,0.0,0.0,0.0,0.0,0.0,0.0,0.0,0.0,0.0,0.0,0.0,0.0,0.0,0.0,0.0,5.0138,5.4806,5.7903,6.0502,6.3399,6.5233,6.6701,6.8151,6.8764,6.9273,7.0231,7.0187,6.9887,6.9558,6.9618,6.9738,6.9738,6.9034,6.8794,6.9618,6.9588,6.9379,6.9034,6.9439,6.9738,6.9738,6.9588,6.9498,6.9498,6.9319,6.872,6.7553,6.7014,6.637,6.5533,6.5009,6.4665,6.453,6.5159,6.5592,6.5727,6.5577,6.4964,6.4006,6.3827,6.3767,6.3767,6.3767,6.3512,6.3108,6.3108,6.3108,6.3108,6.3108,6.3108,6.3108,6.3108,6.3108,6.3108,0.0,0.0,0.0,0.0,0.0,0.0,0.0,0.0,0.0,0.0,0.0,0.0,0.0,0.0,3.2086,3.2666,3.2427,3.2537,3.3252,3.3618,3.3614,3.3077,3.3714,0.0,3.4181,3.5004,3.5443,0.0,0.0,0.0,3.6468,3.6468,3.686,3.7566,3.7366,3.743,3.7677,0.0,0.0,0.0,0.0,0.0,0.0,0.0,0.0,0.0,0.0,0.0,0.0,0.0,0.0,0.0,0.0,0.0,0.0,0.0,0.0,0.0,5.3483,5.5553,5.7844,6.0912,6.3136,6.4989,6.6701,6.8076,6.9034,6.9093,6.9572,6.9618,6.8347,6.863,6.9064,6.9064,6.7956,6.7567,6.8884,6.8511,6.8331,6.8944,6.9034,6.9064,6.9064,6.8481,6.8107,6.8107,6.7523,6.6849,6.6131,6.6056,6.5443,6.4156,6.4066,6.3782,6.3183,6.3797,6.4411,6.5024,6.4425,6.4066,6.3977,6.3393,6.3168,6.3168,6.3168,6.3123,6.3108,6.3108,6.3108,6.3108,6.3108,6.3108,6.3108,6.3108,6.3108,6.3108,0.0,0.0,0.0,0.0,0.0,0.0,0.0,0.0,0.0,0.0,0.0,0.0,0.0,3.2625,3.2746,3.3224,3.3245,3.3322,3.3584,3.3857,3.4123,3.4397,3.4691,3.4883,3.5034,3.5329,0.0,0.0,0.0,3.605,3.7075,3.7075,3.7777,3.8943,3.8,3.7775,3.8099,3.8166,0.0,0.0,0.0,0.0,0.0,0.0,0.0,0.0,0.0,0.0,0.0,0.0,0.0,0.0,0.0,0.0,0.0,0.0,0.0,5.0934,5.2599,5.4229,5.6125,5.9097,6.1497,6.3541,6.521,6.6688,6.7837,6.8271,6.8541,6.8586,6.8107,6.8181,6.8361,6.8361,6.7583,6.7313,6.8241,6.8151,6.7928,6.7732,6.8092,6.8361,6.8361,6.8122,6.7987,6.7987,6.7778,6.7164,6.6056,6.5577,6.4949,6.4036,6.3617,6.3512,6.3692,6.3887,6.4126,6.4351,6.4126,6.3797,6.3422,6.3183,6.3108,6.3108,6.3108,6.3108,6.3108,6.3108,6.3108,6.3108,6.3108,6.3108,6.3108,6.3108,6.3108,6.3108,0.0,0.0,0.0,0.0,0.0,0.0,0.0,0.0,0.0,0.0,0.0,0.0,0.0,0.0,3.3105,3.3891,3.4372,3.4732,3.5013,3.5166,3.548,3.6018,3.579,3.5695,3.5818,3.5666,0.0,0.0,0.0,0.0,0.0,3.7391,3.8194,3.9449,3.8767,3.8662,0.0,0.0,0.0,4.0028,0.0,0.0,4.2005,0.0,0.0,0.0,0.0,0.0,0.0,0.0,0.0,0.0,0.0,0.0,0.0,0.0,0.0,0.0,5.1404,0.0,5.4271,5.7016,5.9361,6.1605,6.3813,6.5243,6.6432,6.7449,6.7643,6.7643,6.7643,6.7463,6.7403,6.7628,6.7284,6.7164,6.7583,6.7643,6.7493,6.7044,6.7373,6.7643,6.7643,6.7643,6.7643,6.7643,6.7643,6.7074,6.5727,6.5233,6.459,6.3722,6.3303,6.3273,6.3677,6.3692,6.3692,6.3692,6.3692,6.3482,6.3108,6.3108,6.3108,6.3108,6.3108,6.3108,6.3108,6.3108,6.3108,6.3108,6.3108,6.3213,6.3393,6.3393,6.3393,6.3393,0.0,0.0,0.0,0.0,0.0,0.0,0.0,0.0,0.0,0.0,0.0,0.0,0.0,0.0,0.0,3.4631,3.5789,3.6788,3.7635,3.7682,3.7682,3.7682,3.6928,3.6523,3.6532,3.6006,0.0,0.0,0.0,0.0,0.0,0.0,3.818,3.9061,3.9725,4.0191,4.0562,0.0,4.1916,4.2416,0.0,4.2783,4.3559,0.0,0.0,0.0,4.674,4.7394,0.0,0.0,0.0,0.0,0.0,0.0,0.0,0.0,0.0,0.0,0.0,0.0,0.0,5.4592,5.669,5.907,6.2461,6.3736,6.4733,6.6506,6.6864,6.6894,6.6939,6.643,6.6221,6.6819,6.6954,6.6969,6.6969,6.6984,6.6984,6.6969,6.6984,6.7014,6.7014,6.7014,6.7014,6.7014,6.6969,6.64,6.5084,6.4964,6.4381,6.3138,6.3108,6.3108,6.3108,6.3108,6.3108,6.3108,6.3108,6.3108,6.3108,6.3108,6.3108,6.3108,6.3108,6.3108,6.3108,6.3108,6.3108,6.3108,6.3108,6.3452,6.3977,6.3977,6.3977,6.4006,0.0,0.0,0.0,0.0,0.0,0.0,0.0,0.0,0.0,0.0,0.0,0.0,0.0,0.0,3.572,3.6441,3.6747,3.7002,3.7262,3.7271,3.7271,3.7271,3.7195,3.7225,3.736,3.674,3.6498,0.0,3.6216,3.6564,3.7642,3.7832,0.0,0.0,4.0139,4.047,4.097,4.1501,0.0,0.0,4.3124,4.3892,0.0,0.0,0.0,0.0,0.0,4.7989,0.0,0.0,4.9729,5.1367,0.0,0.0,0.0,0.0,0.0,0.0,4.8944,0.0,0.0,0.0,0.0,0.0,5.8701,5.972,6.0817,6.3245,6.3987,6.447,6.5368,6.5787,6.5906,6.5607,6.5966,6.6281,6.6281,6.67,6.6819,6.634,6.67,6.7014,6.7014,6.7014,6.7014,6.7014,6.655,6.5906,6.5054,6.4126,6.3452,6.3108,6.3108,6.3108,6.3108,6.3108,6.3108,6.3108,6.3108,6.3108,6.3108,6.3108,6.3108,6.3108,6.3108,6.3108,6.3108,6.3108,6.3108,6.3108,6.3108,6.3183,6.3333,6.3333,6.3632,6.4006,0.0,0.0,0.0,0.0,0.0,0.0,0.0,0.0,0.0,0.0,0.0,0.0,0.0,0.0,0.0,3.7807,3.7653,3.7655,3.804,3.807,3.807,3.807,3.7973,3.7987,3.812,3.7609,3.7417,3.754,3.7209,3.7406,3.8124,3.839,0.0,0.0,0.0,0.0,0.0,0.0,0.0,0.0,4.4223,0.0,0.0,4.6497,4.7077,0.0,0.0,0.0,5.1924,5.0395,5.1296,0.0,0.0,0.0,0.0,0.0,0.0,0.0,0.0,0.0,0.0,0.0,0.0,0.0,5.7322,5.811,5.9114,6.2148,6.2939,6.3482,6.477,6.5099,6.5129,6.5024,6.5099,6.5248,6.5547,6.64,6.6759,6.6071,6.658,6.6894,6.661,6.658,6.646,6.6191,6.5787,6.5278,6.462,6.3632,6.3108,6.3108,6.3108,6.3108,6.3108,6.3108,6.3108,6.3108,6.3108,6.3108,6.3108,6.3108,6.3108,6.3108,6.3108,6.3108,6.3108,6.3108,6.3108,6.3108,6.3108,6.3243,6.3512,6.3797,6.4126,6.4411,0.0,0.0,0.0,0.0,0.0,0.0,0.0,0.0,0.0,0.0,0.0,0.0,0.0,0.0,0.0,0.0,3.8456,3.854,3.9325,3.9382,3.9391,3.9391,3.9036,3.8866,3.8892,3.8551,3.8399,3.8416,3.8495,0.0,0.0,0.0,0.0,0.0,0.0,0.0,0.0,0.0,0.0,4.493,4.5754,4.7181,0.0,0.0,5.0039,0.0,5.1473,5.2939,5.4732,5.2453,5.2161,0.0,0.0,0.0,0.0,0.0,4.9006,0.0,0.0,0.0,0.0,0.0,0.0,0.0,5.7089,5.7583,5.8317,6.1761,6.246,6.2881,6.4185,6.4019,6.3868,6.4393,6.4199,6.4215,6.4919,6.6101,6.667,6.6056,6.652,6.664,6.6056,6.5936,6.5637,6.5054,6.4934,6.459,6.3947,6.3393,6.3108,6.3108,6.3108,6.3108,6.3108,6.3108,6.3108,6.3108,6.3108,6.3108,6.3108,6.3108,6.3108,6.3108,6.3108,6.3108,6.3108,6.3108,6.3108,6.3108,6.3108,6.3422,6.3977,6.456,6.4874,6.4994,0.0,0.0,0.0,0.0,0.0,0.0,0.0,0.0,0.0,0.0,0.0,0.0,0.0,0.0,0.0,0.0,3.9064,3.898,3.9135,3.931,3.9391,3.9391,3.9611,3.9825,3.9982,3.9341,3.9106,3.928,3.876,0.0,0.0,0.0,0.0,0.0,0.0,0.0,0.0,0.0,0.0,4.6078,4.8219,0.0,5.0746,5.0725,5.0661,5.0717,5.1643,5.2963,5.4295,0.0,5.3955,5.2886,0.0,0.0,0.0,0.0,0.0,0.0,0.0,0.0,0.0,0.0,0.0,0.0,5.4498,5.4406,5.4807,5.7798,5.8524,5.9054,6.0596,6.1402,6.1703,6.1264,6.2698,6.411,6.4874,6.5697,6.6161,6.6011,6.6131,6.6131,6.5996,6.5518,6.5144,6.5024,6.45,6.3917,6.3303,6.3153,6.3108,6.3108,6.3108,6.3108,6.3108,6.3108,6.3108,6.3108,6.3108,6.3108,6.3108,6.3108,6.3108,6.3108,6.3108,6.3108,6.3108,6.3108,6.3108,6.3108,6.3108,6.3168,6.3273,6.3422,6.4126,6.4994,0.0,0.0,0.0,0.0,0.0,0.0,0.0,0.0,0.0,0.0,0.0,0.0,0.0,0.0,0.0,0.0,0.0,0.0,0.0,3.9589,3.9838,4.017,4.0488,4.0854,4.1288,4.0703,4.0444,4.0562,4.0223,0.0,0.0,0.0,0.0,0.0,0.0,0.0,0.0,0.0,4.7786,4.929,4.9256,0.0,5.1113,5.1216,5.1653,5.2312,5.3324,5.4485,5.5528,5.5473,5.5281,0.0,0.0,5.3105,5.3212,0.0,5.1483,5.1139,0.0,0.0,0.0,5.2516,0.0,0.0,0.0,5.38,5.4079,5.6307,5.6881,5.7346,5.8498,5.9474,5.9992,5.9657,6.1318,6.2718,6.2939,6.4693,6.5877,6.5547,6.5518,6.5368,6.5024,6.471,6.4381,6.4066,6.3737,6.3422,6.3108,6.3108,6.3108,6.3108,6.3108,6.3108,6.3108,6.3108,6.3108,6.3108,6.3108,6.3108,6.3108,6.3108,6.3108,6.3108,6.3108,6.3108,6.3108,6.3108,6.3108,6.3108,6.3108,6.3108,6.3138,6.3452,6.4156,6.4994,0.0,0.0,0.0,0.0,0.0,0.0,0.0,0.0,0.0,3.9693,0.0,0.0,0.0,0.0,0.0,0.0,0.0,0.0,0.0,0.0,4.0618,4.1164,4.143,4.1792,4.2307,4.1958,4.1801,4.1801,4.1801,4.1819,0.0,0.0,0.0,0.0,0.0,0.0,0.0,0.0,0.0,5.1902,0.0,5.0428,5.1891,5.2188,5.323,5.4628,5.5307,5.6239,5.6958,5.6004,0.0,5.6651,5.3662,5.4082,0.0,0.0,0.0,0.0,0.0,0.0,0.0,0.0,0.0,5.3304,0.0,0.0,0.0,5.5478,5.5864,5.6116,5.6722,5.7503,5.8085,5.8085,5.959,6.0661,6.0329,6.2799,6.4588,6.4408,6.4649,6.4515,6.378,6.357,6.3406,6.3108,6.2911,6.2881,6.3108,6.3108,6.3108,6.3108,6.3108,6.3108,6.3108,6.3108,6.3108,6.3108,6.3108,6.3108,6.3108,6.3108,6.3108,6.3108,6.3108,6.3108,6.3108,6.3108,6.3108,6.3108,6.3108,6.3108,6.3168,6.3662,6.4321,6.4964,0.0,0.0,0.0,0.0,0.0,0.0,0.0,0.0,4.1627,4.1202,4.2031,0.0,0.0,0.0,0.0,0.0,0.0,0.0,4.3193,0.0,0.0,4.1893,4.2251,4.2391,4.2307,4.241,4.25,4.25,4.25,4.2591,0.0,0.0,0.0,0.0,4.4052,0.0,0.0,0.0,4.9636,0.0,5.2228,5.3758,0.0,5.6053,5.609,5.5818,5.6603,5.6974,5.7103,0.0,5.7049,5.6675,0.0,5.6223,0.0,0.0,0.0,0.0,0.0,0.0,0.0,0.0,5.4014,0.0,0.0,0.0,5.303,5.4037,0.0,5.4014,5.4346,0.0,0.0,5.517,5.6831,5.8114,5.8077,5.9018,6.0331,6.2039,6.3337,6.3735,6.2762,6.2114,6.2136,6.3032,6.2228,6.2106,6.3062,6.3108,6.3108,6.3108,6.3108,6.3108,6.3108,6.3108,6.3108,6.3108,6.3108,6.3108,6.3108,6.3108,6.3108,6.3108,6.3108,6.3108,6.3108,6.3108,6.3108,6.3108,6.3108,6.3108,6.3108,6.3197,6.3977,6.4904,0.0,0.0,0.0,0.0,0.0,0.0,0.0,0.0,4.1499,4.2067,4.2778,0.0,0.0,0.0,0.0,0.0,0.0,4.3048,0.0,0.0,0.0,0.0,0.0,0.0,4.3638,4.3565,4.347,4.3352,4.3352,4.3461,4.3683,0.0,0.0,0.0,4.5703,0.0,4.8934,0.0,5.0961,0.0,0.0,0.0,0.0,5.6268,5.6476,5.723,5.7549,5.7932,5.8095,0.0,5.7045,0.0,0.0,0.0,0.0,0.0,0.0,0.0,0.0,0.0,0.0,0.0,0.0,0.0,5.4509,0.0,5.3337,0.0,0.0,0.0,0.0,0.0,0.0,0.0,5.4891,5.5985,5.5306,5.6402,5.7992,5.9914,6.0674,6.1278,6.1869,6.188,6.2039,6.2509,6.2115,6.2039,6.2509,6.2884,6.3108,6.3108,6.3108,6.3108,6.3108,6.3108,6.3108,6.3108,6.3108,6.3108,6.3108,6.3108,6.3108,6.3108,6.3108,6.3108,6.3108,6.3108,6.3108,6.3123,6.3482,6.3393,6.3183,6.3917,6.453,6.5024,0.0,0.0,0.0,0.0,0.0,0.0,0.0,0.0,0.0,0.0,0.0,0.0,4.4737,4.4854,0.0,0.0,0.0,4.5384,0.0,0.0,4.4237,0.0,0.0,0.0,0.0,0.0,4.4413,4.4266,4.4452,4.4625,4.485,0.0,0.0,0.0,0.0,4.8687,5.0638,0.0,5.2686,5.4656,5.6268,5.7407,5.797,5.6703,5.7092,5.8354,5.8354,5.8697,5.8903,5.7558,5.7518,0.0,5.7179,0.0,0.0,0.0,0.0,0.0,5.5883,0.0,0.0,0.0,0.0,0.0,0.0,0.0,0.0,0.0,0.0,0.0,0.0,0.0,0.0,0.0,0.0,5.3549,5.2421,5.3535,5.5237,5.7481,5.8011,5.8772,6.0269,6.0571,6.0865,6.1336,6.1216,6.1397,6.2076,6.2555,6.2914,6.3093,6.3108,6.3108,6.3108,6.3108,6.3108,6.3108,6.3108,6.3108,6.3108,6.3108,6.3108,6.3108,6.3108,6.3108,6.3108,6.3108,6.3183,6.3393,6.4036,6.4006,6.3737,6.465,6.5114,6.5338,0.0,3.8086,0.0,0.0,0.0,0.0,0.0,0.0,0.0,0.0,0.0,0.0,0.0,0.0,0.0,0.0,0.0,5.0783,5.0411,0.0,4.66,0.0,0.0,0.0,0.0,0.0,0.0,4.5176,4.5818,4.6234,4.6441,0.0,0.0,0.0,0.0,5.0953,5.3852,5.388,5.4655,5.5929,5.7027,5.7745,5.8145,0.0,5.8893,5.9069,5.9069,0.0,0.0,5.9319,5.8991,5.8518,5.8737,0.0,0.0,0.0,0.0,0.0,0.0,0.0,0.0,5.597,0.0,0.0,0.0,0.0,5.339,0.0,0.0,0.0,0.0,0.0,0.0,0.0,0.0,0.0,0.0,4.9878,5.1343,5.4459,5.5753,5.6711,5.754,5.7298,5.7759,5.9456,5.8964,5.9639,6.1986,6.2121,6.2435,6.3078,6.3108,6.3108,6.3108,6.3108,6.3108,6.3108,6.3108,6.3108,6.3108,6.3108,6.3108,6.3108,6.3108,6.3108,6.3108,6.3108,6.3452,6.4036,6.471,6.4964,6.4934,6.4994,6.5428,6.5877,0.0,0.0,0.0,0.0,0.0,0.0,0.0,4.2914,0.0,0.0,0.0,0.0,0.0,0.0,5.3918,0.0,0.0,5.2641,5.2544,5.0289,0.0,0.0,0.0,4.6823,0.0,0.0,0.0,0.0,0.0,0.0,4.7426,4.8081,0.0,0.0,0.0,5.2078,0.0,0.0,0.0,0.0,0.0,5.8894,5.9025,0.0,5.9051,5.9099,5.9099,5.9099,5.9113,5.9194,5.8891,5.8633,5.9426,5.9285,5.884,5.9238,5.9436,5.9325,5.8477,5.9121,5.9623,5.7953,0.0,0.0,0.0,0.0,0.0,0.0,0.0,0.0,0.0,0.0,0.0,0.0,0.0,0.0,0.0,4.963,5.0153,5.0617,5.2952,5.4849,5.569,5.6184,5.6925,5.8091,5.8637,5.9463,6.0699,6.1627,6.2181,6.2435,6.2868,6.3108,6.3108,6.3108,6.3108,6.3108,6.3108,6.3108,6.3108,6.3108,6.3108,6.3108,6.3108,6.3108,6.3108,6.3108,6.3452,6.4066,6.474,6.5263,6.5727,6.6161,6.6191,6.5981,3.8843,0.0,0.0,0.0,0.0,0.0,0.0,0.0,0.0,0.0,5.0507,0.0,5.5139,0.0,5.6527,0.0,5.6528,5.5413,5.4424,5.31,0.0,5.0648,4.9843,0.0,0.0,0.0,0.0,0.0,0.0,4.8974,4.9131,4.9659,0.0,0.0,0.0,5.3627,5.5845,5.6518,5.7131,0.0,0.0,5.9729,0.0,0.0,5.9572,5.9221,5.9126,5.9099,5.9099,5.9099,5.9087,5.9208,5.9886,5.9913,5.9771,6.0302,6.045,6.0276,5.9619,6.0335,6.0837,5.9148,5.9091,0.0,5.7183,0.0,0.0,0.0,0.0,0.0,0.0,0.0,0.0,0.0,0.0,0.0,0.0,4.8397,4.8667,4.8618,5.0797,5.2781,5.3965,5.4164,5.502,5.6994,5.7494,5.8291,5.9668,6.1014,6.1852,6.2091,6.2734,6.3108,6.3108,6.3108,6.3108,6.3108,6.3108,6.3108,6.3108,6.3108,6.3108,6.3108,6.3108,6.3108,6.3108,6.3333,6.3782,6.4411,6.5099,6.5757,6.64,6.6819,6.6729,6.637,0.0,0.0,0.0,0.0,4.072,0.0,0.0,0.0,4.8111,0.0,5.1956,5.3873,5.5933,5.7308,5.8399,5.924,5.9851,0.0,5.6327,5.6617,0.0,0.0,5.3077,5.3089,5.2129,0.0,0.0,0.0,0.0,0.0,5.1359,5.2007,5.2974,0.0,5.4577,0.0,5.6892,5.8344,5.8678,5.8354,5.9668,6.0204,6.0234,6.0864,6.0491,5.9566,5.9283,5.9189,5.9159,5.9189,5.9608,6.016,6.019,6.0625,6.115,6.118,6.1642,6.1866,6.0579,6.0909,6.1214,5.9632,5.9421,5.9182,0.0,0.0,5.7197,0.0,0.0,0.0,0.0,0.0,0.0,0.0,0.0,0.0,0.0,0.0,4.6888,4.8364,4.931,5.0527,0.0,5.1331,5.2193,5.6025,5.5588,5.6286,5.8919,6.0282,6.1329,6.2032,6.2734,6.3108,6.3108,6.3108,6.3108,6.3108,6.3108,6.3108,6.3108,6.3108,6.3108,6.3108,6.3108,6.3108,6.3168,6.3737,6.4411,6.5054,6.5727,6.64,6.7014,6.7014,6.7014,6.7014,4.0797,4.1731,4.2557,0.0,4.4057,4.4997,0.0,0.0,0.0,0.0,5.5936,5.8393,6.0954,6.1533,6.1824,6.203,6.1785,0.0,0.0,0.0,0.0,5.7277,5.6093,5.5725,5.6236,5.4969,0.0,5.3565,0.0,0.0,5.2121,5.2442,5.3404,5.486,0.0,5.6451,5.8262,5.9227,5.9915,6.0402,6.1253,6.1423,6.114,6.1114,6.1031,6.0965,6.0692,6.0266,5.9921,6.0416,6.0701,6.0924,6.1433,6.1702,6.1942,6.2435,6.2704,6.2764,6.2405,6.2522,6.246,6.1551,6.101,6.0439,5.9545,5.8949,0.0,0.0,0.0,0.0,0.0,0.0,0.0,0.0,0.0,0.0,0.0,0.0,0.0,4.7742,0.0,0.0,4.9755,5.0347,5.1509,5.3663,5.4204,5.5585,5.8218,5.9145,6.0133,6.1299,6.2495,6.3108,6.3108,6.3108,6.3108,6.3108,6.3108,6.3108,6.3108,6.3108,6.3108,6.3108,6.3108,6.3108,6.3168,6.3737,6.4411,6.5054,6.5727,6.64,6.7014,6.7014,6.7014,6.7014,4.2042,0.0,0.0,4.5904,0.0,0.0,4.8158,5.0234,0.0,5.5551,5.785,0.0,6.1897,6.2697,6.3108,6.3108,6.2734,0.0,0.0,0.0,0.0,5.9439,5.8993,5.8791,5.881,5.7345,0.0,5.5774,0.0,0.0,5.3464,5.3783,5.4296,5.5011,0.0,5.6866,5.8324,5.931,6.0477,6.1721,6.1685,6.1711,0.0,6.1923,6.1711,6.1387,6.1819,6.1343,6.0595,6.097,6.1299,6.1613,6.1972,6.2315,6.2614,6.2988,6.3108,6.3108,6.3108,6.3108,6.3003,6.2644,6.2241,6.1732,6.0745,6.0266,5.9953,5.9953,5.9183,5.8437,5.8284,0.0,0.0,0.0,0.0,0.0,0.0,0.0,0.0,0.0,4.7651,4.787,4.8895,4.9109,5.0148,5.2587,5.2828,5.391,5.6273,5.8098,5.9578,6.0625,6.248,6.3363,6.3108,6.3363,6.3363,6.3108,6.3108,6.3108,6.3108,6.3108,6.3108,6.3108,6.3108,6.3108,6.3168,6.3737,6.4411,6.5084,6.6056,6.667,6.7044,6.7313,6.7254,6.7074,0.0,0.0,0.0,0.0,0.0,0.0,0.0,5.297,0.0,5.7122,0.0,6.0645,6.1152,6.2421,6.3183,6.3108,0.0,6.256,6.1305,6.2406,6.2274,6.0429,6.1567,6.1687,6.0519,5.9234,0.0,0.0,0.0,0.0,5.4824,5.5336,5.534,5.4936,5.6098,0.0,0.0,5.907,6.062,6.213,6.1487,6.1628,6.2301,6.2884,6.2375,6.1509,6.2674,6.2301,6.1239,6.1329,6.1762,6.2225,6.2225,6.2614,6.3108,6.3108,6.3108,6.3108,6.3108,6.3108,6.3108,6.3108,6.3108,6.2794,6.1642,6.1359,6.1359,6.1359,5.9788,5.9272,6.2106,5.7086,0.0,0.0,0.0,0.0,0.0,0.0,0.0,0.0,0.0,0.0,4.9006,4.8098,4.8856,5.2099,5.1555,5.2007,5.4139,5.7077,5.9129,6.007,6.248,6.3617,6.3363,6.3707,6.3707,6.3333,6.3197,6.3108,6.3108,6.3108,6.3123,6.3227,6.3227,6.3273,6.3393,6.4006,6.4665,6.5398,6.655,6.7044,6.7194,6.7808,6.7673,6.7433,0.0,0.0,0.0,0.0,0.0,5.6568,5.8469,6.0119,6.105,6.0876,6.3181,6.4522,6.3523,6.3676,6.3632,6.3123,6.3108,0.0,0.0,0.0,0.0,6.3269,6.3047,6.2794,6.2584,6.1143,5.9914,0.0,0.0,0.0,5.4834,5.5675,5.579,5.5346,5.6649,0.0,5.7729,5.9553,6.0404,6.0618,6.1551,6.2345,6.2944,6.3048,6.2944,6.2764,6.3018,6.2584,6.2002,6.2555,6.2824,6.2914,6.2914,6.3018,6.3108,6.3108,6.3108,6.3108,6.3108,6.3108,6.3108,6.3108,6.3108,6.3048,6.2794,6.2734,6.2734,6.2734,6.2436,6.1731,6.0363,5.6822,0.0,0.0,0.0,0.0,0.0,0.0,0.0,0.0,0.0,4.9696,0.0,4.8831,4.9344,5.0846,5.0597,5.1569,5.4295,5.5862,5.7736,6.004,6.1627,6.3169,6.465,6.3722,6.3722,6.465,6.3602,6.3108,6.3108,6.3108,6.3363,6.3827,6.3827,6.4156,6.471,6.5368,6.6026,6.667,6.6909,6.7343,6.7838,6.7958,6.8271,6.8675,0.0,0.0,0.0,0.0,0.0,0.0,0.0,6.5231,6.5812,6.3599,6.4616,6.5118,6.4023,6.4587,6.4784,6.4156,6.4096,6.4216,6.45,6.4231,6.4066,6.4006,6.3722,0.0,6.3108,6.1383,6.0004,5.9049,0.0,0.0,0.0,5.5805,5.6017,5.5422,5.6065,5.6867,5.7755,5.8611,5.9479,6.0412,6.1623,6.2495,6.3108,6.3108,6.3108,6.3108,6.3108,6.2884,6.2674,6.2988,6.3108,6.3108,6.3108,6.3108,6.3108,6.3108,6.3108,6.3108,6.3108,6.3108,6.3108,6.3108,6.3108,6.3108,6.3108,6.3108,6.3108,6.3108,6.3108,6.2356,5.995,5.7531,5.5369,0.0,0.0,0.0,0.0,0.0,0.0,0.0,0.0,0.0,0.0,0.0,4.8826,4.9208,4.9334,5.0372,5.2684,5.4283,5.6539,5.9488,6.1224,6.272,6.4006,6.3722,6.3857,6.447,6.3542,6.3452,6.4066,6.3722,6.3917,6.453,6.453,6.471,6.5054,6.5727,6.6191,6.655,6.7254,6.7718,6.8077,6.8796,6.9229,6.9528,0.0,5.5563,0.0,0.0,6.2096,6.4552,6.6497,6.8979,6.9431,6.6114,6.5942,6.5789,6.4799,6.5712,6.6161,6.5473,6.5428,6.5428,6.5428,6.5308,6.4979,6.4455,6.4156,6.3782,6.3303,6.1477,5.9995,0.0,0.0,0.0,5.4697,5.5691,5.5787,5.5181,5.5761,5.6543,5.7492,5.7993,5.9141,6.0702,6.1697,6.2495,6.3108,6.3108,6.3108,6.3108,6.3108,6.3108,6.3108,6.3108,6.3108,6.3108,6.3108,6.3108,6.3108,6.3108,6.3108,6.3108,6.3108,6.3108,6.3108,6.3108,6.3108,6.3108,6.3108,6.3108,6.3108,6.3108,6.3108,6.2416,6.0131,5.8913,5.7771,5.6382,0.0,0.0,0.0,0.0,0.0,0.0,0.0,0.0,5.1103,4.9614,4.8502,4.7963,4.8354,4.9414,5.1249,5.2893,5.5261,5.8496,6.0448,6.1957,6.2977,6.3648,6.4126,6.4425,6.3662,6.3887,6.4964,6.4291,6.4441,6.5203,6.5203,6.5308,6.5458,6.5996,6.6311,6.652,6.7583,6.8167,6.8556,6.9618,7.0067,7.0187,0.0,0.0,0.0,0.0,0.0,6.8558,6.9014,7.1079,7.1653,6.8947,6.9158,6.9054,6.775,6.7749,6.7523,6.6879,6.6819,6.6819,6.6819,6.6236,6.5877,6.5832,6.4665,6.3977,6.3917,6.26,6.1026,0.0,0.0,5.6808,5.5581,5.5143,5.4776,5.451,5.6947,5.7388,5.6509,5.9131,6.0541,6.1102,6.1806,6.2495,6.3108,6.3108,6.3108,6.3108,6.3108,6.3108,6.3108,6.3108,6.3108,6.3108,6.3108,6.3108,6.3108,6.3108,6.3108,6.3108,6.3108,6.3108,6.3108,6.3108,6.3108,6.3108,6.3108,6.3108,6.3108,6.3108,6.3108,6.255,6.0746,6.1087,6.0881,5.8576,0.0,0.0,0.0,0.0,0.0,0.0,0.0,0.0,0.0,5.0531,4.943,4.7757,4.8246,4.9559,5.1705,5.2184,5.3781,5.6816,5.8516,6.044,6.2628,6.3546,6.4605,6.5787,6.4515,6.4291,6.4964,6.4291,6.4695,6.5906,6.5906,6.6251,6.6835,6.6894,6.7254,6.7838,6.7958,6.8736,6.9828,6.9947,7.0366,7.0829,0.0,0.0,6.5989,6.8223,6.8938,6.9747,7.1278,7.2303,7.2518,7.1471,7.1577,7.1218,6.9887,6.9738,6.9319,6.8286,6.8196,6.8196,6.8196,6.7583,6.7014,6.661,6.5308,6.4411,6.4006,6.275,6.1276,0.0,0.0,0.0,0.0,5.5502,5.5604,5.6334,5.6571,5.7331,5.848,5.9308,6.0213,6.118,6.2285,6.2854,6.3108,6.3108,6.3108,6.3108,6.3108,6.3108,6.3108,6.3108,6.3108,6.3108,6.3108,6.3108,6.3108,6.3108,6.3108,6.3108,6.3108,6.3108,6.3108,6.3108,6.3108,6.3108,6.3108,6.3108,6.3108,6.3108,6.3108,6.2897,6.2187,6.1665,6.1313,6.1283,0.0,0.0,0.0,0.0,0.0,0.0,0.0,0.0,0.0,5.0294,4.9697,5.0154,4.994,5.0122,5.0836,5.1712,5.3664,5.6848,5.7955,5.9912,6.286,6.3619,6.4665,6.5996,6.5039,6.5159,6.6191,6.5503,6.5922,6.7194,6.6759,6.6984,6.7583,6.7583,6.7778,6.8077,6.8886,6.9528,7.0037,7.0426,7.0679,7.0889,7.0045,7.0046,7.046,7.249,7.2207,7.227,7.3938,7.3797,7.3492,7.3492,7.3492,7.2894,7.1368,7.1009,7.053,6.9632,6.9572,6.9393,6.9034,6.8571,6.7912,6.7044,6.5727,0.0,6.4291,6.3063,6.1675,6.017,5.9297,0.0,0.0,5.6876,5.7071,5.7626,5.7312,5.8183,5.9952,5.9981,6.0655,6.1762,6.2734,6.3108,6.3108,6.3108,6.3108,6.3108,6.3108,6.3108,6.3108,6.3108,6.3108,6.3108,6.3108,6.3108,6.3108,6.3108,6.3108,6.3108,6.3108,6.3108,6.3108,6.3108,6.3108,6.3108,6.3108,6.3108,6.3108,6.3108,6.3108,6.3108,6.3108,6.2222,6.1762,6.2672,6.2072,0.0,0.0,6.2225,0.0,0.0,5.6353,5.3718,5.153,5.0407,5.0364,5.1616,5.2049,5.201,5.1491,5.1941,5.3586,5.6588,5.7999,5.9985,6.2649,6.3947,6.5054,6.5996,6.5518,6.5996,6.7284,6.6999,6.7388,6.8271,6.7792,6.7852,6.8271,6.8271,6.8391,6.8676,6.9618,7.0097,7.0336,7.0739,7.0889,7.0889,7.5811,7.6282,7.7197,8.0391,7.8876,7.7212,7.7226,7.5886,7.4886,7.4886,7.4886,7.4108,7.2102,7.1308,7.0889,7.0889,7.0889,7.035,6.9093,6.9004,6.8375,0.0,0.0,6.4994,6.4994,6.3737,6.2435,6.106,0.0,0.0,5.8867,5.941,5.8894,5.7605,5.9857,6.0559,6.0174,6.1507,6.2465,6.3078,6.3108,6.3108,6.3108,6.3108,6.3108,6.3108,6.3108,6.3108,6.3108,6.3108,6.3108,6.3108,6.3108,6.3108,6.3108,6.3108,6.3108,6.3108,6.3108,6.3108,6.3108,6.3108,6.3108,6.3108,6.3108,6.3108,6.3108,6.3108,6.3108,6.3108,6.3108,6.3078,6.2868,6.2225,6.2644,0.0,0.0,6.1539,0.0,0.0,5.631,5.3675,5.0872,5.1387,5.1681,5.1223,5.4276,5.5635,5.4507,5.3008,5.3279,5.5634,5.8546,6.059,6.1721,6.4546,6.5966,6.5996,6.5996,6.67,6.8017,6.866,6.8974,6.9004,6.8974,6.8974,6.9004,6.9004,6.9379,6.9977,6.9977,7.0366,7.0889,7.0889,7.0889,7.0889,7.8005,7.8827,7.9022,7.721,7.7101,7.6931,7.5816,7.5231,7.4886,7.4886,7.4497,7.3988,7.3313,7.2684,7.189,7.0979,7.0889,7.0739,7.032,6.9482,6.8824,6.8375,6.6206,6.4994,6.4994,6.3737,6.2674,6.1792,6.1352,6.0385,5.8902,5.9527,5.9641,5.9324,6.0516,6.1451,6.2165,6.2584,6.2884,6.3108,6.3108,6.3108,6.3108,6.3108,6.3108,6.3108,6.3108,6.3108,6.3108,6.3108,6.3108,6.3108,6.3108,6.3108,6.3108,6.3108,6.3108,6.3108,6.3108,6.3108,6.3108,6.3108,6.3108,6.3108,6.3108,6.3108,6.3108,6.3108,6.3108,6.3108,6.3108,6.3452,6.3647,6.3438,6.3558,6.3647,6.3408,0.0,6.04,5.8461,5.6363,5.4179,5.1928,5.2756,5.3465,5.3531,5.4608,5.4968,5.4338,5.5504,5.6551,5.7308,5.9583,6.2019,6.4621,6.5996,6.7148,6.8046,6.8046,6.8256,6.869,6.8884,6.9243,6.9678,6.9183,6.9243,6.9678,6.9678,6.9798,7.0037,7.044,7.0739,7.0889,7.0889,7.0889,7.0889,8.0654,8.1524,8.1395,7.8187,7.7964,7.7676,7.6049,7.5299,7.4886,7.4886,7.4527,7.4197,7.3911,7.3522,7.2744,7.1398,7.1038,7.0799,7.056,6.9812,6.9153,6.866,6.6789,6.5518,6.5024,6.3977,6.3123,6.2495,6.213,6.1333,6.0109,6.0773,6.1137,6.1268,6.2167,6.275,6.3108,6.3333,6.3303,6.3108,6.3108,6.3108,6.3108,6.3108,6.3108,6.3108,6.3108,6.3108,6.3108,6.3108,6.3108,6.3108,6.3108,6.3108,6.3108,6.3108,6.3108,6.3108,6.3108,6.3108,6.3108,6.3108,6.3108,6.3108,6.3108,6.3108,6.3108,6.3108,6.3108,6.3168,6.3393,6.3752,6.4066,6.4321,6.4156,6.3917,6.3677,0.0,5.9635,0.0,0.0,5.4607,5.254,5.4269,5.5551,5.5551,5.679,5.7209,5.6453,5.7378,5.835,5.9192,6.1658,6.4052,6.634,6.7298,6.8166,6.9004,6.9243,6.9379,6.9363,6.9602,6.9931,7.0306,6.9901,6.9961,7.0336,7.0336,7.0336,7.0396,7.0739,7.0889,7.0889,7.0889,7.0889,7.0889,8.3426,8.4053,8.4062,8.2345,8.0885,7.9405,7.774,7.6216,7.5231,7.5231,7.5129,7.4834,7.4187,7.3996,7.3419,7.2162,7.1368,7.0739,7.0157,7.0007,6.9412,6.8263,6.7375,6.6356,6.5172,6.4394,6.3707,6.3108,6.254,6.2271,6.2241,6.2914,6.3213,6.3227,6.4441,6.4321,6.3183,6.3797,6.3752,6.3227,6.3197,6.3153,6.3168,6.3108,6.3108,6.3108,6.3108,6.3108,6.3108,6.3108,6.3108,6.3108,6.3108,6.3108,6.3108,6.3108,6.3108,6.3108,6.3108,6.3108,6.3108,6.3108,6.3108,6.3108,6.3108,6.3108,6.3108,6.3153,6.3153,6.3333,6.3947,6.4096,6.4336,6.4919,6.447,6.3827,6.3123,6.0878,5.8641,5.6822,5.6315,5.5259,5.3164,5.5995,5.7743,5.7249,6.0146,6.1389,6.0188,5.8839,5.9096,6.1225,6.4411,6.643,6.7194,6.8435,6.9093,6.9153,6.9752,7.0067,7.0067,7.0649,7.0889,7.0889,7.0889,7.0889,7.0889,7.0889,7.0889,7.0889,7.0889,7.0889,7.0889,7.0889,7.0889,7.0889,8.2746,8.3636,8.3715,8.0855,8.1062,8.1077,7.9466,7.8878,7.8628,7.8628,7.7531,7.6687,7.6503,7.4931,7.3762,7.3432,7.2372,7.1593,7.1474,7.0067,6.9599,7.0401,6.7729,6.6385,6.6678,6.4918,6.3707,6.3108,6.3917,6.4052,6.3558,6.4231,6.4276,6.3827,6.465,6.456,6.3827,6.45,6.468,6.45,6.4006,6.3782,6.3737,6.3273,6.3108,6.3108,6.3108,6.3108,6.3108,6.3108,6.3108,6.3108,6.3108,6.3108,6.3108,6.3108,6.3108,6.3108,6.3108,6.3108,6.3108,6.3108,6.3108,6.3108,6.3108,6.3108,6.3213,6.3677,6.3782,6.3977,6.465,6.5188,6.5398,6.5054,6.4874,6.4201,6.257,6.1792,6.0489,5.8015,5.8544,5.8468,5.6963,5.8484,5.9151,5.8253,5.9466,6.0321,6.0391,6.1547,6.2521,6.3274,6.5562,6.7583,6.9259,6.9618,6.9991,7.044,7.062,7.0679,7.0679,7.0829,7.0889,7.0889,7.0889,7.0889,7.0889,7.0889,7.0889,7.0889,7.0889,7.0889,7.0889,7.0889,7.0889,7.0889,8.3462,8.4021,8.3811,8.1344,8.1621,8.1665,8.0061,7.9803,7.9528,7.8769,7.7868,7.7029,7.6285,7.509,7.4377,7.4377,7.2851,7.219,7.2923,7.1663,7.1476,7.2717,7.0951,6.9375,6.8185,6.7015,6.5624,6.3977,6.468,6.4815,6.447,6.5159,6.5099,6.45,6.5488,6.5368,6.45,6.5159,6.5278,6.4934,6.4276,6.4006,6.3917,6.3333,6.3108,6.3108,6.3108,6.3108,6.3108,6.3108,6.3108,6.3108,6.3108,6.3108,6.3108,6.3108,6.3108,6.3108,6.3108,6.3108,6.3108,6.3108,6.3303,6.3512,6.3512,6.3737,6.4066,6.4381,6.447,6.465,6.5338,6.5757,6.5877,6.5518,6.4617,6.3534,6.2269,6.0983,5.9789,5.8693,5.9458,5.9801,5.9085,6.0519,6.0964,5.9768,6.0928,6.1783,6.2066,6.4038,6.5084,6.4919,6.7148,6.89,6.9977,7.0277,7.056,7.0889,7.0889,7.0889,7.0889,7.0889,7.0889,7.0889,7.0889,7.0889,7.0889,7.0889,7.0889,7.0889,7.0889,7.0889,7.0889,7.0889,7.0889,7.0889,8.4614,8.4614,8.417,8.2816,8.2557,8.2097,8.0734,8.0528,7.9999,7.8596,7.7965,7.7256,7.6116,7.5574,7.5354,7.5624,7.3993,7.339,7.4469,7.3926,7.402,7.5042,7.4676,7.2973,6.9861,6.934,6.782,6.5144,6.5368,6.5368,6.5174,6.5847,6.5787,6.5218,6.646,6.6311,6.5203,6.5877,6.5817,6.5233,6.456,6.4246,6.4096,6.3482,6.3257,6.3213,6.3123,6.3168,6.3213,6.3123,6.3108,6.3108,6.3108,6.3108,6.3108,6.3108,6.3108,6.3108,6.3108,6.3168,6.3257,6.3257,6.3692,6.4156,6.4156,6.459,6.5024,6.5114,6.5233,6.5488,6.6056,6.6161,6.6012,6.5622,6.4038,6.2523,6.1643,5.9784,5.8721,5.9183,6.0086,6.0699,6.0699,6.2225,6.2854,6.1898,6.3288,6.4246,6.4425,6.6251,6.7029,6.649,6.878,7.0037,7.0127,7.0649,7.0889,7.0889,7.0889,7.0889,7.0889,7.0889,7.0889,7.0919,7.1009,7.1038,7.1038,7.1038,7.1038,7.1038,7.0949,7.0889,7.0889,7.0889,7.0889,7.0889,8.4614,8.4614,8.4513,8.4251,8.4224,8.4143,8.3893,8.3852,8.377,8.3503,8.1106,7.9849,8.0959,7.8596,7.7483,7.8909,7.8255,7.7225,7.6052,7.555,7.5931,7.735,7.5058,7.3198,7.2034,6.9493,6.7424,6.5847,6.6984,6.6954,6.5847,6.652,6.649,6.5877,6.664,6.658,6.5877,6.655,6.6789,6.664,6.5951,6.5338,6.4755,6.4126,6.3857,6.3797,6.3273,6.3422,6.3767,6.3273,6.3108,6.3108,6.3108,6.3108,6.3108,6.3108,6.3108,6.3108,6.3108,6.3482,6.3857,6.3857,6.4351,6.4845,6.4845,6.4934,6.5144,6.5727,6.6311,6.6729,6.6835,6.6849,6.6132,6.3908,6.3265,6.2056,5.9197,6.034,6.1082,6.007,6.1986,6.3378,6.3378,6.3677,6.4246,6.5159,6.4994,6.5338,6.646,6.7897,6.8645,6.8525,6.9498,7.0247,7.0769,7.0859,7.0889,7.0889,7.0889,7.0889,7.0889,7.0889,7.0889,7.0949,7.1487,7.1743,7.1743,7.1743,7.1743,7.1683,7.1128,7.0889,7.0889,7.0889,7.0889,7.0889,8.4614,8.4614,8.4614,8.4614,8.4614,8.4614,8.4614,8.4614,8.4278,8.3421,8.2011,8.1033,8.0914,7.9557,7.8971,7.9742,8.0309,8.0292,7.9516,7.8582,7.8215,7.8488,7.7224,7.5235,7.2439,6.9854,6.8241,6.7627,6.7882,6.7673,6.7074,6.7014,6.6819,6.658,6.7254,6.7373,6.7104,6.7403,6.7523,6.7433,6.643,6.5607,6.4964,6.465,6.4291,6.4006,6.4096,6.4066,6.3947,6.3692,6.3363,6.3108,6.3108,6.3108,6.3108,6.3108,6.3108,6.3168,6.3512,6.3782,6.4096,6.4441,6.5039,6.5547,6.5547,6.5817,6.6281,6.6954,6.7313,6.7523,6.7523,6.7254,6.6492,6.494,6.3086,6.1626,6.0924,6.0524,6.0675,6.1595,6.2794,6.3931,6.4994,6.5084,6.5473,6.646,6.6251,6.6654,6.8016,6.8645,6.9303,6.9991,7.032,7.062,7.0889,7.0889,7.0889,7.0889,7.0889,7.0889,7.0889,7.0889,7.0889,7.0919,7.1218,7.1368,7.1368,7.1368,7.1368,7.1338,7.1009,7.0889,7.0889,7.0889,7.0889,7.0889,8.4614,8.4614,8.4614,8.4614,8.4614,8.4614,8.4614,8.4614,8.4157,8.2928,8.243,8.1867,8.1003,8.057,8.0495,8.087,8.204,8.2774,8.2774,8.1755,8.0669,7.9551,7.8444,7.6201,7.2593,7.0486,6.9363,6.9243,6.872,6.8407,6.8211,6.7553,6.7224,6.7254,6.7762,6.7987,6.7987,6.7987,6.7987,6.7898,6.655,6.5697,6.5218,6.5054,6.477,6.4515,6.4874,6.468,6.4216,6.4066,6.3677,6.3273,6.3123,6.3303,6.3512,6.3363,6.3422,6.3602,6.3917,6.4216,6.4605,6.5099,6.5727,6.6236,6.6236,6.664,6.7164,6.7643,6.7898,6.7958,6.7808,6.7343,6.6641,6.5517,6.3088,6.1634,6.2523,6.1006,6.0738,6.3256,6.3812,6.465,6.6311,6.661,6.6969,6.7643,6.7703,6.8196,6.9393,6.9453,6.9901,7.0859,7.0889,7.0889,7.0889,7.0889,7.0889,7.0889,7.0889,7.0889,7.0889,7.0889,7.0889,7.0919,7.1068,7.1128,7.1128,7.1308,7.1278,7.1158,7.1308,7.1188,7.0949,7.1248,7.1188,7.0919,8.4614,8.4614,8.4614,8.4614,8.4614,8.4614,8.4614,8.4614,8.454,8.4433,8.3124,8.2713,8.4103,8.2928,8.2614,8.4116,8.4366,8.4419,8.4419,8.4331,8.3267,8.1021,7.683,7.4112,7.3153,7.1575,7.05,6.9917,6.9887,6.9528,6.8914,6.8241,6.7928,6.7928,6.7987,6.7987,6.7987,6.7987,6.7987,6.7898,6.655,6.5966,6.5847,6.5233,6.5368,6.5787,6.5218,6.4964,6.4815,6.4216,6.3977,6.3842,6.3273,6.3917,6.474,6.4126,6.4381,6.474,6.4156,6.4904,6.5847,6.5906,6.643,6.6924,6.6924,6.6954,6.7014,6.7074,6.7568,6.7808,6.7194,6.7029,6.6177,6.372,6.3084,6.2553,6.1477,6.2164,6.3316,6.468,6.5951,6.7014,6.7778,6.8405,6.9064,6.9738,6.9768,7.0067,7.0709,7.0769,7.0799,7.0889,7.0889,7.0889,7.0889,7.0889,7.0889,7.0889,7.0889,7.0889,7.0889,7.0889,7.0889,7.0949,7.1547,7.1833,7.1863,7.2505,7.2385,7.1893,7.2488,7.198,7.1068,7.2279,7.195,7.0979,8.4614,8.4614,8.4614,8.4614,8.4614,8.4614,8.4614,8.4614,8.4614,8.4614,8.4076,8.3906,8.4526,8.4062,8.392,8.454,8.4614,8.4614,8.4614,8.4614,8.2941,7.9227,7.6011,7.3523,7.1824,7.1182,7.0799,7.056,6.9752,6.9453,6.9588,6.8092,6.7583,6.7987,6.7987,6.8211,6.863,6.863,6.863,6.8541,6.7613,6.6729,6.6011,6.6191,6.6131,6.6026,6.6176,6.5966,6.5577,6.5323,6.4949,6.459,6.4351,6.462,6.4934,6.4695,6.4785,6.5039,6.5188,6.5607,6.6086,6.652,6.6819,6.7014,6.7014,6.7014,6.7134,6.7523,6.8151,6.8421,6.7732,6.7613,6.7166,6.574,6.4467,6.3914,6.4671,6.4482,6.4919,6.664,6.7313,6.8047,6.9139,6.9468,6.9887,7.05,7.056,7.0649,7.0889,7.0889,7.0889,7.0889,7.0889,7.0889,7.0889,7.1308,7.1308,7.0919,7.1308,7.1308,7.0889,7.0889,7.0889,7.0919,7.1158,7.1278,7.1338,7.1996,7.1876,7.1398,7.2475,7.2069,7.1009,7.1936,7.1697,7.0949,8.4614,8.4614,8.4614,8.4614,8.4614,8.4614,8.4614,8.4614,8.4614,8.4614,8.4614,8.4614,8.4614,8.4614,8.4614,8.4614,8.4614,8.4614,8.4614,8.4614,8.288,7.9029,7.5696,7.3307,7.2014,7.177,7.1633,7.1633,7.1273,7.1291,7.172,6.9898,6.9138,6.9349,6.9121,6.8994,6.9004,6.9213,6.9079,6.863,6.7942,6.7134,6.634,6.658,6.652,6.637,6.6819,6.658,6.5996,6.5996,6.5697,6.5278,6.5054,6.5144,6.5368,6.5577,6.5637,6.5727,6.6191,6.6311,6.643,6.6894,6.7014,6.7014,6.7014,6.7014,6.7134,6.7583,6.8062,6.8301,6.8047,6.7987,6.7868,6.7373,6.6176,6.5757,6.7134,6.652,6.661,6.8391,6.8646,6.9155,7.0456,7.0606,7.0755,7.1188,7.1427,7.1427,7.1218,7.1009,7.0889,7.0889,7.0889,7.1009,7.1218,7.1457,7.1354,7.0919,7.1368,7.1338,7.0889,7.0889,7.0889,7.0889,7.0889,7.1009,7.1278,7.1936,7.1816,7.1368,7.2924,7.2445,7.1068,7.2372,7.2013,7.0949,8.4614,8.4614,8.4614,8.4614,8.4614,8.4614,8.4614,8.4614,8.4614,8.4614,8.4614,8.4614,8.4614,8.4614,8.4614,8.4614,8.4614,8.4614,8.4614,8.46,8.357,8.1326,7.59,7.3423,7.4392,7.3695,7.3307,7.3307,7.4836,7.5594,7.5562,7.4168,7.3068,7.2269,7.1511,7.0389,6.9064,6.9708,6.9245,6.7958,6.7284,6.7014,6.6924,6.6251,6.643,6.7029,6.7029,6.661,6.6042,6.6042,6.6026,6.5892,6.5233,6.5488,6.6131,6.6789,6.7014,6.6984,6.7014,6.7014,6.7,6.7014,6.7014,6.7029,6.7029,6.7029,6.7029,6.7015,6.7029,6.7224,6.7883,6.8017,6.8017,6.8017,6.8017,6.8017,6.8017,6.8017,6.8511,6.9858,7.0007,7.0516,7.1773,7.1923,7.1923,7.1923,7.2535,7.2595,7.1953,7.1248,7.0889,7.0889,7.0889,7.1218,7.1893,7.1248,7.0919,7.0919,7.0919,7.0919,7.0889,7.0889,7.0889,7.0889,7.0889,7.1278,7.1953,7.2624,7.2505,7.2102,7.4108,7.327,7.1248,7.3898,7.321,7.1098,8.4614,8.4614,8.4614,8.4614,8.4614,8.4614,8.4614,8.4614,8.4614,8.4614,8.4614,8.4614,8.4614,8.4614,8.4614,8.4614,8.4614,8.4614,8.4614,8.3531,8.3107,8.3557,7.997,7.7339,7.6033,7.5305,7.491,7.491,7.4913,7.5142,7.5562,7.421,7.3128,7.2269,7.1587,7.0695,6.9708,6.9917,6.9498,6.8675,6.8465,6.7837,6.6984,6.6759,6.7472,6.8531,6.8531,6.9092,6.9786,6.9786,6.9107,6.8033,6.6794,6.655,6.6729,6.6954,6.667,6.64,6.6879,6.741,6.773,6.7139,6.7774,6.8531,6.8531,6.8531,6.8854,6.9873,6.9194,6.8644,6.9395,6.9469,6.9409,6.9409,6.9019,6.9019,6.9901,6.9678,6.9887,7.1174,7.1324,7.1683,7.2535,7.2595,7.2595,7.2595,7.2355,7.2132,7.1923,7.1248,7.0889,7.0889,7.0889,7.1009,7.1188,7.1474,7.1593,7.1593,7.1593,7.1354,7.0889,7.0889,7.0889,7.0889,7.0889,7.1278,7.1953,7.2624,7.2787,7.2714,7.3762,7.3432,7.2398,7.3193,7.2984,7.2279,8.4614,8.4614,8.4614,8.4614,8.4614,8.4614,8.4614,8.4614,8.4614,8.4614,8.4614,8.4614,8.4614,8.4614,8.4614,8.4614,8.4614,8.4614,8.4614,8.3701,8.3572,8.454,8.259,8.0504,7.8503,7.7473,7.6941,7.6941,7.6858,7.7014,7.7399,7.5675,7.4395,7.354,7.2213,7.1016,7.0007,7.0007,6.9618,6.8974,6.8704,6.8122,6.742,6.7744,6.8413,6.9288,6.9859,7.063,7.1388,7.1388,7.0438,6.9042,6.8147,6.7472,6.7014,6.7014,6.67,6.6597,6.7608,6.824,6.871,6.9084,6.92,6.9201,6.9201,6.9447,6.9704,6.9993,6.9999,6.996,7.0083,7.004,7.0157,7.0666,7.0426,7.05,7.1547,7.1158,7.1145,7.2176,7.2056,7.2282,7.3206,7.3313,7.3313,7.3313,7.2415,7.1893,7.1893,7.1248,7.0889,7.0889,7.0889,7.1038,7.1278,7.1427,7.1487,7.1487,7.1487,7.1278,7.0889,7.0889,7.0889,7.0889,7.0889,7.1278,7.1923,7.2325,7.2654,7.2937,7.3343,7.3266,7.2937,7.3206,7.3133,7.2847,8.4614,8.4614,8.4614,8.4614,8.4614,8.4614,8.4614,8.4614,8.4614,8.4614,8.4614,8.4614,8.4614,8.4614,8.4614,8.4614,8.4614,8.4614,8.4614,8.4614,8.4614,8.4614,8.395,8.2939,8.1532,8.0055,7.9314,7.9314,7.9978,8.0226,8.004,7.7887,7.6352,7.5287,7.3152,7.1413,7.0067,7.0067,6.9788,6.924,6.8565,6.8327,6.8469,6.9144,6.9459,6.9774,7.11,7.1659,7.1754,7.1632,7.0634,6.9375,6.9245,6.8177,6.7014,6.7074,6.7104,6.7395,6.8788,6.9387,7.0075,7.2084,7.1196,6.9746,6.9602,7.0083,7.0183,6.8773,6.9915,7.0969,7.0304,7.0163,7.0576,7.1803,7.1983,7.2206,7.2907,7.2415,7.2235,7.2907,7.2445,7.2581,7.3851,7.3971,7.3971,7.3971,7.2804,7.2072,7.2072,7.1398,7.0979,7.0979,7.0919,7.1188,7.1803,7.1218,7.0919,7.0979,7.0919,7.0889,7.0889,7.0889,7.0889,7.0889,7.0889,7.1278,7.1893,7.1893,7.2295,7.2877,7.2817,7.2847,7.2967,7.3522,7.3402,7.2967,8.4614,8.4614,8.4614,8.4614,8.4614,8.4614,8.4614,8.4614,8.4614,8.4614,8.4614,8.4614,8.4614,8.4614,8.4614,8.4614,8.4614,8.4614,8.4614,8.4614,8.4614,8.4614,8.4458,8.4223,8.3847,8.2434,8.166,8.166,8.1251,8.0459,7.924,7.8143,7.6278,7.3763,7.3213,7.2132,7.0709,7.0709,7.1042,7.1521,7.0783,7.094,7.1467,7.1082,7.1632,7.2704,7.3024,7.3841,7.4592,7.3482,7.2129,7.0699,6.9545,6.8177,6.7104,6.7628,6.7762,6.796,6.8811,7.0783,7.2673,7.317,7.3839,7.4036,7.2852,7.2698,7.2694,7.2234,7.1135,7.056,7.1491,7.1559,7.1743,7.2565,7.2684,7.2924,7.3582,7.3103,7.2924,7.3612,7.3552,7.3778,7.4587,7.4676,7.4676,7.4676,7.3928,7.3479,7.3479,7.2342,7.1683,7.1683,7.1158,7.0979,7.1128,7.0979,7.1158,7.1683,7.1158,7.0889,7.0889,7.0889,7.0889,7.0889,7.0889,7.1278,7.1893,7.1893,7.2295,7.2847,7.2325,7.2445,7.2847,7.2475,7.291,7.3612,8.4614,8.4614,8.4614,8.4614,8.4931,8.5033,8.4647,8.4931,8.5033,8.4647,8.4614,8.4614,8.4614,8.4614,8.4614,8.4614,8.4614,8.4614,8.4614,8.4614,8.4614,8.4614,8.4614,8.4614,8.4614,8.3849,8.3274,8.2902,8.1845,8.0517,7.8977,7.7492,7.5551,7.3277,7.2456,7.1665,7.0938,7.1379,7.1813,7.2176,7.1933,7.2076,7.243,7.2447,7.2927,7.3694,7.4377,7.5299,7.6154,7.5416,7.3724,7.1803,7.1024,6.9257,6.7553,6.7898,6.874,6.9793,7.0855,7.2848,7.4846,7.591,7.6221,7.579,7.3909,7.3766,7.3596,7.2039,7.1645,7.1559,7.1529,7.1725,7.2116,7.2787,7.3163,7.3612,7.4287,7.3791,7.3642,7.4317,7.4091,7.4168,7.4826,7.4886,7.4766,7.4437,7.4108,7.3762,7.3432,7.2445,7.1893,7.1893,7.1248,7.0889,7.0889,7.0889,7.1068,7.1414,7.1068,7.0889,7.0889,7.0889,7.0889,7.0889,7.0889,7.1098,7.1427,7.1427,7.1816,7.2355,7.1667,7.2026,7.2817,7.2162,7.2342,7.291,8.4614,8.4715,8.4796,8.4796,8.5351,8.5601,8.4898,8.5249,8.5351,8.4695,8.4614,8.4614,8.4614,8.4614,8.4614,8.4614,8.4614,8.4614,8.4614,8.4614,8.4614,8.4614,8.4614,8.4473,8.4184,8.4184,8.3827,8.3113,8.1765,8.0095,7.8182,7.6145,7.4347,7.2829,7.1776,7.1295,7.1377,7.2413,7.295,7.3076,7.3068,7.3154,7.3388,7.3793,7.3955,7.4131,7.527,7.6115,7.6654,7.6414,7.4553,7.2297,7.2144,7.0305,6.8269,6.8631,7.0128,7.1985,7.3444,7.4989,7.661,7.8441,7.8003,7.6621,7.4492,7.4193,7.3619,7.0901,7.1769,7.2701,7.1478,7.1787,7.2432,7.2967,7.3642,7.4257,7.4826,7.4437,7.4287,7.4826,7.4407,7.4287,7.4856,7.4886,7.4676,7.4091,7.4061,7.3762,7.3116,7.2445,7.2013,7.1893,7.1248,7.0889,7.0889,7.0889,7.0889,7.0889,7.0889,7.0889,7.0889,7.0889,7.0889,7.0889,7.0889,7.0889,7.0889,7.0889,7.1218,7.1683,7.1128,7.1561,7.2488,7.2056,7.1833,7.1743,8.4614,8.5182,8.5635,8.5635,8.5736,8.577,8.5669,8.5148,8.4715,8.4614,8.4614,8.4614,8.4614,8.4614,8.4614,8.4614,8.4614,8.4614,8.4614,8.4614,8.4614,8.4614,8.4614,8.3933,8.2557,8.2515,8.2194,8.1503,8.068,7.8462,7.4992,7.3999,7.2706,7.1263,7.2409,7.2922,7.3077,7.452,7.5924,7.7014,7.5763,7.6052,7.711,7.5891,7.5424,7.5448,7.5616,7.5777,7.5677,7.446,7.2926,7.1424,7.0747,6.9819,6.939,7.1194,7.2418,7.3529,7.4943,7.6456,7.7686,7.8006,7.8333,7.8167,7.6492,7.4747,7.3139,7.1911,7.1863,7.2185,7.2568,7.3193,7.3642,7.3762,7.4317,7.4796,7.4886,7.4826,7.4796,7.4886,7.4826,7.4796,7.4886,7.4886,7.4856,7.4766,7.4766,7.4467,7.3791,7.3133,7.2505,7.1923,7.1248,7.0889,7.0889,7.0889,7.0889,7.0889,7.0889,7.0889,7.0889,7.0889,7.0889,7.0889,7.0889,7.0889,7.0889,7.0889,7.0949,7.1038,7.0949,7.1009,7.1248,7.1713,7.1517,7.1128,8.5283,8.5567,8.5804,8.5804,8.5804,8.5635,8.5215,8.5215,8.5114,8.4647,8.4614,8.4614,8.4614,8.4614,8.4614,8.4614,8.4614,8.4614,8.4614,8.4614,8.4614,8.4614,8.3743,8.2928,8.223,8.1312,8.0051,7.8457,7.8661,7.7442,7.4873,7.3772,7.2409,7.097,7.255,7.3276,7.346,7.5853,7.7033,7.7309,7.7503,7.7745,7.7887,7.6804,7.6352,7.6318,7.5845,7.5699,7.56,7.4979,7.3489,7.2006,7.2506,7.1875,7.1285,7.3074,7.4701,7.6102,7.6739,7.83,7.9691,7.9277,7.8697,7.7931,7.6816,7.4748,7.2971,7.2534,7.2445,7.2565,7.2847,7.3462,7.3881,7.3881,7.4467,7.4886,7.4886,7.4886,7.4766,7.4377,7.4347,7.418,7.3821,7.3791,7.3791,7.3791,7.3791,7.3642,7.3373,7.2714,7.2206,7.1923,7.1248,7.0889,7.0889,7.0889,7.0889,7.0889,7.0889,7.0889,7.0889,7.0889,7.0889,7.0889,7.0889,7.0889,7.0889,7.0889,7.0889,7.0889,7.0889,7.0889,7.0949,7.1218,7.1158,7.0949]}]]